<?xml version="1.0" encoding="UTF-8" standalone="no" ?>
<gpx xmlns="http://www.topografix.com/GPX/1/1" xmlns:xsi="http://www.w3.org/2001/XMLSchema-instance" xsi:schemaLocation="http://www.topografix.com/GPX/1/1 http://www.topografix.com/GPX/1/1/gpx.xsd" version="1.1" creator="VisuGPX - https://www.visugpx.com">
  <metadata>
    <name>FORTUNAT visu gpx</name>
  </metadata>
  <trk>
    <name><![CDATA[FORTUNAT12 14:33:41]]></name>
    <trkseg>
      <trkpt lat="44.82534" lon="4.68027">
        <ele>164.04</ele>
        <time>2019-05-12T07:26:28Z</time>
      </trkpt>
      <trkpt lat="44.82535" lon="4.68031">
        <ele>162.12</ele>
        <time>2019-05-12T07:26:46Z</time>
      </trkpt>
      <trkpt lat="44.82536" lon="4.68031">
        <ele>164.04</ele>
        <time>2019-05-12T07:27:05Z</time>
      </trkpt>
      <trkpt lat="44.82536" lon="4.68029">
        <ele>162.12</ele>
        <time>2019-05-12T07:27:18Z</time>
      </trkpt>
      <trkpt lat="44.82537" lon="4.68031">
        <ele>161.64</ele>
        <time>2019-05-12T07:27:21Z</time>
      </trkpt>
      <trkpt lat="44.82541" lon="4.68046">
        <ele>158.27</ele>
        <time>2019-05-12T07:27:35Z</time>
      </trkpt>
      <trkpt lat="44.82542" lon="4.68054">
        <ele>157.31</ele>
        <time>2019-05-12T07:27:41Z</time>
      </trkpt>
      <trkpt lat="44.82543" lon="4.68056">
        <ele>157.31</ele>
        <time>2019-05-12T07:27:44Z</time>
      </trkpt>
      <trkpt lat="44.82546" lon="4.68051">
        <ele>158.27</ele>
        <time>2019-05-12T07:27:52Z</time>
      </trkpt>
      <trkpt lat="44.82545" lon="4.6803">
        <ele>153.95</ele>
        <time>2019-05-12T07:28:06Z</time>
      </trkpt>
      <trkpt lat="44.82552" lon="4.68004">
        <ele>152.51</ele>
        <time>2019-05-12T07:28:24Z</time>
      </trkpt>
      <trkpt lat="44.82573" lon="4.68004">
        <ele>152.03</ele>
        <time>2019-05-12T07:28:33Z</time>
      </trkpt>
      <trkpt lat="44.82599" lon="4.68007">
        <ele>152.51</ele>
        <time>2019-05-12T07:28:53Z</time>
      </trkpt>
      <trkpt lat="44.82612" lon="4.68006">
        <ele>152.99</ele>
        <time>2019-05-12T07:29:03Z</time>
      </trkpt>
      <trkpt lat="44.82624" lon="4.67983">
        <ele>152.99</ele>
        <time>2019-05-12T07:29:19Z</time>
      </trkpt>
      <trkpt lat="44.82628" lon="4.67962">
        <ele>151.06</ele>
        <time>2019-05-12T07:29:31Z</time>
      </trkpt>
      <trkpt lat="44.82629" lon="4.67929">
        <ele>148.66</ele>
        <time>2019-05-12T07:29:48Z</time>
      </trkpt>
      <trkpt lat="44.82629" lon="4.67897">
        <ele>149.14</ele>
        <time>2019-05-12T07:30:05Z</time>
      </trkpt>
      <trkpt lat="44.82633" lon="4.67864">
        <ele>152.99</ele>
        <time>2019-05-12T07:30:23Z</time>
      </trkpt>
      <trkpt lat="44.82634" lon="4.67826">
        <ele>157.79</ele>
        <time>2019-05-12T07:30:41Z</time>
      </trkpt>
      <trkpt lat="44.82636" lon="4.67786">
        <ele>156.35</ele>
        <time>2019-05-12T07:31:01Z</time>
      </trkpt>
      <trkpt lat="44.82636" lon="4.67766">
        <ele>156.35</ele>
        <time>2019-05-12T07:31:10Z</time>
      </trkpt>
      <trkpt lat="44.82638" lon="4.67759">
        <ele>155.39</ele>
        <time>2019-05-12T07:31:14Z</time>
      </trkpt>
      <trkpt lat="44.82631" lon="4.67736">
        <ele>152.03</ele>
        <time>2019-05-12T07:31:25Z</time>
      </trkpt>
      <trkpt lat="44.8263" lon="4.67732">
        <ele>151.06</ele>
        <time>2019-05-12T07:31:27Z</time>
      </trkpt>
      <trkpt lat="44.82628" lon="4.67719">
        <ele>148.66</ele>
        <time>2019-05-12T07:31:33Z</time>
      </trkpt>
      <trkpt lat="44.82625" lon="4.67688">
        <ele>149.62</ele>
        <time>2019-05-12T07:31:49Z</time>
      </trkpt>
      <trkpt lat="44.82623" lon="4.67657">
        <ele>154.91</ele>
        <time>2019-05-12T07:32:04Z</time>
      </trkpt>
      <trkpt lat="44.82623" lon="4.67647">
        <ele>157.31</ele>
        <time>2019-05-12T07:32:09Z</time>
      </trkpt>
      <trkpt lat="44.82624" lon="4.67619">
        <ele>159.72</ele>
        <time>2019-05-12T07:32:23Z</time>
      </trkpt>
      <trkpt lat="44.82623" lon="4.6761">
        <ele>161.16</ele>
        <time>2019-05-12T07:32:28Z</time>
      </trkpt>
      <trkpt lat="44.82622" lon="4.6759">
        <ele>164.04</ele>
        <time>2019-05-12T07:32:38Z</time>
      </trkpt>
      <trkpt lat="44.82619" lon="4.67581">
        <ele>163.08</ele>
        <time>2019-05-12T07:32:43Z</time>
      </trkpt>
      <trkpt lat="44.82614" lon="4.67575">
        <ele>161.64</ele>
        <time>2019-05-12T07:32:47Z</time>
      </trkpt>
      <trkpt lat="44.82611" lon="4.6755">
        <ele>159.24</ele>
        <time>2019-05-12T07:32:59Z</time>
      </trkpt>
      <trkpt lat="44.82609" lon="4.67541">
        <ele>157.31</ele>
        <time>2019-05-12T07:33:04Z</time>
      </trkpt>
      <trkpt lat="44.82597" lon="4.67506">
        <ele>158.27</ele>
        <time>2019-05-12T07:33:20Z</time>
      </trkpt>
      <trkpt lat="44.8259" lon="4.67476">
        <ele>155.87</ele>
        <time>2019-05-12T07:33:35Z</time>
      </trkpt>
      <trkpt lat="44.82586" lon="4.67453">
        <ele>152.03</ele>
        <time>2019-05-12T07:33:49Z</time>
      </trkpt>
      <trkpt lat="44.8258" lon="4.67425">
        <ele>152.03</ele>
        <time>2019-05-12T07:34:03Z</time>
      </trkpt>
      <trkpt lat="44.82567" lon="4.67394">
        <ele>156.35</ele>
        <time>2019-05-12T07:34:20Z</time>
      </trkpt>
      <trkpt lat="44.82552" lon="4.67366">
        <ele>157.31</ele>
        <time>2019-05-12T07:34:38Z</time>
      </trkpt>
      <trkpt lat="44.82532" lon="4.6734">
        <ele>155.87</ele>
        <time>2019-05-12T07:34:57Z</time>
      </trkpt>
      <trkpt lat="44.82515" lon="4.67318">
        <ele>153.95</ele>
        <time>2019-05-12T07:35:13Z</time>
      </trkpt>
      <trkpt lat="44.82497" lon="4.67291">
        <ele>155.39</ele>
        <time>2019-05-12T07:35:32Z</time>
      </trkpt>
      <trkpt lat="44.82483" lon="4.67261">
        <ele>156.83</ele>
        <time>2019-05-12T07:35:49Z</time>
      </trkpt>
      <trkpt lat="44.82469" lon="4.6723">
        <ele>159.24</ele>
        <time>2019-05-12T07:36:08Z</time>
      </trkpt>
      <trkpt lat="44.82458" lon="4.67207">
        <ele>155.87</ele>
        <time>2019-05-12T07:36:22Z</time>
      </trkpt>
      <trkpt lat="44.82452" lon="4.6719">
        <ele>156.83</ele>
        <time>2019-05-12T07:36:37Z</time>
      </trkpt>
      <trkpt lat="44.8244" lon="4.67159">
        <ele>159.24</ele>
        <time>2019-05-12T07:36:54Z</time>
      </trkpt>
      <trkpt lat="44.82428" lon="4.67133">
        <ele>157.31</ele>
        <time>2019-05-12T07:37:11Z</time>
      </trkpt>
      <trkpt lat="44.82421" lon="4.67121">
        <ele>155.87</ele>
        <time>2019-05-12T07:37:19Z</time>
      </trkpt>
      <trkpt lat="44.82408" lon="4.67092">
        <ele>151.54</ele>
        <time>2019-05-12T07:37:37Z</time>
      </trkpt>
      <trkpt lat="44.82397" lon="4.67068">
        <ele>149.62</ele>
        <time>2019-05-12T07:37:52Z</time>
      </trkpt>
      <trkpt lat="44.82388" lon="4.67049">
        <ele>147.22</ele>
        <time>2019-05-12T07:38:04Z</time>
      </trkpt>
      <trkpt lat="44.82377" lon="4.67032">
        <ele>146.26</ele>
        <time>2019-05-12T07:38:18Z</time>
      </trkpt>
      <trkpt lat="44.82368" lon="4.67013">
        <ele>149.14</ele>
        <time>2019-05-12T07:38:27Z</time>
      </trkpt>
      <trkpt lat="44.82361" lon="4.66996">
        <ele>152.03</ele>
        <time>2019-05-12T07:38:38Z</time>
      </trkpt>
      <trkpt lat="44.8235" lon="4.66977">
        <ele>152.99</ele>
        <time>2019-05-12T07:38:52Z</time>
      </trkpt>
      <trkpt lat="44.82338" lon="4.66957">
        <ele>155.39</ele>
        <time>2019-05-12T07:39:06Z</time>
      </trkpt>
      <trkpt lat="44.82326" lon="4.66939">
        <ele>153.95</ele>
        <time>2019-05-12T07:39:21Z</time>
      </trkpt>
      <trkpt lat="44.82313" lon="4.66921">
        <ele>153.47</ele>
        <time>2019-05-12T07:39:37Z</time>
      </trkpt>
      <trkpt lat="44.82305" lon="4.66913">
        <ele>151.06</ele>
        <time>2019-05-12T07:39:48Z</time>
      </trkpt>
      <trkpt lat="44.82293" lon="4.66894">
        <ele>151.06</ele>
        <time>2019-05-12T07:40:02Z</time>
      </trkpt>
      <trkpt lat="44.82289" lon="4.66891">
        <ele>148.66</ele>
        <time>2019-05-12T07:40:07Z</time>
      </trkpt>
      <trkpt lat="44.82283" lon="4.66884">
        <ele>147.7</ele>
        <time>2019-05-12T07:40:13Z</time>
      </trkpt>
      <trkpt lat="44.82267" lon="4.6686">
        <ele>153.95</ele>
        <time>2019-05-12T07:40:28Z</time>
      </trkpt>
      <trkpt lat="44.82256" lon="4.66836">
        <ele>159.24</ele>
        <time>2019-05-12T07:40:40Z</time>
      </trkpt>
      <trkpt lat="44.82241" lon="4.66813">
        <ele>161.16</ele>
        <time>2019-05-12T07:40:53Z</time>
      </trkpt>
      <trkpt lat="44.82236" lon="4.66806">
        <ele>161.64</ele>
        <time>2019-05-12T07:40:59Z</time>
      </trkpt>
      <trkpt lat="44.82232" lon="4.66798">
        <ele>162.6</ele>
        <time>2019-05-12T07:41:04Z</time>
      </trkpt>
      <trkpt lat="44.82231" lon="4.66795">
        <ele>162.6</ele>
        <time>2019-05-12T07:41:06Z</time>
      </trkpt>
      <trkpt lat="44.82217" lon="4.6678">
        <ele>159.72</ele>
        <time>2019-05-12T07:41:19Z</time>
      </trkpt>
      <trkpt lat="44.82204" lon="4.6676">
        <ele>158.75</ele>
        <time>2019-05-12T07:41:32Z</time>
      </trkpt>
      <trkpt lat="44.82194" lon="4.66737">
        <ele>160.68</ele>
        <time>2019-05-12T07:41:44Z</time>
      </trkpt>
      <trkpt lat="44.82187" lon="4.66724">
        <ele>160.68</ele>
        <time>2019-05-12T07:41:51Z</time>
      </trkpt>
      <trkpt lat="44.82175" lon="4.66696">
        <ele>163.56</ele>
        <time>2019-05-12T07:42:06Z</time>
      </trkpt>
      <trkpt lat="44.82159" lon="4.66666">
        <ele>163.56</ele>
        <time>2019-05-12T07:42:20Z</time>
      </trkpt>
      <trkpt lat="44.82142" lon="4.66644">
        <ele>160.68</ele>
        <time>2019-05-12T07:42:36Z</time>
      </trkpt>
      <trkpt lat="44.8212" lon="4.66625">
        <ele>155.39</ele>
        <time>2019-05-12T07:42:54Z</time>
      </trkpt>
      <trkpt lat="44.82112" lon="4.66617">
        <ele>153.95</ele>
        <time>2019-05-12T07:43:01Z</time>
      </trkpt>
      <trkpt lat="44.82093" lon="4.66607">
        <ele>147.22</ele>
        <time>2019-05-12T07:43:17Z</time>
      </trkpt>
      <trkpt lat="44.82087" lon="4.66605">
        <ele>143.37</ele>
        <time>2019-05-12T07:43:23Z</time>
      </trkpt>
      <trkpt lat="44.82072" lon="4.66596">
        <ele>138.09</ele>
        <time>2019-05-12T07:43:35Z</time>
      </trkpt>
      <trkpt lat="44.82058" lon="4.66569">
        <ele>147.7</ele>
        <time>2019-05-12T07:43:49Z</time>
      </trkpt>
      <trkpt lat="44.82046" lon="4.66542">
        <ele>156.83</ele>
        <time>2019-05-12T07:44:02Z</time>
      </trkpt>
      <trkpt lat="44.82033" lon="4.66514">
        <ele>159.24</ele>
        <time>2019-05-12T07:44:16Z</time>
      </trkpt>
      <trkpt lat="44.8202" lon="4.66493">
        <ele>155.87</ele>
        <time>2019-05-12T07:44:31Z</time>
      </trkpt>
      <trkpt lat="44.82009" lon="4.66475">
        <ele>154.43</ele>
        <time>2019-05-12T07:44:45Z</time>
      </trkpt>
      <trkpt lat="44.82005" lon="4.66467">
        <ele>155.39</ele>
        <time>2019-05-12T07:44:50Z</time>
      </trkpt>
      <trkpt lat="44.82001" lon="4.66457">
        <ele>156.83</ele>
        <time>2019-05-12T07:44:55Z</time>
      </trkpt>
      <trkpt lat="44.81989" lon="4.6643">
        <ele>158.27</ele>
        <time>2019-05-12T07:45:11Z</time>
      </trkpt>
      <trkpt lat="44.81988" lon="4.66429">
        <ele>158.27</ele>
        <time>2019-05-12T07:45:12Z</time>
      </trkpt>
      <trkpt lat="44.81981" lon="4.66405">
        <ele>159.72</ele>
        <time>2019-05-12T07:45:29Z</time>
      </trkpt>
      <trkpt lat="44.81977" lon="4.66382">
        <ele>161.16</ele>
        <time>2019-05-12T07:45:42Z</time>
      </trkpt>
      <trkpt lat="44.81968" lon="4.66347">
        <ele>165.48</ele>
        <time>2019-05-12T07:45:54Z</time>
      </trkpt>
      <trkpt lat="44.8196" lon="4.66315">
        <ele>165.48</ele>
        <time>2019-05-12T07:46:08Z</time>
      </trkpt>
      <trkpt lat="44.81949" lon="4.66287">
        <ele>156.83</ele>
        <time>2019-05-12T07:46:23Z</time>
      </trkpt>
      <trkpt lat="44.81938" lon="4.66264">
        <ele>152.03</ele>
        <time>2019-05-12T07:46:39Z</time>
      </trkpt>
      <trkpt lat="44.8193" lon="4.66237">
        <ele>151.54</ele>
        <time>2019-05-12T07:46:54Z</time>
      </trkpt>
      <trkpt lat="44.81922" lon="4.66207">
        <ele>155.87</ele>
        <time>2019-05-12T07:47:08Z</time>
      </trkpt>
      <trkpt lat="44.81914" lon="4.66184">
        <ele>157.31</ele>
        <time>2019-05-12T07:47:21Z</time>
      </trkpt>
      <trkpt lat="44.81903" lon="4.66163">
        <ele>155.39</ele>
        <time>2019-05-12T07:47:35Z</time>
      </trkpt>
      <trkpt lat="44.81891" lon="4.66142">
        <ele>155.87</ele>
        <time>2019-05-12T07:47:49Z</time>
      </trkpt>
      <trkpt lat="44.81881" lon="4.66118">
        <ele>157.79</ele>
        <time>2019-05-12T07:48:03Z</time>
      </trkpt>
      <trkpt lat="44.81865" lon="4.66085">
        <ele>158.27</ele>
        <time>2019-05-12T07:48:20Z</time>
      </trkpt>
      <trkpt lat="44.81864" lon="4.66075">
        <ele>159.24</ele>
        <time>2019-05-12T07:48:25Z</time>
      </trkpt>
      <trkpt lat="44.81859" lon="4.66053">
        <ele>158.75</ele>
        <time>2019-05-12T07:48:40Z</time>
      </trkpt>
      <trkpt lat="44.81856" lon="4.6604">
        <ele>157.31</ele>
        <time>2019-05-12T07:48:51Z</time>
      </trkpt>
      <trkpt lat="44.81852" lon="4.66019">
        <ele>158.27</ele>
        <time>2019-05-12T07:49:00Z</time>
      </trkpt>
      <trkpt lat="44.81843" lon="4.6598">
        <ele>160.68</ele>
        <time>2019-05-12T07:49:15Z</time>
      </trkpt>
      <trkpt lat="44.8184" lon="4.65954">
        <ele>156.83</ele>
        <time>2019-05-12T07:49:30Z</time>
      </trkpt>
      <trkpt lat="44.81838" lon="4.65919">
        <ele>155.87</ele>
        <time>2019-05-12T07:49:45Z</time>
      </trkpt>
      <trkpt lat="44.81839" lon="4.65898">
        <ele>150.58</ele>
        <time>2019-05-12T07:49:58Z</time>
      </trkpt>
      <trkpt lat="44.81837" lon="4.65882">
        <ele>150.58</ele>
        <time>2019-05-12T07:50:06Z</time>
      </trkpt>
      <trkpt lat="44.81836" lon="4.65878">
        <ele>150.58</ele>
        <time>2019-05-12T07:50:08Z</time>
      </trkpt>
      <trkpt lat="44.81836" lon="4.65865">
        <ele>148.66</ele>
        <time>2019-05-12T07:50:15Z</time>
      </trkpt>
      <trkpt lat="44.81844" lon="4.65838">
        <ele>151.06</ele>
        <time>2019-05-12T07:50:30Z</time>
      </trkpt>
      <trkpt lat="44.81847" lon="4.65816">
        <ele>153.47</ele>
        <time>2019-05-12T07:50:45Z</time>
      </trkpt>
      <trkpt lat="44.81847" lon="4.65783">
        <ele>154.91</ele>
        <time>2019-05-12T07:51:00Z</time>
      </trkpt>
      <trkpt lat="44.81841" lon="4.65758">
        <ele>152.51</ele>
        <time>2019-05-12T07:51:12Z</time>
      </trkpt>
      <trkpt lat="44.81839" lon="4.65732">
        <ele>148.66</ele>
        <time>2019-05-12T07:51:25Z</time>
      </trkpt>
      <trkpt lat="44.81838" lon="4.65725">
        <ele>149.14</ele>
        <time>2019-05-12T07:51:30Z</time>
      </trkpt>
      <trkpt lat="44.81836" lon="4.65716">
        <ele>150.58</ele>
        <time>2019-05-12T07:51:35Z</time>
      </trkpt>
      <trkpt lat="44.81834" lon="4.65677">
        <ele>155.87</ele>
        <time>2019-05-12T07:51:51Z</time>
      </trkpt>
      <trkpt lat="44.81828" lon="4.65649">
        <ele>159.72</ele>
        <time>2019-05-12T07:52:04Z</time>
      </trkpt>
      <trkpt lat="44.81817" lon="4.65629">
        <ele>166.45</ele>
        <time>2019-05-12T07:52:16Z</time>
      </trkpt>
      <trkpt lat="44.81812" lon="4.65615">
        <ele>166.45</ele>
        <time>2019-05-12T07:52:29Z</time>
      </trkpt>
      <trkpt lat="44.81801" lon="4.65603">
        <ele>164.04</ele>
        <time>2019-05-12T07:52:41Z</time>
      </trkpt>
      <trkpt lat="44.81793" lon="4.65613">
        <ele>159.24</ele>
        <time>2019-05-12T07:52:53Z</time>
      </trkpt>
      <trkpt lat="44.81779" lon="4.65606">
        <ele>163.56</ele>
        <time>2019-05-12T07:53:06Z</time>
      </trkpt>
      <trkpt lat="44.81769" lon="4.65609">
        <ele>166.93</ele>
        <time>2019-05-12T07:53:20Z</time>
      </trkpt>
      <trkpt lat="44.81761" lon="4.6561">
        <ele>170.29</ele>
        <time>2019-05-12T07:53:34Z</time>
      </trkpt>
      <trkpt lat="44.81753" lon="4.65611">
        <ele>175.1</ele>
        <time>2019-05-12T07:53:44Z</time>
      </trkpt>
      <trkpt lat="44.81739" lon="4.65607">
        <ele>178.46</ele>
        <time>2019-05-12T07:53:55Z</time>
      </trkpt>
      <trkpt lat="44.81738" lon="4.65606">
        <ele>178.94</ele>
        <time>2019-05-12T07:53:57Z</time>
      </trkpt>
      <trkpt lat="44.81721" lon="4.65606">
        <ele>182.79</ele>
        <time>2019-05-12T07:54:11Z</time>
      </trkpt>
      <trkpt lat="44.81719" lon="4.65607">
        <ele>183.27</ele>
        <time>2019-05-12T07:54:12Z</time>
      </trkpt>
      <trkpt lat="44.81709" lon="4.65606">
        <ele>187.11</ele>
        <time>2019-05-12T07:54:25Z</time>
      </trkpt>
      <trkpt lat="44.81705" lon="4.65599">
        <ele>189.04</ele>
        <time>2019-05-12T07:54:36Z</time>
      </trkpt>
      <trkpt lat="44.81713" lon="4.65586">
        <ele>195.28</ele>
        <time>2019-05-12T07:54:49Z</time>
      </trkpt>
      <trkpt lat="44.81713" lon="4.65578">
        <ele>202.01</ele>
        <time>2019-05-12T07:54:58Z</time>
      </trkpt>
      <trkpt lat="44.81699" lon="4.65578">
        <ele>206.34</ele>
        <time>2019-05-12T07:55:11Z</time>
      </trkpt>
      <trkpt lat="44.81692" lon="4.65578">
        <ele>206.34</ele>
        <time>2019-05-12T07:55:24Z</time>
      </trkpt>
      <trkpt lat="44.81681" lon="4.65576">
        <ele>207.3</ele>
        <time>2019-05-12T07:55:36Z</time>
      </trkpt>
      <trkpt lat="44.81667" lon="4.65574">
        <ele>208.26</ele>
        <time>2019-05-12T07:55:51Z</time>
      </trkpt>
      <trkpt lat="44.81658" lon="4.65572">
        <ele>207.78</ele>
        <time>2019-05-12T07:56:02Z</time>
      </trkpt>
      <trkpt lat="44.81645" lon="4.65568">
        <ele>208.74</ele>
        <time>2019-05-12T07:56:18Z</time>
      </trkpt>
      <trkpt lat="44.81636" lon="4.65565">
        <ele>210.19</ele>
        <time>2019-05-12T07:56:30Z</time>
      </trkpt>
      <trkpt lat="44.81623" lon="4.65564">
        <ele>221.24</ele>
        <time>2019-05-12T07:56:43Z</time>
      </trkpt>
      <trkpt lat="44.81617" lon="4.65568">
        <ele>229.89</ele>
        <time>2019-05-12T07:56:57Z</time>
      </trkpt>
      <trkpt lat="44.81615" lon="4.6556">
        <ele>231.81</ele>
        <time>2019-05-12T07:57:09Z</time>
      </trkpt>
      <trkpt lat="44.81612" lon="4.65566">
        <ele>233.26</ele>
        <time>2019-05-12T07:57:24Z</time>
      </trkpt>
      <trkpt lat="44.81604" lon="4.65563">
        <ele>232.78</ele>
        <time>2019-05-12T07:57:38Z</time>
      </trkpt>
      <trkpt lat="44.81596" lon="4.65559">
        <ele>236.14</ele>
        <time>2019-05-12T07:57:49Z</time>
      </trkpt>
      <trkpt lat="44.81595" lon="4.65577">
        <ele>238.06</ele>
        <time>2019-05-12T07:58:00Z</time>
      </trkpt>
      <trkpt lat="44.81589" lon="4.65585">
        <ele>239.51</ele>
        <time>2019-05-12T07:58:07Z</time>
      </trkpt>
      <trkpt lat="44.81578" lon="4.65596">
        <ele>245.27</ele>
        <time>2019-05-12T07:58:21Z</time>
      </trkpt>
      <trkpt lat="44.81577" lon="4.65599">
        <ele>244.31</ele>
        <time>2019-05-12T07:58:38Z</time>
      </trkpt>
      <trkpt lat="44.81576" lon="4.65604">
        <ele>246.23</ele>
        <time>2019-05-12T07:58:54Z</time>
      </trkpt>
      <trkpt lat="44.81582" lon="4.65618">
        <ele>247.68</ele>
        <time>2019-05-12T07:59:08Z</time>
      </trkpt>
      <trkpt lat="44.81588" lon="4.65627">
        <ele>247.68</ele>
        <time>2019-05-12T07:59:18Z</time>
      </trkpt>
      <trkpt lat="44.81597" lon="4.65642">
        <ele>248.64</ele>
        <time>2019-05-12T07:59:31Z</time>
      </trkpt>
      <trkpt lat="44.81598" lon="4.65648">
        <ele>250.08</ele>
        <time>2019-05-12T07:59:36Z</time>
      </trkpt>
      <trkpt lat="44.81599" lon="4.65664">
        <ele>252.48</ele>
        <time>2019-05-12T07:59:48Z</time>
      </trkpt>
      <trkpt lat="44.81598" lon="4.65663">
        <ele>253.44</ele>
        <time>2019-05-12T07:59:50Z</time>
      </trkpt>
      <trkpt lat="44.81591" lon="4.65656">
        <ele>256.33</ele>
        <time>2019-05-12T08:00:04Z</time>
      </trkpt>
      <trkpt lat="44.81593" lon="4.65654">
        <ele>261.14</ele>
        <time>2019-05-12T08:00:17Z</time>
      </trkpt>
      <trkpt lat="44.81594" lon="4.65653">
        <ele>264.02</ele>
        <time>2019-05-12T08:00:34Z</time>
      </trkpt>
      <trkpt lat="44.81593" lon="4.65657">
        <ele>260.17</ele>
        <time>2019-05-12T08:00:51Z</time>
      </trkpt>
      <trkpt lat="44.81584" lon="4.65653">
        <ele>259.21</ele>
        <time>2019-05-12T08:01:05Z</time>
      </trkpt>
      <trkpt lat="44.81579" lon="4.65651">
        <ele>261.14</ele>
        <time>2019-05-12T08:01:20Z</time>
      </trkpt>
      <trkpt lat="44.81573" lon="4.65646">
        <ele>263.06</ele>
        <time>2019-05-12T08:01:29Z</time>
      </trkpt>
      <trkpt lat="44.81571" lon="4.6565">
        <ele>264.5</ele>
        <time>2019-05-12T08:01:42Z</time>
      </trkpt>
      <trkpt lat="44.8157" lon="4.65661">
        <ele>265.46</ele>
        <time>2019-05-12T08:01:56Z</time>
      </trkpt>
      <trkpt lat="44.81563" lon="4.65664">
        <ele>269.31</ele>
        <time>2019-05-12T08:02:08Z</time>
      </trkpt>
      <trkpt lat="44.81563" lon="4.65675">
        <ele>276.52</ele>
        <time>2019-05-12T08:02:23Z</time>
      </trkpt>
      <trkpt lat="44.81557" lon="4.65689">
        <ele>280.84</ele>
        <time>2019-05-12T08:02:36Z</time>
      </trkpt>
      <trkpt lat="44.81552" lon="4.65707">
        <ele>284.21</ele>
        <time>2019-05-12T08:02:49Z</time>
      </trkpt>
      <trkpt lat="44.81548" lon="4.65719">
        <ele>287.09</ele>
        <time>2019-05-12T08:02:58Z</time>
      </trkpt>
      <trkpt lat="44.81541" lon="4.65735">
        <ele>289.97</ele>
        <time>2019-05-12T08:03:12Z</time>
      </trkpt>
      <trkpt lat="44.8153" lon="4.65733">
        <ele>292.86</ele>
        <time>2019-05-12T08:03:26Z</time>
      </trkpt>
      <trkpt lat="44.81525" lon="4.65745">
        <ele>293.82</ele>
        <time>2019-05-12T08:03:39Z</time>
      </trkpt>
      <trkpt lat="44.81517" lon="4.65743">
        <ele>296.22</ele>
        <time>2019-05-12T08:03:51Z</time>
      </trkpt>
      <trkpt lat="44.81509" lon="4.65753">
        <ele>297.67</ele>
        <time>2019-05-12T08:04:05Z</time>
      </trkpt>
      <trkpt lat="44.81505" lon="4.65757">
        <ele>298.63</ele>
        <time>2019-05-12T08:04:10Z</time>
      </trkpt>
      <trkpt lat="44.81497" lon="4.65759">
        <ele>305.84</ele>
        <time>2019-05-12T08:04:24Z</time>
      </trkpt>
      <trkpt lat="44.81485" lon="4.65772">
        <ele>312.57</ele>
        <time>2019-05-12T08:04:39Z</time>
      </trkpt>
      <trkpt lat="44.81489" lon="4.65786">
        <ele>317.85</ele>
        <time>2019-05-12T08:04:54Z</time>
      </trkpt>
      <trkpt lat="44.81484" lon="4.65793">
        <ele>316.89</ele>
        <time>2019-05-12T08:05:06Z</time>
      </trkpt>
      <trkpt lat="44.81472" lon="4.65806">
        <ele>318.33</ele>
        <time>2019-05-12T08:05:21Z</time>
      </trkpt>
      <trkpt lat="44.81471" lon="4.65799">
        <ele>323.62</ele>
        <time>2019-05-12T08:05:36Z</time>
      </trkpt>
      <trkpt lat="44.81461" lon="4.65806">
        <ele>326.02</ele>
        <time>2019-05-12T08:05:48Z</time>
      </trkpt>
      <trkpt lat="44.81451" lon="4.65816">
        <ele>333.71</ele>
        <time>2019-05-12T08:06:05Z</time>
      </trkpt>
      <trkpt lat="44.81448" lon="4.65825">
        <ele>337.08</ele>
        <time>2019-05-12T08:06:14Z</time>
      </trkpt>
      <trkpt lat="44.81443" lon="4.65828">
        <ele>339</ele>
        <time>2019-05-12T08:06:25Z</time>
      </trkpt>
      <trkpt lat="44.81434" lon="4.65834">
        <ele>343.33</ele>
        <time>2019-05-12T08:06:36Z</time>
      </trkpt>
      <trkpt lat="44.81429" lon="4.65832">
        <ele>346.69</ele>
        <time>2019-05-12T08:06:48Z</time>
      </trkpt>
      <trkpt lat="44.8142" lon="4.65841">
        <ele>349.58</ele>
        <time>2019-05-12T08:07:01Z</time>
      </trkpt>
      <trkpt lat="44.81412" lon="4.6584">
        <ele>348.62</ele>
        <time>2019-05-12T08:07:11Z</time>
      </trkpt>
      <trkpt lat="44.81411" lon="4.6584">
        <ele>351.5</ele>
        <time>2019-05-12T08:07:24Z</time>
      </trkpt>
      <trkpt lat="44.81418" lon="4.65836">
        <ele>354.86</ele>
        <time>2019-05-12T08:07:40Z</time>
      </trkpt>
      <trkpt lat="44.81413" lon="4.65828">
        <ele>357.27</ele>
        <time>2019-05-12T08:07:57Z</time>
      </trkpt>
      <trkpt lat="44.81402" lon="4.6583">
        <ele>357.75</ele>
        <time>2019-05-12T08:08:10Z</time>
      </trkpt>
      <trkpt lat="44.814" lon="4.65818">
        <ele>355.83</ele>
        <time>2019-05-12T08:08:25Z</time>
      </trkpt>
      <trkpt lat="44.81395" lon="4.65823">
        <ele>355.34</ele>
        <time>2019-05-12T08:08:37Z</time>
      </trkpt>
      <trkpt lat="44.81391" lon="4.65818">
        <ele>358.23</ele>
        <time>2019-05-12T08:08:49Z</time>
      </trkpt>
      <trkpt lat="44.81393" lon="4.65815">
        <ele>359.67</ele>
        <time>2019-05-12T08:08:51Z</time>
      </trkpt>
      <trkpt lat="44.81393" lon="4.65803">
        <ele>363.04</ele>
        <time>2019-05-12T08:09:04Z</time>
      </trkpt>
      <trkpt lat="44.81385" lon="4.65802">
        <ele>363.52</ele>
        <time>2019-05-12T08:09:20Z</time>
      </trkpt>
      <trkpt lat="44.81383" lon="4.65805">
        <ele>364.48</ele>
        <time>2019-05-12T08:09:24Z</time>
      </trkpt>
      <trkpt lat="44.81375" lon="4.65811">
        <ele>366.88</ele>
        <time>2019-05-12T08:09:35Z</time>
      </trkpt>
      <trkpt lat="44.81365" lon="4.65815">
        <ele>370.24</ele>
        <time>2019-05-12T08:09:46Z</time>
      </trkpt>
      <trkpt lat="44.8136" lon="4.6581">
        <ele>372.65</ele>
        <time>2019-05-12T08:09:59Z</time>
      </trkpt>
      <trkpt lat="44.81361" lon="4.65803">
        <ele>375.05</ele>
        <time>2019-05-12T08:10:14Z</time>
      </trkpt>
      <trkpt lat="44.8136" lon="4.65803">
        <ele>375.53</ele>
        <time>2019-05-12T08:10:17Z</time>
      </trkpt>
      <trkpt lat="44.81353" lon="4.65799">
        <ele>376.97</ele>
        <time>2019-05-12T08:10:28Z</time>
      </trkpt>
      <trkpt lat="44.81351" lon="4.65798">
        <ele>377.45</ele>
        <time>2019-05-12T08:10:31Z</time>
      </trkpt>
      <trkpt lat="44.81339" lon="4.658">
        <ele>379.86</ele>
        <time>2019-05-12T08:10:43Z</time>
      </trkpt>
      <trkpt lat="44.81338" lon="4.65792">
        <ele>389.47</ele>
        <time>2019-05-12T08:10:56Z</time>
      </trkpt>
      <trkpt lat="44.81326" lon="4.6579">
        <ele>394.28</ele>
        <time>2019-05-12T08:11:07Z</time>
      </trkpt>
      <trkpt lat="44.8132" lon="4.65799">
        <ele>396.68</ele>
        <time>2019-05-12T08:11:17Z</time>
      </trkpt>
      <trkpt lat="44.81314" lon="4.65802">
        <ele>401.49</ele>
        <time>2019-05-12T08:11:29Z</time>
      </trkpt>
      <trkpt lat="44.81307" lon="4.65804">
        <ele>401.97</ele>
        <time>2019-05-12T08:11:40Z</time>
      </trkpt>
      <trkpt lat="44.81301" lon="4.65816">
        <ele>404.37</ele>
        <time>2019-05-12T08:11:54Z</time>
      </trkpt>
      <trkpt lat="44.81295" lon="4.65825">
        <ele>404.85</ele>
        <time>2019-05-12T08:12:07Z</time>
      </trkpt>
      <trkpt lat="44.8129" lon="4.65832">
        <ele>409.66</ele>
        <time>2019-05-12T08:12:19Z</time>
      </trkpt>
      <trkpt lat="44.81285" lon="4.65844">
        <ele>413.98</ele>
        <time>2019-05-12T08:12:32Z</time>
      </trkpt>
      <trkpt lat="44.81281" lon="4.65856">
        <ele>417.83</ele>
        <time>2019-05-12T08:12:46Z</time>
      </trkpt>
      <trkpt lat="44.81276" lon="4.65856">
        <ele>420.23</ele>
        <time>2019-05-12T08:13:03Z</time>
      </trkpt>
      <trkpt lat="44.81266" lon="4.65858">
        <ele>422.16</ele>
        <time>2019-05-12T08:13:16Z</time>
      </trkpt>
      <trkpt lat="44.81265" lon="4.65864">
        <ele>423.6</ele>
        <time>2019-05-12T08:13:28Z</time>
      </trkpt>
      <trkpt lat="44.81262" lon="4.65876">
        <ele>425.04</ele>
        <time>2019-05-12T08:13:40Z</time>
      </trkpt>
      <trkpt lat="44.81258" lon="4.65876">
        <ele>426.96</ele>
        <time>2019-05-12T08:13:57Z</time>
      </trkpt>
      <trkpt lat="44.8125" lon="4.65873">
        <ele>427.92</ele>
        <time>2019-05-12T08:14:12Z</time>
      </trkpt>
      <trkpt lat="44.81248" lon="4.65872">
        <ele>434.17</ele>
        <time>2019-05-12T08:14:34Z</time>
      </trkpt>
      <trkpt lat="44.81244" lon="4.65873">
        <ele>434.17</ele>
        <time>2019-05-12T08:14:43Z</time>
      </trkpt>
      <trkpt lat="44.81241" lon="4.65862">
        <ele>431.29</ele>
        <time>2019-05-12T08:14:55Z</time>
      </trkpt>
      <trkpt lat="44.81241" lon="4.65854">
        <ele>429.85</ele>
        <time>2019-05-12T08:15:01Z</time>
      </trkpt>
      <trkpt lat="44.81239" lon="4.65851">
        <ele>429.37</ele>
        <time>2019-05-12T08:15:03Z</time>
      </trkpt>
      <trkpt lat="44.81237" lon="4.65831">
        <ele>430.81</ele>
        <time>2019-05-12T08:15:14Z</time>
      </trkpt>
      <trkpt lat="44.81236" lon="4.65822">
        <ele>431.29</ele>
        <time>2019-05-12T08:15:18Z</time>
      </trkpt>
      <trkpt lat="44.81233" lon="4.6581">
        <ele>432.73</ele>
        <time>2019-05-12T08:15:24Z</time>
      </trkpt>
      <trkpt lat="44.81225" lon="4.65789">
        <ele>435.13</ele>
        <time>2019-05-12T08:15:37Z</time>
      </trkpt>
      <trkpt lat="44.81221" lon="4.65782">
        <ele>436.58</ele>
        <time>2019-05-12T08:15:43Z</time>
      </trkpt>
      <trkpt lat="44.8121" lon="4.65768">
        <ele>432.73</ele>
        <time>2019-05-12T08:15:56Z</time>
      </trkpt>
      <trkpt lat="44.81206" lon="4.65761">
        <ele>429.85</ele>
        <time>2019-05-12T08:16:10Z</time>
      </trkpt>
      <trkpt lat="44.81202" lon="4.6576">
        <ele>427.92</ele>
        <time>2019-05-12T08:16:22Z</time>
      </trkpt>
      <trkpt lat="44.81196" lon="4.6576">
        <ele>427.44</ele>
        <time>2019-05-12T08:16:31Z</time>
      </trkpt>
      <trkpt lat="44.81184" lon="4.65753">
        <ele>426</ele>
        <time>2019-05-12T08:16:43Z</time>
      </trkpt>
      <trkpt lat="44.81183" lon="4.65752">
        <ele>426</ele>
        <time>2019-05-12T08:16:44Z</time>
      </trkpt>
      <trkpt lat="44.81179" lon="4.65746">
        <ele>426</ele>
        <time>2019-05-12T08:16:49Z</time>
      </trkpt>
      <trkpt lat="44.81172" lon="4.65735">
        <ele>426.96</ele>
        <time>2019-05-12T08:17:02Z</time>
      </trkpt>
      <trkpt lat="44.81165" lon="4.65731">
        <ele>426.48</ele>
        <time>2019-05-12T08:17:14Z</time>
      </trkpt>
      <trkpt lat="44.8116" lon="4.65727">
        <ele>425.04</ele>
        <time>2019-05-12T08:17:23Z</time>
      </trkpt>
      <trkpt lat="44.81159" lon="4.65726">
        <ele>425.04</ele>
        <time>2019-05-12T08:17:25Z</time>
      </trkpt>
      <trkpt lat="44.81151" lon="4.65715">
        <ele>424.08</ele>
        <time>2019-05-12T08:17:37Z</time>
      </trkpt>
      <trkpt lat="44.81144" lon="4.65705">
        <ele>424.08</ele>
        <time>2019-05-12T08:17:51Z</time>
      </trkpt>
      <trkpt lat="44.81134" lon="4.65691">
        <ele>423.6</ele>
        <time>2019-05-12T08:18:05Z</time>
      </trkpt>
      <trkpt lat="44.81124" lon="4.65684">
        <ele>425.04</ele>
        <time>2019-05-12T08:18:17Z</time>
      </trkpt>
      <trkpt lat="44.81114" lon="4.65679">
        <ele>425.52</ele>
        <time>2019-05-12T08:18:29Z</time>
      </trkpt>
      <trkpt lat="44.81105" lon="4.65674">
        <ele>426</ele>
        <time>2019-05-12T08:18:40Z</time>
      </trkpt>
      <trkpt lat="44.81099" lon="4.65664">
        <ele>425.52</ele>
        <time>2019-05-12T08:18:52Z</time>
      </trkpt>
      <trkpt lat="44.81091" lon="4.65658">
        <ele>423.6</ele>
        <time>2019-05-12T08:19:01Z</time>
      </trkpt>
      <trkpt lat="44.8108" lon="4.65656">
        <ele>422.16</ele>
        <time>2019-05-12T08:19:14Z</time>
      </trkpt>
      <trkpt lat="44.81071" lon="4.65651">
        <ele>421.19</ele>
        <time>2019-05-12T08:19:28Z</time>
      </trkpt>
      <trkpt lat="44.81062" lon="4.65638">
        <ele>421.19</ele>
        <time>2019-05-12T08:19:39Z</time>
      </trkpt>
      <trkpt lat="44.81051" lon="4.65626">
        <ele>425.04</ele>
        <time>2019-05-12T08:19:53Z</time>
      </trkpt>
      <trkpt lat="44.81042" lon="4.65619">
        <ele>425.04</ele>
        <time>2019-05-12T08:20:06Z</time>
      </trkpt>
      <trkpt lat="44.81039" lon="4.65614">
        <ele>425.04</ele>
        <time>2019-05-12T08:20:13Z</time>
      </trkpt>
      <trkpt lat="44.81036" lon="4.65611">
        <ele>425.04</ele>
        <time>2019-05-12T08:20:17Z</time>
      </trkpt>
      <trkpt lat="44.81025" lon="4.65607">
        <ele>426</ele>
        <time>2019-05-12T08:20:29Z</time>
      </trkpt>
      <trkpt lat="44.81017" lon="4.65604">
        <ele>426.96</ele>
        <time>2019-05-12T08:20:41Z</time>
      </trkpt>
      <trkpt lat="44.81011" lon="4.65604">
        <ele>424.08</ele>
        <time>2019-05-12T08:20:55Z</time>
      </trkpt>
      <trkpt lat="44.80999" lon="4.65607">
        <ele>420.71</ele>
        <time>2019-05-12T08:21:09Z</time>
      </trkpt>
      <trkpt lat="44.80988" lon="4.65606">
        <ele>419.27</ele>
        <time>2019-05-12T08:21:22Z</time>
      </trkpt>
      <trkpt lat="44.80979" lon="4.65602">
        <ele>420.23</ele>
        <time>2019-05-12T08:21:34Z</time>
      </trkpt>
      <trkpt lat="44.80972" lon="4.65597">
        <ele>425.04</ele>
        <time>2019-05-12T08:21:48Z</time>
      </trkpt>
      <trkpt lat="44.80965" lon="4.65593">
        <ele>427.92</ele>
        <time>2019-05-12T08:21:59Z</time>
      </trkpt>
      <trkpt lat="44.80957" lon="4.65588">
        <ele>429.37</ele>
        <time>2019-05-12T08:22:12Z</time>
      </trkpt>
      <trkpt lat="44.80948" lon="4.65583">
        <ele>433.69</ele>
        <time>2019-05-12T08:22:25Z</time>
      </trkpt>
      <trkpt lat="44.80941" lon="4.65577">
        <ele>433.21</ele>
        <time>2019-05-12T08:22:36Z</time>
      </trkpt>
      <trkpt lat="44.80935" lon="4.65576">
        <ele>432.73</ele>
        <time>2019-05-12T08:22:44Z</time>
      </trkpt>
      <trkpt lat="44.80923" lon="4.6557">
        <ele>432.73</ele>
        <time>2019-05-12T08:22:58Z</time>
      </trkpt>
      <trkpt lat="44.80913" lon="4.65568">
        <ele>432.73</ele>
        <time>2019-05-12T08:23:09Z</time>
      </trkpt>
      <trkpt lat="44.80904" lon="4.65561">
        <ele>433.21</ele>
        <time>2019-05-12T08:23:21Z</time>
      </trkpt>
      <trkpt lat="44.80903" lon="4.6556">
        <ele>433.21</ele>
        <time>2019-05-12T08:23:23Z</time>
      </trkpt>
      <trkpt lat="44.80895" lon="4.65552">
        <ele>434.17</ele>
        <time>2019-05-12T08:23:32Z</time>
      </trkpt>
      <trkpt lat="44.80888" lon="4.65542">
        <ele>434.65</ele>
        <time>2019-05-12T08:23:45Z</time>
      </trkpt>
      <trkpt lat="44.80886" lon="4.6554">
        <ele>434.17</ele>
        <time>2019-05-12T08:23:49Z</time>
      </trkpt>
      <trkpt lat="44.8087" lon="4.65528">
        <ele>435.61</ele>
        <time>2019-05-12T08:24:01Z</time>
      </trkpt>
      <trkpt lat="44.80857" lon="4.65521">
        <ele>438.02</ele>
        <time>2019-05-12T08:24:14Z</time>
      </trkpt>
      <trkpt lat="44.80847" lon="4.6552">
        <ele>438.98</ele>
        <time>2019-05-12T08:24:27Z</time>
      </trkpt>
      <trkpt lat="44.80839" lon="4.65515">
        <ele>437.06</ele>
        <time>2019-05-12T08:24:39Z</time>
      </trkpt>
      <trkpt lat="44.80835" lon="4.65515">
        <ele>436.58</ele>
        <time>2019-05-12T08:24:46Z</time>
      </trkpt>
      <trkpt lat="44.80827" lon="4.65511">
        <ele>434.65</ele>
        <time>2019-05-12T08:24:57Z</time>
      </trkpt>
      <trkpt lat="44.80816" lon="4.65494">
        <ele>438.02</ele>
        <time>2019-05-12T08:25:08Z</time>
      </trkpt>
      <trkpt lat="44.80807" lon="4.65486">
        <ele>440.42</ele>
        <time>2019-05-12T08:25:19Z</time>
      </trkpt>
      <trkpt lat="44.80802" lon="4.65477">
        <ele>440.42</ele>
        <time>2019-05-12T08:25:25Z</time>
      </trkpt>
      <trkpt lat="44.80799" lon="4.65468">
        <ele>439.46</ele>
        <time>2019-05-12T08:25:30Z</time>
      </trkpt>
      <trkpt lat="44.80792" lon="4.65452">
        <ele>437.06</ele>
        <time>2019-05-12T08:25:41Z</time>
      </trkpt>
      <trkpt lat="44.80788" lon="4.65437">
        <ele>434.65</ele>
        <time>2019-05-12T08:25:50Z</time>
      </trkpt>
      <trkpt lat="44.80784" lon="4.65422">
        <ele>433.21</ele>
        <time>2019-05-12T08:26:00Z</time>
      </trkpt>
      <trkpt lat="44.8078" lon="4.65391">
        <ele>435.13</ele>
        <time>2019-05-12T08:26:13Z</time>
      </trkpt>
      <trkpt lat="44.8078" lon="4.65363">
        <ele>437.06</ele>
        <time>2019-05-12T08:26:24Z</time>
      </trkpt>
      <trkpt lat="44.80777" lon="4.65341">
        <ele>436.1</ele>
        <time>2019-05-12T08:26:35Z</time>
      </trkpt>
      <trkpt lat="44.80767" lon="4.65324">
        <ele>437.54</ele>
        <time>2019-05-12T08:26:46Z</time>
      </trkpt>
      <trkpt lat="44.80761" lon="4.65309">
        <ele>438.98</ele>
        <time>2019-05-12T08:26:52Z</time>
      </trkpt>
      <trkpt lat="44.8076" lon="4.65305">
        <ele>439.46</ele>
        <time>2019-05-12T08:26:54Z</time>
      </trkpt>
      <trkpt lat="44.8075" lon="4.653">
        <ele>441.38</ele>
        <time>2019-05-12T08:27:01Z</time>
      </trkpt>
      <trkpt lat="44.80745" lon="4.65276">
        <ele>441.86</ele>
        <time>2019-05-12T08:27:12Z</time>
      </trkpt>
      <trkpt lat="44.80745" lon="4.65273">
        <ele>441.86</ele>
        <time>2019-05-12T08:27:14Z</time>
      </trkpt>
      <trkpt lat="44.80744" lon="4.65261">
        <ele>440.9</ele>
        <time>2019-05-12T08:27:24Z</time>
      </trkpt>
      <trkpt lat="44.80747" lon="4.65245">
        <ele>438.98</ele>
        <time>2019-05-12T08:27:33Z</time>
      </trkpt>
      <trkpt lat="44.80746" lon="4.65233">
        <ele>439.46</ele>
        <time>2019-05-12T08:27:39Z</time>
      </trkpt>
      <trkpt lat="44.8075" lon="4.65205">
        <ele>441.38</ele>
        <time>2019-05-12T08:27:52Z</time>
      </trkpt>
      <trkpt lat="44.80756" lon="4.65191">
        <ele>443.31</ele>
        <time>2019-05-12T08:28:01Z</time>
      </trkpt>
      <trkpt lat="44.80756" lon="4.65175">
        <ele>446.19</ele>
        <time>2019-05-12T08:28:11Z</time>
      </trkpt>
      <trkpt lat="44.80756" lon="4.65151">
        <ele>448.59</ele>
        <time>2019-05-12T08:28:20Z</time>
      </trkpt>
      <trkpt lat="44.80755" lon="4.65139">
        <ele>448.59</ele>
        <time>2019-05-12T08:28:27Z</time>
      </trkpt>
      <trkpt lat="44.8075" lon="4.65112">
        <ele>448.59</ele>
        <time>2019-05-12T08:28:40Z</time>
      </trkpt>
      <trkpt lat="44.80747" lon="4.65105">
        <ele>448.59</ele>
        <time>2019-05-12T08:28:45Z</time>
      </trkpt>
      <trkpt lat="44.80739" lon="4.65095">
        <ele>448.59</ele>
        <time>2019-05-12T08:28:51Z</time>
      </trkpt>
      <trkpt lat="44.80737" lon="4.65092">
        <ele>448.11</ele>
        <time>2019-05-12T08:28:53Z</time>
      </trkpt>
      <trkpt lat="44.80721" lon="4.65066">
        <ele>451</ele>
        <time>2019-05-12T08:29:05Z</time>
      </trkpt>
      <trkpt lat="44.80719" lon="4.65062">
        <ele>451</ele>
        <time>2019-05-12T08:29:07Z</time>
      </trkpt>
      <trkpt lat="44.80715" lon="4.65049">
        <ele>451.48</ele>
        <time>2019-05-12T08:29:14Z</time>
      </trkpt>
      <trkpt lat="44.80713" lon="4.65043">
        <ele>451</ele>
        <time>2019-05-12T08:29:17Z</time>
      </trkpt>
      <trkpt lat="44.8071" lon="4.65039">
        <ele>451.48</ele>
        <time>2019-05-12T08:29:20Z</time>
      </trkpt>
      <trkpt lat="44.80705" lon="4.6503">
        <ele>449.55</ele>
        <time>2019-05-12T08:29:31Z</time>
      </trkpt>
      <trkpt lat="44.80695" lon="4.65015">
        <ele>452.92</ele>
        <time>2019-05-12T08:29:41Z</time>
      </trkpt>
      <trkpt lat="44.80686" lon="4.65006">
        <ele>451.48</ele>
        <time>2019-05-12T08:29:52Z</time>
      </trkpt>
      <trkpt lat="44.80686" lon="4.65005">
        <ele>451</ele>
        <time>2019-05-12T08:29:53Z</time>
      </trkpt>
      <trkpt lat="44.80678" lon="4.64986">
        <ele>446.19</ele>
        <time>2019-05-12T08:30:04Z</time>
      </trkpt>
      <trkpt lat="44.80678" lon="4.64967">
        <ele>442.82</ele>
        <time>2019-05-12T08:30:14Z</time>
      </trkpt>
      <trkpt lat="44.80679" lon="4.6496">
        <ele>441.86</ele>
        <time>2019-05-12T08:30:17Z</time>
      </trkpt>
      <trkpt lat="44.80681" lon="4.64952">
        <ele>440.9</ele>
        <time>2019-05-12T08:30:22Z</time>
      </trkpt>
      <trkpt lat="44.80684" lon="4.64931">
        <ele>438.98</ele>
        <time>2019-05-12T08:30:33Z</time>
      </trkpt>
      <trkpt lat="44.80689" lon="4.64917">
        <ele>439.94</ele>
        <time>2019-05-12T08:30:38Z</time>
      </trkpt>
      <trkpt lat="44.80692" lon="4.64901">
        <ele>440.9</ele>
        <time>2019-05-12T08:30:46Z</time>
      </trkpt>
      <trkpt lat="44.80706" lon="4.64885">
        <ele>438.5</ele>
        <time>2019-05-12T08:30:57Z</time>
      </trkpt>
      <trkpt lat="44.80707" lon="4.64881">
        <ele>437.06</ele>
        <time>2019-05-12T08:30:59Z</time>
      </trkpt>
      <trkpt lat="44.80706" lon="4.64864">
        <ele>435.61</ele>
        <time>2019-05-12T08:31:06Z</time>
      </trkpt>
      <trkpt lat="44.80705" lon="4.64842">
        <ele>428.4</ele>
        <time>2019-05-12T08:31:19Z</time>
      </trkpt>
      <trkpt lat="44.80703" lon="4.64826">
        <ele>422.16</ele>
        <time>2019-05-12T08:31:32Z</time>
      </trkpt>
      <trkpt lat="44.807" lon="4.64813">
        <ele>418.31</ele>
        <time>2019-05-12T08:31:39Z</time>
      </trkpt>
      <trkpt lat="44.80696" lon="4.64805">
        <ele>415.91</ele>
        <time>2019-05-12T08:31:43Z</time>
      </trkpt>
      <trkpt lat="44.80687" lon="4.64774">
        <ele>412.54</ele>
        <time>2019-05-12T08:31:59Z</time>
      </trkpt>
      <trkpt lat="44.80679" lon="4.64757">
        <ele>409.18</ele>
        <time>2019-05-12T08:32:10Z</time>
      </trkpt>
      <trkpt lat="44.80675" lon="4.64742">
        <ele>406.77</ele>
        <time>2019-05-12T08:32:23Z</time>
      </trkpt>
      <trkpt lat="44.80674" lon="4.64726">
        <ele>404.37</ele>
        <time>2019-05-12T08:32:32Z</time>
      </trkpt>
      <trkpt lat="44.80673" lon="4.64712">
        <ele>402.45</ele>
        <time>2019-05-12T08:32:38Z</time>
      </trkpt>
      <trkpt lat="44.80674" lon="4.64683">
        <ele>397.16</ele>
        <time>2019-05-12T08:32:53Z</time>
      </trkpt>
      <trkpt lat="44.80672" lon="4.64673">
        <ele>398.6</ele>
        <time>2019-05-12T08:32:58Z</time>
      </trkpt>
      <trkpt lat="44.80667" lon="4.64657">
        <ele>403.89</ele>
        <time>2019-05-12T08:33:03Z</time>
      </trkpt>
      <trkpt lat="44.80656" lon="4.64644">
        <ele>402.93</ele>
        <time>2019-05-12T08:33:15Z</time>
      </trkpt>
      <trkpt lat="44.80653" lon="4.64642">
        <ele>403.41</ele>
        <time>2019-05-12T08:33:18Z</time>
      </trkpt>
      <trkpt lat="44.8064" lon="4.64629">
        <ele>402.45</ele>
        <time>2019-05-12T08:33:31Z</time>
      </trkpt>
      <trkpt lat="44.80622" lon="4.6461">
        <ele>401.97</ele>
        <time>2019-05-12T08:33:44Z</time>
      </trkpt>
      <trkpt lat="44.8061" lon="4.64576">
        <ele>401.49</ele>
        <time>2019-05-12T08:33:59Z</time>
      </trkpt>
      <trkpt lat="44.80603" lon="4.6455">
        <ele>404.37</ele>
        <time>2019-05-12T08:34:13Z</time>
      </trkpt>
      <trkpt lat="44.80599" lon="4.64531">
        <ele>400.53</ele>
        <time>2019-05-12T08:34:26Z</time>
      </trkpt>
      <trkpt lat="44.80593" lon="4.64515">
        <ele>396.2</ele>
        <time>2019-05-12T08:34:37Z</time>
      </trkpt>
      <trkpt lat="44.8059" lon="4.64506">
        <ele>394.28</ele>
        <time>2019-05-12T08:34:42Z</time>
      </trkpt>
      <trkpt lat="44.80592" lon="4.64476">
        <ele>393.32</ele>
        <time>2019-05-12T08:34:58Z</time>
      </trkpt>
      <trkpt lat="44.80582" lon="4.64455">
        <ele>392.84</ele>
        <time>2019-05-12T08:35:11Z</time>
      </trkpt>
      <trkpt lat="44.80577" lon="4.64428">
        <ele>391.39</ele>
        <time>2019-05-12T08:35:24Z</time>
      </trkpt>
      <trkpt lat="44.80576" lon="4.64415">
        <ele>387.55</ele>
        <time>2019-05-12T08:35:38Z</time>
      </trkpt>
      <trkpt lat="44.80574" lon="4.64408">
        <ele>383.7</ele>
        <time>2019-05-12T08:35:59Z</time>
      </trkpt>
      <trkpt lat="44.80573" lon="4.64408">
        <ele>378.42</ele>
        <time>2019-05-12T08:36:24Z</time>
      </trkpt>
      <trkpt lat="44.80567" lon="4.64415">
        <ele>381.78</ele>
        <time>2019-05-12T08:36:33Z</time>
      </trkpt>
      <trkpt lat="44.80558" lon="4.64432">
        <ele>395.72</ele>
        <time>2019-05-12T08:36:47Z</time>
      </trkpt>
      <trkpt lat="44.80563" lon="4.64438">
        <ele>398.6</ele>
        <time>2019-05-12T08:37:05Z</time>
      </trkpt>
      <trkpt lat="44.80564" lon="4.64441">
        <ele>397.16</ele>
        <time>2019-05-12T08:37:20Z</time>
      </trkpt>
      <trkpt lat="44.80559" lon="4.64452">
        <ele>401.01</ele>
        <time>2019-05-12T08:37:38Z</time>
      </trkpt>
      <trkpt lat="44.80561" lon="4.64447">
        <ele>401.01</ele>
        <time>2019-05-12T08:37:51Z</time>
      </trkpt>
      <trkpt lat="44.8056" lon="4.64451">
        <ele>399.57</ele>
        <time>2019-05-12T08:38:02Z</time>
      </trkpt>
      <trkpt lat="44.80559" lon="4.64451">
        <ele>401.01</ele>
        <time>2019-05-12T08:38:34Z</time>
      </trkpt>
      <trkpt lat="44.80563" lon="4.64446">
        <ele>398.6</ele>
        <time>2019-05-12T08:38:56Z</time>
      </trkpt>
      <trkpt lat="44.80558" lon="4.64447">
        <ele>396.68</ele>
        <time>2019-05-12T08:39:13Z</time>
      </trkpt>
      <trkpt lat="44.80564" lon="4.64445">
        <ele>394.76</ele>
        <time>2019-05-12T08:39:42Z</time>
      </trkpt>
      <trkpt lat="44.80563" lon="4.64444">
        <ele>397.16</ele>
        <time>2019-05-12T08:39:58Z</time>
      </trkpt>
      <trkpt lat="44.80564" lon="4.64447">
        <ele>398.12</ele>
        <time>2019-05-12T08:40:12Z</time>
      </trkpt>
      <trkpt lat="44.80561" lon="4.64439">
        <ele>399.08</ele>
        <time>2019-05-12T08:40:26Z</time>
      </trkpt>
      <trkpt lat="44.80565" lon="4.64446">
        <ele>397.64</ele>
        <time>2019-05-12T08:40:39Z</time>
      </trkpt>
      <trkpt lat="44.80563" lon="4.64436">
        <ele>397.64</ele>
        <time>2019-05-12T08:41:01Z</time>
      </trkpt>
      <trkpt lat="44.80562" lon="4.6443">
        <ele>396.2</ele>
        <time>2019-05-12T08:41:21Z</time>
      </trkpt>
      <trkpt lat="44.80557" lon="4.64421">
        <ele>403.41</ele>
        <time>2019-05-12T08:41:37Z</time>
      </trkpt>
      <trkpt lat="44.80574" lon="4.64429">
        <ele>401.97</ele>
        <time>2019-05-12T08:41:49Z</time>
      </trkpt>
      <trkpt lat="44.80589" lon="4.64434">
        <ele>398.6</ele>
        <time>2019-05-12T08:41:59Z</time>
      </trkpt>
      <trkpt lat="44.80595" lon="4.64439">
        <ele>396.68</ele>
        <time>2019-05-12T08:42:04Z</time>
      </trkpt>
      <trkpt lat="44.80598" lon="4.64441">
        <ele>395.72</ele>
        <time>2019-05-12T08:42:07Z</time>
      </trkpt>
      <trkpt lat="44.80608" lon="4.64454">
        <ele>393.8</ele>
        <time>2019-05-12T08:42:18Z</time>
      </trkpt>
      <trkpt lat="44.80613" lon="4.64462">
        <ele>392.36</ele>
        <time>2019-05-12T08:42:23Z</time>
      </trkpt>
      <trkpt lat="44.80616" lon="4.64469">
        <ele>391.39</ele>
        <time>2019-05-12T08:42:27Z</time>
      </trkpt>
      <trkpt lat="44.80616" lon="4.64479">
        <ele>387.07</ele>
        <time>2019-05-12T08:42:34Z</time>
      </trkpt>
      <trkpt lat="44.80614" lon="4.64492">
        <ele>379.86</ele>
        <time>2019-05-12T08:42:45Z</time>
      </trkpt>
      <trkpt lat="44.80615" lon="4.64507">
        <ele>374.57</ele>
        <time>2019-05-12T08:42:53Z</time>
      </trkpt>
      <trkpt lat="44.80631" lon="4.6453">
        <ele>381.3</ele>
        <time>2019-05-12T08:43:07Z</time>
      </trkpt>
      <trkpt lat="44.80635" lon="4.64535">
        <ele>381.3</ele>
        <time>2019-05-12T08:43:14Z</time>
      </trkpt>
      <trkpt lat="44.80656" lon="4.64541">
        <ele>378.9</ele>
        <time>2019-05-12T08:43:29Z</time>
      </trkpt>
      <trkpt lat="44.8067" lon="4.64542">
        <ele>373.13</ele>
        <time>2019-05-12T08:43:43Z</time>
      </trkpt>
      <trkpt lat="44.80665" lon="4.64533">
        <ele>369.28</ele>
        <time>2019-05-12T08:43:57Z</time>
      </trkpt>
      <trkpt lat="44.80665" lon="4.64534">
        <ele>372.17</ele>
        <time>2019-05-12T08:44:16Z</time>
      </trkpt>
      <trkpt lat="44.80671" lon="4.64534">
        <ele>377.45</ele>
        <time>2019-05-12T08:44:40Z</time>
      </trkpt>
      <trkpt lat="44.80665" lon="4.64526">
        <ele>376.01</ele>
        <time>2019-05-12T08:45:01Z</time>
      </trkpt>
      <trkpt lat="44.80663" lon="4.64521">
        <ele>374.09</ele>
        <time>2019-05-12T08:45:05Z</time>
      </trkpt>
      <trkpt lat="44.80661" lon="4.64517">
        <ele>373.13</ele>
        <time>2019-05-12T08:45:07Z</time>
      </trkpt>
      <trkpt lat="44.80657" lon="4.64492">
        <ele>371.21</ele>
        <time>2019-05-12T08:45:18Z</time>
      </trkpt>
      <trkpt lat="44.80658" lon="4.64468">
        <ele>362.55</ele>
        <time>2019-05-12T08:45:31Z</time>
      </trkpt>
      <trkpt lat="44.80671" lon="4.64467">
        <ele>356.31</ele>
        <time>2019-05-12T08:45:44Z</time>
      </trkpt>
      <trkpt lat="44.80676" lon="4.64479">
        <ele>348.13</ele>
        <time>2019-05-12T08:45:55Z</time>
      </trkpt>
      <trkpt lat="44.80689" lon="4.64483">
        <ele>347.17</ele>
        <time>2019-05-12T08:46:08Z</time>
      </trkpt>
      <trkpt lat="44.80704" lon="4.64486">
        <ele>341.89</ele>
        <time>2019-05-12T08:46:22Z</time>
      </trkpt>
      <trkpt lat="44.8071" lon="4.64483">
        <ele>341.89</ele>
        <time>2019-05-12T08:46:26Z</time>
      </trkpt>
      <trkpt lat="44.8073" lon="4.64482">
        <ele>340.92</ele>
        <time>2019-05-12T08:46:36Z</time>
      </trkpt>
      <trkpt lat="44.80741" lon="4.64483">
        <ele>339.48</ele>
        <time>2019-05-12T08:46:45Z</time>
      </trkpt>
      <trkpt lat="44.80757" lon="4.64484">
        <ele>335.64</ele>
        <time>2019-05-12T08:46:59Z</time>
      </trkpt>
      <trkpt lat="44.80768" lon="4.64481">
        <ele>332.27</ele>
        <time>2019-05-12T08:47:12Z</time>
      </trkpt>
      <trkpt lat="44.80774" lon="4.64471">
        <ele>327.95</ele>
        <time>2019-05-12T08:47:32Z</time>
      </trkpt>
      <trkpt lat="44.80771" lon="4.64476">
        <ele>330.83</ele>
        <time>2019-05-12T08:48:02Z</time>
      </trkpt>
      <trkpt lat="44.80777" lon="4.6448">
        <ele>333.71</ele>
        <time>2019-05-12T08:48:06Z</time>
      </trkpt>
      <trkpt lat="44.80811" lon="4.64491">
        <ele>335.64</ele>
        <time>2019-05-12T08:48:25Z</time>
      </trkpt>
      <trkpt lat="44.80816" lon="4.64496">
        <ele>335.64</ele>
        <time>2019-05-12T08:48:28Z</time>
      </trkpt>
      <trkpt lat="44.80835" lon="4.64496">
        <ele>333.23</ele>
        <time>2019-05-12T08:48:41Z</time>
      </trkpt>
      <trkpt lat="44.80837" lon="4.645">
        <ele>332.27</ele>
        <time>2019-05-12T08:48:55Z</time>
      </trkpt>
      <trkpt lat="44.80837" lon="4.64505">
        <ele>329.39</ele>
        <time>2019-05-12T08:49:11Z</time>
      </trkpt>
      <trkpt lat="44.80842" lon="4.64507">
        <ele>328.43</ele>
        <time>2019-05-12T08:49:25Z</time>
      </trkpt>
      <trkpt lat="44.80842" lon="4.64506">
        <ele>326.99</ele>
        <time>2019-05-12T08:49:31Z</time>
      </trkpt>
      <trkpt lat="44.80844" lon="4.64509">
        <ele>326.02</ele>
        <time>2019-05-12T08:49:34Z</time>
      </trkpt>
      <trkpt lat="44.80848" lon="4.64525">
        <ele>321.7</ele>
        <time>2019-05-12T08:49:45Z</time>
      </trkpt>
      <trkpt lat="44.80856" lon="4.64535">
        <ele>317.37</ele>
        <time>2019-05-12T08:49:55Z</time>
      </trkpt>
      <trkpt lat="44.80859" lon="4.64536">
        <ele>316.89</ele>
        <time>2019-05-12T08:49:57Z</time>
      </trkpt>
      <trkpt lat="44.80866" lon="4.64538">
        <ele>314.49</ele>
        <time>2019-05-12T08:50:03Z</time>
      </trkpt>
      <trkpt lat="44.80881" lon="4.64547">
        <ele>305.36</ele>
        <time>2019-05-12T08:50:18Z</time>
      </trkpt>
      <trkpt lat="44.809" lon="4.64548">
        <ele>307.28</ele>
        <time>2019-05-12T08:50:28Z</time>
      </trkpt>
      <trkpt lat="44.80909" lon="4.64555">
        <ele>306.32</ele>
        <time>2019-05-12T08:50:36Z</time>
      </trkpt>
      <trkpt lat="44.80923" lon="4.64563">
        <ele>310.16</ele>
        <time>2019-05-12T08:50:48Z</time>
      </trkpt>
      <trkpt lat="44.80928" lon="4.64575">
        <ele>304.88</ele>
        <time>2019-05-12T08:50:59Z</time>
      </trkpt>
      <trkpt lat="44.80943" lon="4.64579">
        <ele>304.39</ele>
        <time>2019-05-12T08:51:15Z</time>
      </trkpt>
      <trkpt lat="44.80956" lon="4.64586">
        <ele>299.59</ele>
        <time>2019-05-12T08:51:28Z</time>
      </trkpt>
      <trkpt lat="44.80975" lon="4.64587">
        <ele>298.63</ele>
        <time>2019-05-12T08:51:41Z</time>
      </trkpt>
      <trkpt lat="44.80985" lon="4.64593">
        <ele>293.82</ele>
        <time>2019-05-12T08:51:56Z</time>
      </trkpt>
      <trkpt lat="44.81005" lon="4.64585">
        <ele>289.01</ele>
        <time>2019-05-12T08:52:11Z</time>
      </trkpt>
      <trkpt lat="44.81023" lon="4.64577">
        <ele>285.65</ele>
        <time>2019-05-12T08:52:25Z</time>
      </trkpt>
      <trkpt lat="44.81035" lon="4.64574">
        <ele>280.84</ele>
        <time>2019-05-12T08:52:40Z</time>
      </trkpt>
      <trkpt lat="44.81046" lon="4.64575">
        <ele>276.52</ele>
        <time>2019-05-12T08:52:53Z</time>
      </trkpt>
      <trkpt lat="44.8106" lon="4.6459">
        <ele>267.38</ele>
        <time>2019-05-12T08:53:11Z</time>
      </trkpt>
      <trkpt lat="44.81087" lon="4.64602">
        <ele>267.38</ele>
        <time>2019-05-12T08:53:26Z</time>
      </trkpt>
      <trkpt lat="44.81111" lon="4.64601">
        <ele>270.75</ele>
        <time>2019-05-12T08:53:39Z</time>
      </trkpt>
      <trkpt lat="44.81129" lon="4.6459">
        <ele>273.15</ele>
        <time>2019-05-12T08:53:51Z</time>
      </trkpt>
      <trkpt lat="44.81144" lon="4.64559">
        <ele>282.28</ele>
        <time>2019-05-12T08:54:06Z</time>
      </trkpt>
      <trkpt lat="44.81151" lon="4.64545">
        <ele>283.25</ele>
        <time>2019-05-12T08:54:14Z</time>
      </trkpt>
      <trkpt lat="44.8114" lon="4.64553">
        <ele>279.88</ele>
        <time>2019-05-12T08:54:25Z</time>
      </trkpt>
      <trkpt lat="44.81137" lon="4.64558">
        <ele>277.96</ele>
        <time>2019-05-12T08:54:29Z</time>
      </trkpt>
      <trkpt lat="44.81129" lon="4.64566">
        <ele>275.07</ele>
        <time>2019-05-12T08:54:38Z</time>
      </trkpt>
      <trkpt lat="44.8112" lon="4.64568">
        <ele>274.59</ele>
        <time>2019-05-12T08:54:47Z</time>
      </trkpt>
      <trkpt lat="44.81106" lon="4.64557">
        <ele>276.52</ele>
        <time>2019-05-12T08:54:59Z</time>
      </trkpt>
      <trkpt lat="44.81095" lon="4.64543">
        <ele>276.52</ele>
        <time>2019-05-12T08:55:12Z</time>
      </trkpt>
      <trkpt lat="44.81085" lon="4.64532">
        <ele>276.52</ele>
        <time>2019-05-12T08:55:21Z</time>
      </trkpt>
      <trkpt lat="44.81079" lon="4.64529">
        <ele>276.52</ele>
        <time>2019-05-12T08:55:27Z</time>
      </trkpt>
      <trkpt lat="44.81077" lon="4.64527">
        <ele>276.04</ele>
        <time>2019-05-12T08:55:29Z</time>
      </trkpt>
      <trkpt lat="44.81065" lon="4.645">
        <ele>273.15</ele>
        <time>2019-05-12T08:55:46Z</time>
      </trkpt>
      <trkpt lat="44.81056" lon="4.64481">
        <ele>269.31</ele>
        <time>2019-05-12T08:56:02Z</time>
      </trkpt>
      <trkpt lat="44.81043" lon="4.64473">
        <ele>266.42</ele>
        <time>2019-05-12T08:56:16Z</time>
      </trkpt>
      <trkpt lat="44.8105" lon="4.6447">
        <ele>264.02</ele>
        <time>2019-05-12T08:56:29Z</time>
      </trkpt>
      <trkpt lat="44.81061" lon="4.64483">
        <ele>258.25</ele>
        <time>2019-05-12T08:56:45Z</time>
      </trkpt>
      <trkpt lat="44.81077" lon="4.64487">
        <ele>254.89</ele>
        <time>2019-05-12T08:56:56Z</time>
      </trkpt>
      <trkpt lat="44.81094" lon="4.64475">
        <ele>253.93</ele>
        <time>2019-05-12T08:57:10Z</time>
      </trkpt>
      <trkpt lat="44.8111" lon="4.64455">
        <ele>252</ele>
        <time>2019-05-12T08:57:27Z</time>
      </trkpt>
      <trkpt lat="44.81129" lon="4.64446">
        <ele>252.96</ele>
        <time>2019-05-12T08:57:42Z</time>
      </trkpt>
      <trkpt lat="44.81146" lon="4.64436">
        <ele>248.64</ele>
        <time>2019-05-12T08:57:57Z</time>
      </trkpt>
      <trkpt lat="44.81161" lon="4.64424">
        <ele>246.23</ele>
        <time>2019-05-12T08:58:13Z</time>
      </trkpt>
      <trkpt lat="44.8118" lon="4.64419">
        <ele>247.2</ele>
        <time>2019-05-12T08:58:30Z</time>
      </trkpt>
      <trkpt lat="44.81202" lon="4.64421">
        <ele>245.75</ele>
        <time>2019-05-12T08:58:48Z</time>
      </trkpt>
      <trkpt lat="44.81222" lon="4.64425">
        <ele>246.23</ele>
        <time>2019-05-12T08:59:04Z</time>
      </trkpt>
      <trkpt lat="44.8124" lon="4.64432">
        <ele>246.23</ele>
        <time>2019-05-12T08:59:17Z</time>
      </trkpt>
      <trkpt lat="44.81246" lon="4.64433">
        <ele>245.75</ele>
        <time>2019-05-12T08:59:23Z</time>
      </trkpt>
      <trkpt lat="44.81265" lon="4.64436">
        <ele>242.39</ele>
        <time>2019-05-12T08:59:39Z</time>
      </trkpt>
      <trkpt lat="44.81267" lon="4.64436">
        <ele>242.39</ele>
        <time>2019-05-12T08:59:40Z</time>
      </trkpt>
      <trkpt lat="44.81289" lon="4.64417">
        <ele>244.31</ele>
        <time>2019-05-12T08:59:59Z</time>
      </trkpt>
      <trkpt lat="44.81298" lon="4.64411">
        <ele>244.31</ele>
        <time>2019-05-12T09:00:07Z</time>
      </trkpt>
      <trkpt lat="44.8131" lon="4.64408">
        <ele>243.83</ele>
        <time>2019-05-12T09:00:16Z</time>
      </trkpt>
      <trkpt lat="44.81333" lon="4.64397">
        <ele>239.02</ele>
        <time>2019-05-12T09:00:35Z</time>
      </trkpt>
      <trkpt lat="44.81339" lon="4.6439">
        <ele>239.02</ele>
        <time>2019-05-12T09:00:40Z</time>
      </trkpt>
      <trkpt lat="44.81357" lon="4.6437">
        <ele>236.62</ele>
        <time>2019-05-12T09:00:59Z</time>
      </trkpt>
      <trkpt lat="44.81359" lon="4.64363">
        <ele>237.1</ele>
        <time>2019-05-12T09:01:02Z</time>
      </trkpt>
      <trkpt lat="44.81369" lon="4.64352">
        <ele>233.26</ele>
        <time>2019-05-12T09:01:17Z</time>
      </trkpt>
      <trkpt lat="44.81382" lon="4.64336">
        <ele>227.97</ele>
        <time>2019-05-12T09:01:31Z</time>
      </trkpt>
      <trkpt lat="44.81391" lon="4.64323">
        <ele>214.99</ele>
        <time>2019-05-12T09:01:47Z</time>
      </trkpt>
      <trkpt lat="44.81393" lon="4.64323">
        <ele>213.55</ele>
        <time>2019-05-12T09:01:49Z</time>
      </trkpt>
      <trkpt lat="44.81396" lon="4.64316">
        <ele>215.95</ele>
        <time>2019-05-12T09:01:52Z</time>
      </trkpt>
      <trkpt lat="44.81417" lon="4.64303">
        <ele>220.28</ele>
        <time>2019-05-12T09:02:07Z</time>
      </trkpt>
      <trkpt lat="44.81438" lon="4.64301">
        <ele>216.91</ele>
        <time>2019-05-12T09:02:24Z</time>
      </trkpt>
      <trkpt lat="44.81455" lon="4.643">
        <ele>216.43</ele>
        <time>2019-05-12T09:02:38Z</time>
      </trkpt>
      <trkpt lat="44.81471" lon="4.64297">
        <ele>212.59</ele>
        <time>2019-05-12T09:02:52Z</time>
      </trkpt>
      <trkpt lat="44.81476" lon="4.64296">
        <ele>208.74</ele>
        <time>2019-05-12T09:03:10Z</time>
      </trkpt>
      <trkpt lat="44.81485" lon="4.64299">
        <ele>208.26</ele>
        <time>2019-05-12T09:03:28Z</time>
      </trkpt>
      <trkpt lat="44.8149" lon="4.64303">
        <ele>206.82</ele>
        <time>2019-05-12T09:03:33Z</time>
      </trkpt>
      <trkpt lat="44.8151" lon="4.64305">
        <ele>206.82</ele>
        <time>2019-05-12T09:03:47Z</time>
      </trkpt>
      <trkpt lat="44.8153" lon="4.64315">
        <ele>199.13</ele>
        <time>2019-05-12T09:04:05Z</time>
      </trkpt>
      <trkpt lat="44.81542" lon="4.64318">
        <ele>188.08</ele>
        <time>2019-05-12T09:04:20Z</time>
      </trkpt>
      <trkpt lat="44.81543" lon="4.64317">
        <ele>188.08</ele>
        <time>2019-05-12T09:04:21Z</time>
      </trkpt>
      <trkpt lat="44.81552" lon="4.64314">
        <ele>190.48</ele>
        <time>2019-05-12T09:04:27Z</time>
      </trkpt>
      <trkpt lat="44.81569" lon="4.6431">
        <ele>192.88</ele>
        <time>2019-05-12T09:04:39Z</time>
      </trkpt>
      <trkpt lat="44.81574" lon="4.64313">
        <ele>192.4</ele>
        <time>2019-05-12T09:04:43Z</time>
      </trkpt>
      <trkpt lat="44.81576" lon="4.64315">
        <ele>192.4</ele>
        <time>2019-05-12T09:04:45Z</time>
      </trkpt>
      <trkpt lat="44.81584" lon="4.64317">
        <ele>191.92</ele>
        <time>2019-05-12T09:04:59Z</time>
      </trkpt>
      <trkpt lat="44.81573" lon="4.64305">
        <ele>191.92</ele>
        <time>2019-05-12T09:05:13Z</time>
      </trkpt>
      <trkpt lat="44.8156" lon="4.64289">
        <ele>189.04</ele>
        <time>2019-05-12T09:05:26Z</time>
      </trkpt>
      <trkpt lat="44.81547" lon="4.64259">
        <ele>185.19</ele>
        <time>2019-05-12T09:05:45Z</time>
      </trkpt>
      <trkpt lat="44.81538" lon="4.64238">
        <ele>182.31</ele>
        <time>2019-05-12T09:05:59Z</time>
      </trkpt>
      <trkpt lat="44.81523" lon="4.64224">
        <ele>180.87</ele>
        <time>2019-05-12T09:06:13Z</time>
      </trkpt>
      <trkpt lat="44.81505" lon="4.64212">
        <ele>179.9</ele>
        <time>2019-05-12T09:06:29Z</time>
      </trkpt>
      <trkpt lat="44.81491" lon="4.64204">
        <ele>180.38</ele>
        <time>2019-05-12T09:06:41Z</time>
      </trkpt>
      <trkpt lat="44.81474" lon="4.64198">
        <ele>179.9</ele>
        <time>2019-05-12T09:06:55Z</time>
      </trkpt>
      <trkpt lat="44.81455" lon="4.64189">
        <ele>180.38</ele>
        <time>2019-05-12T09:07:10Z</time>
      </trkpt>
      <trkpt lat="44.81454" lon="4.64189">
        <ele>180.38</ele>
        <time>2019-05-12T09:07:11Z</time>
      </trkpt>
      <trkpt lat="44.81433" lon="4.64189">
        <ele>177.5</ele>
        <time>2019-05-12T09:07:27Z</time>
      </trkpt>
      <trkpt lat="44.81417" lon="4.64185">
        <ele>175.58</ele>
        <time>2019-05-12T09:07:40Z</time>
      </trkpt>
      <trkpt lat="44.81409" lon="4.64174">
        <ele>173.17</ele>
        <time>2019-05-12T09:07:51Z</time>
      </trkpt>
      <trkpt lat="44.81398" lon="4.64164">
        <ele>173.17</ele>
        <time>2019-05-12T09:08:02Z</time>
      </trkpt>
      <trkpt lat="44.81395" lon="4.64162">
        <ele>173.17</ele>
        <time>2019-05-12T09:08:05Z</time>
      </trkpt>
      <trkpt lat="44.81374" lon="4.64136">
        <ele>173.66</ele>
        <time>2019-05-12T09:08:25Z</time>
      </trkpt>
      <trkpt lat="44.81371" lon="4.64131">
        <ele>173.66</ele>
        <time>2019-05-12T09:08:28Z</time>
      </trkpt>
      <trkpt lat="44.81367" lon="4.64123">
        <ele>174.62</ele>
        <time>2019-05-12T09:08:34Z</time>
      </trkpt>
      <trkpt lat="44.81354" lon="4.64096">
        <ele>173.17</ele>
        <time>2019-05-12T09:08:53Z</time>
      </trkpt>
      <trkpt lat="44.81345" lon="4.6407">
        <ele>173.17</ele>
        <time>2019-05-12T09:09:09Z</time>
      </trkpt>
      <trkpt lat="44.81337" lon="4.64048">
        <ele>173.66</ele>
        <time>2019-05-12T09:09:22Z</time>
      </trkpt>
      <trkpt lat="44.81328" lon="4.64028">
        <ele>171.25</ele>
        <time>2019-05-12T09:09:35Z</time>
      </trkpt>
      <trkpt lat="44.81316" lon="4.64012">
        <ele>171.25</ele>
        <time>2019-05-12T09:09:47Z</time>
      </trkpt>
      <trkpt lat="44.81307" lon="4.63998">
        <ele>169.33</ele>
        <time>2019-05-12T09:10:00Z</time>
      </trkpt>
      <trkpt lat="44.81302" lon="4.63993">
        <ele>170.29</ele>
        <time>2019-05-12T09:10:17Z</time>
      </trkpt>
      <trkpt lat="44.81299" lon="4.63989">
        <ele>171.25</ele>
        <time>2019-05-12T09:10:30Z</time>
      </trkpt>
      <trkpt lat="44.81283" lon="4.6397">
        <ele>170.77</ele>
        <time>2019-05-12T09:10:50Z</time>
      </trkpt>
      <trkpt lat="44.81266" lon="4.63953">
        <ele>172.69</ele>
        <time>2019-05-12T09:11:08Z</time>
      </trkpt>
      <trkpt lat="44.81253" lon="4.6395">
        <ele>169.81</ele>
        <time>2019-05-12T09:11:20Z</time>
      </trkpt>
      <trkpt lat="44.81239" lon="4.6394">
        <ele>172.21</ele>
        <time>2019-05-12T09:11:34Z</time>
      </trkpt>
      <trkpt lat="44.81242" lon="4.63928">
        <ele>177.98</ele>
        <time>2019-05-12T09:11:48Z</time>
      </trkpt>
      <trkpt lat="44.81256" lon="4.63939">
        <ele>180.87</ele>
        <time>2019-05-12T09:12:02Z</time>
      </trkpt>
      <trkpt lat="44.81268" lon="4.63949">
        <ele>179.9</ele>
        <time>2019-05-12T09:12:16Z</time>
      </trkpt>
      <trkpt lat="44.81269" lon="4.6395">
        <ele>179.9</ele>
        <time>2019-05-12T09:12:17Z</time>
      </trkpt>
      <trkpt lat="44.81287" lon="4.63947">
        <ele>179.9</ele>
        <time>2019-05-12T09:12:32Z</time>
      </trkpt>
      <trkpt lat="44.81293" lon="4.63946">
        <ele>178.94</ele>
        <time>2019-05-12T09:12:38Z</time>
      </trkpt>
      <trkpt lat="44.81304" lon="4.63951">
        <ele>181.83</ele>
        <time>2019-05-12T09:12:46Z</time>
      </trkpt>
      <trkpt lat="44.81323" lon="4.63962">
        <ele>183.27</ele>
        <time>2019-05-12T09:13:02Z</time>
      </trkpt>
      <trkpt lat="44.81336" lon="4.63957">
        <ele>183.75</ele>
        <time>2019-05-12T09:13:16Z</time>
      </trkpt>
      <trkpt lat="44.81344" lon="4.6395">
        <ele>187.59</ele>
        <time>2019-05-12T09:13:30Z</time>
      </trkpt>
      <trkpt lat="44.81353" lon="4.6394">
        <ele>190</ele>
        <time>2019-05-12T09:13:47Z</time>
      </trkpt>
      <trkpt lat="44.81354" lon="4.63933">
        <ele>190.96</ele>
        <time>2019-05-12T09:13:52Z</time>
      </trkpt>
      <trkpt lat="44.81359" lon="4.63929">
        <ele>189.04</ele>
        <time>2019-05-12T09:14:05Z</time>
      </trkpt>
      <trkpt lat="44.81365" lon="4.63907">
        <ele>187.11</ele>
        <time>2019-05-12T09:14:23Z</time>
      </trkpt>
      <trkpt lat="44.81373" lon="4.63891">
        <ele>192.88</ele>
        <time>2019-05-12T09:14:37Z</time>
      </trkpt>
      <trkpt lat="44.81377" lon="4.63872">
        <ele>194.8</ele>
        <time>2019-05-12T09:14:50Z</time>
      </trkpt>
      <trkpt lat="44.81379" lon="4.63855">
        <ele>196.73</ele>
        <time>2019-05-12T09:15:02Z</time>
      </trkpt>
      <trkpt lat="44.81381" lon="4.63851">
        <ele>196.73</ele>
        <time>2019-05-12T09:15:04Z</time>
      </trkpt>
      <trkpt lat="44.81383" lon="4.63828">
        <ele>199.61</ele>
        <time>2019-05-12T09:15:20Z</time>
      </trkpt>
      <trkpt lat="44.81384" lon="4.63811">
        <ele>202.01</ele>
        <time>2019-05-12T09:15:32Z</time>
      </trkpt>
      <trkpt lat="44.81386" lon="4.63792">
        <ele>204.9</ele>
        <time>2019-05-12T09:15:48Z</time>
      </trkpt>
      <trkpt lat="44.81389" lon="4.63779">
        <ele>203.46</ele>
        <time>2019-05-12T09:16:00Z</time>
      </trkpt>
      <trkpt lat="44.81392" lon="4.63761">
        <ele>202.98</ele>
        <time>2019-05-12T09:16:14Z</time>
      </trkpt>
      <trkpt lat="44.81396" lon="4.63744">
        <ele>203.94</ele>
        <time>2019-05-12T09:16:27Z</time>
      </trkpt>
      <trkpt lat="44.81401" lon="4.63723">
        <ele>205.86</ele>
        <time>2019-05-12T09:16:41Z</time>
      </trkpt>
      <trkpt lat="44.81404" lon="4.6371">
        <ele>206.82</ele>
        <time>2019-05-12T09:16:52Z</time>
      </trkpt>
      <trkpt lat="44.81409" lon="4.63691">
        <ele>206.82</ele>
        <time>2019-05-12T09:17:06Z</time>
      </trkpt>
      <trkpt lat="44.81409" lon="4.63681">
        <ele>206.82</ele>
        <time>2019-05-12T09:17:15Z</time>
      </trkpt>
      <trkpt lat="44.81404" lon="4.63664">
        <ele>208.74</ele>
        <time>2019-05-12T09:17:28Z</time>
      </trkpt>
      <trkpt lat="44.81392" lon="4.63649">
        <ele>207.3</ele>
        <time>2019-05-12T09:17:42Z</time>
      </trkpt>
      <trkpt lat="44.81387" lon="4.63641">
        <ele>202.98</ele>
        <time>2019-05-12T09:17:51Z</time>
      </trkpt>
      <trkpt lat="44.81385" lon="4.63628">
        <ele>198.65</ele>
        <time>2019-05-12T09:18:02Z</time>
      </trkpt>
      <trkpt lat="44.81386" lon="4.63617">
        <ele>197.21</ele>
        <time>2019-05-12T09:18:11Z</time>
      </trkpt>
      <trkpt lat="44.81386" lon="4.6359">
        <ele>202.98</ele>
        <time>2019-05-12T09:18:25Z</time>
      </trkpt>
      <trkpt lat="44.81388" lon="4.63581">
        <ele>202.98</ele>
        <time>2019-05-12T09:18:38Z</time>
      </trkpt>
      <trkpt lat="44.81399" lon="4.63573">
        <ele>208.74</ele>
        <time>2019-05-12T09:18:52Z</time>
      </trkpt>
      <trkpt lat="44.81411" lon="4.63555">
        <ele>214.51</ele>
        <time>2019-05-12T09:19:05Z</time>
      </trkpt>
      <trkpt lat="44.81416" lon="4.63534">
        <ele>216.43</ele>
        <time>2019-05-12T09:19:20Z</time>
      </trkpt>
      <trkpt lat="44.81415" lon="4.63518">
        <ele>215.47</ele>
        <time>2019-05-12T09:19:33Z</time>
      </trkpt>
      <trkpt lat="44.81417" lon="4.63502">
        <ele>214.51</ele>
        <time>2019-05-12T09:19:45Z</time>
      </trkpt>
      <trkpt lat="44.81419" lon="4.63489">
        <ele>217.4</ele>
        <time>2019-05-12T09:19:55Z</time>
      </trkpt>
      <trkpt lat="44.81421" lon="4.63478">
        <ele>219.32</ele>
        <time>2019-05-12T09:20:05Z</time>
      </trkpt>
      <trkpt lat="44.81422" lon="4.63463">
        <ele>221.24</ele>
        <time>2019-05-12T09:20:19Z</time>
      </trkpt>
      <trkpt lat="44.81422" lon="4.63453">
        <ele>220.76</ele>
        <time>2019-05-12T09:20:31Z</time>
      </trkpt>
      <trkpt lat="44.81416" lon="4.63436">
        <ele>217.4</ele>
        <time>2019-05-12T09:20:45Z</time>
      </trkpt>
      <trkpt lat="44.81406" lon="4.63415">
        <ele>217.4</ele>
        <time>2019-05-12T09:20:58Z</time>
      </trkpt>
      <trkpt lat="44.81406" lon="4.63411">
        <ele>218.84</ele>
        <time>2019-05-12T09:21:00Z</time>
      </trkpt>
      <trkpt lat="44.81404" lon="4.63405">
        <ele>220.28</ele>
        <time>2019-05-12T09:21:04Z</time>
      </trkpt>
      <trkpt lat="44.81401" lon="4.63383">
        <ele>223.64</ele>
        <time>2019-05-12T09:21:17Z</time>
      </trkpt>
      <trkpt lat="44.81395" lon="4.63373">
        <ele>223.64</ele>
        <time>2019-05-12T09:21:29Z</time>
      </trkpt>
      <trkpt lat="44.81386" lon="4.63354">
        <ele>225.09</ele>
        <time>2019-05-12T09:21:44Z</time>
      </trkpt>
      <trkpt lat="44.81383" lon="4.63339">
        <ele>223.16</ele>
        <time>2019-05-12T09:21:59Z</time>
      </trkpt>
      <trkpt lat="44.81379" lon="4.6332">
        <ele>221.72</ele>
        <time>2019-05-12T09:22:10Z</time>
      </trkpt>
      <trkpt lat="44.81382" lon="4.63304">
        <ele>224.61</ele>
        <time>2019-05-12T09:22:22Z</time>
      </trkpt>
      <trkpt lat="44.8138" lon="4.6329">
        <ele>226.53</ele>
        <time>2019-05-12T09:22:33Z</time>
      </trkpt>
      <trkpt lat="44.81377" lon="4.6327">
        <ele>231.81</ele>
        <time>2019-05-12T09:22:47Z</time>
      </trkpt>
      <trkpt lat="44.81378" lon="4.6324">
        <ele>242.87</ele>
        <time>2019-05-12T09:23:01Z</time>
      </trkpt>
      <trkpt lat="44.81375" lon="4.63224">
        <ele>245.75</ele>
        <time>2019-05-12T09:23:14Z</time>
      </trkpt>
      <trkpt lat="44.81359" lon="4.63208">
        <ele>252.96</ele>
        <time>2019-05-12T09:23:31Z</time>
      </trkpt>
      <trkpt lat="44.81364" lon="4.63198">
        <ele>254.89</ele>
        <time>2019-05-12T09:23:44Z</time>
      </trkpt>
      <trkpt lat="44.81371" lon="4.63187">
        <ele>256.33</ele>
        <time>2019-05-12T09:23:54Z</time>
      </trkpt>
      <trkpt lat="44.81379" lon="4.63172">
        <ele>260.65</ele>
        <time>2019-05-12T09:24:07Z</time>
      </trkpt>
      <trkpt lat="44.81381" lon="4.63158">
        <ele>263.06</ele>
        <time>2019-05-12T09:24:20Z</time>
      </trkpt>
      <trkpt lat="44.81384" lon="4.63142">
        <ele>263.06</ele>
        <time>2019-05-12T09:24:34Z</time>
      </trkpt>
      <trkpt lat="44.81381" lon="4.63124">
        <ele>267.86</ele>
        <time>2019-05-12T09:24:51Z</time>
      </trkpt>
      <trkpt lat="44.81378" lon="4.63104">
        <ele>269.31</ele>
        <time>2019-05-12T09:25:06Z</time>
      </trkpt>
      <trkpt lat="44.81385" lon="4.63095">
        <ele>265.94</ele>
        <time>2019-05-12T09:25:21Z</time>
      </trkpt>
      <trkpt lat="44.81401" lon="4.63083">
        <ele>269.79</ele>
        <time>2019-05-12T09:25:36Z</time>
      </trkpt>
      <trkpt lat="44.81408" lon="4.63069">
        <ele>270.75</ele>
        <time>2019-05-12T09:25:51Z</time>
      </trkpt>
      <trkpt lat="44.81411" lon="4.63048">
        <ele>272.67</ele>
        <time>2019-05-12T09:26:05Z</time>
      </trkpt>
      <trkpt lat="44.81406" lon="4.63041">
        <ele>273.63</ele>
        <time>2019-05-12T09:26:20Z</time>
      </trkpt>
      <trkpt lat="44.81407" lon="4.63024">
        <ele>273.15</ele>
        <time>2019-05-12T09:26:35Z</time>
      </trkpt>
      <trkpt lat="44.81404" lon="4.63003">
        <ele>274.59</ele>
        <time>2019-05-12T09:26:50Z</time>
      </trkpt>
      <trkpt lat="44.81401" lon="4.62984">
        <ele>275.07</ele>
        <time>2019-05-12T09:27:04Z</time>
      </trkpt>
      <trkpt lat="44.81399" lon="4.62972">
        <ele>272.19</ele>
        <time>2019-05-12T09:27:18Z</time>
      </trkpt>
      <trkpt lat="44.81399" lon="4.62958">
        <ele>273.15</ele>
        <time>2019-05-12T09:27:29Z</time>
      </trkpt>
      <trkpt lat="44.81395" lon="4.62934">
        <ele>280.36</ele>
        <time>2019-05-12T09:27:42Z</time>
      </trkpt>
      <trkpt lat="44.81389" lon="4.62913">
        <ele>289.01</ele>
        <time>2019-05-12T09:27:57Z</time>
      </trkpt>
      <trkpt lat="44.81385" lon="4.62893">
        <ele>292.38</ele>
        <time>2019-05-12T09:28:11Z</time>
      </trkpt>
      <trkpt lat="44.81383" lon="4.62877">
        <ele>289.97</ele>
        <time>2019-05-12T09:28:25Z</time>
      </trkpt>
      <trkpt lat="44.81389" lon="4.62856">
        <ele>290.94</ele>
        <time>2019-05-12T09:28:42Z</time>
      </trkpt>
      <trkpt lat="44.81387" lon="4.62845">
        <ele>292.38</ele>
        <time>2019-05-12T09:28:56Z</time>
      </trkpt>
      <trkpt lat="44.81392" lon="4.62834">
        <ele>297.67</ele>
        <time>2019-05-12T09:29:08Z</time>
      </trkpt>
      <trkpt lat="44.81395" lon="4.6283">
        <ele>303.91</ele>
        <time>2019-05-12T09:29:35Z</time>
      </trkpt>
      <trkpt lat="44.81405" lon="4.6284">
        <ele>309.2</ele>
        <time>2019-05-12T09:29:48Z</time>
      </trkpt>
      <trkpt lat="44.81409" lon="4.62835">
        <ele>309.68</ele>
        <time>2019-05-12T09:30:01Z</time>
      </trkpt>
      <trkpt lat="44.81418" lon="4.62826">
        <ele>311.6</ele>
        <time>2019-05-12T09:30:14Z</time>
      </trkpt>
      <trkpt lat="44.81426" lon="4.62823">
        <ele>314.97</ele>
        <time>2019-05-12T09:30:30Z</time>
      </trkpt>
      <trkpt lat="44.81434" lon="4.62814">
        <ele>318.81</ele>
        <time>2019-05-12T09:30:48Z</time>
      </trkpt>
      <trkpt lat="44.81441" lon="4.62803">
        <ele>323.62</ele>
        <time>2019-05-12T09:31:01Z</time>
      </trkpt>
      <trkpt lat="44.81449" lon="4.62795">
        <ele>328.43</ele>
        <time>2019-05-12T09:31:15Z</time>
      </trkpt>
      <trkpt lat="44.81458" lon="4.62791">
        <ele>332.75</ele>
        <time>2019-05-12T09:31:32Z</time>
      </trkpt>
      <trkpt lat="44.81469" lon="4.62787">
        <ele>334.68</ele>
        <time>2019-05-12T09:31:49Z</time>
      </trkpt>
      <trkpt lat="44.81478" lon="4.62775">
        <ele>337.56</ele>
        <time>2019-05-12T09:32:03Z</time>
      </trkpt>
      <trkpt lat="44.81486" lon="4.62765">
        <ele>338.52</ele>
        <time>2019-05-12T09:32:18Z</time>
      </trkpt>
      <trkpt lat="44.81495" lon="4.62761">
        <ele>340.44</ele>
        <time>2019-05-12T09:32:32Z</time>
      </trkpt>
      <trkpt lat="44.81506" lon="4.62761">
        <ele>339.48</ele>
        <time>2019-05-12T09:32:47Z</time>
      </trkpt>
      <trkpt lat="44.81521" lon="4.62761">
        <ele>339.96</ele>
        <time>2019-05-12T09:33:02Z</time>
      </trkpt>
      <trkpt lat="44.8153" lon="4.62747">
        <ele>338.52</ele>
        <time>2019-05-12T09:33:17Z</time>
      </trkpt>
      <trkpt lat="44.81544" lon="4.62733">
        <ele>340.44</ele>
        <time>2019-05-12T09:33:30Z</time>
      </trkpt>
      <trkpt lat="44.81557" lon="4.62721">
        <ele>346.21</ele>
        <time>2019-05-12T09:33:43Z</time>
      </trkpt>
      <trkpt lat="44.81568" lon="4.62705">
        <ele>349.58</ele>
        <time>2019-05-12T09:33:59Z</time>
      </trkpt>
      <trkpt lat="44.81581" lon="4.6269">
        <ele>351.98</ele>
        <time>2019-05-12T09:34:14Z</time>
      </trkpt>
      <trkpt lat="44.81588" lon="4.62676">
        <ele>351.02</ele>
        <time>2019-05-12T09:34:27Z</time>
      </trkpt>
      <trkpt lat="44.81609" lon="4.62656">
        <ele>351.98</ele>
        <time>2019-05-12T09:34:57Z</time>
      </trkpt>
      <trkpt lat="44.81614" lon="4.62644">
        <ele>351.98</ele>
        <time>2019-05-12T09:35:14Z</time>
      </trkpt>
      <trkpt lat="44.81622" lon="4.62637">
        <ele>350.54</ele>
        <time>2019-05-12T09:35:29Z</time>
      </trkpt>
      <trkpt lat="44.81631" lon="4.62627">
        <ele>352.94</ele>
        <time>2019-05-12T09:35:43Z</time>
      </trkpt>
      <trkpt lat="44.81644" lon="4.62623">
        <ele>358.23</ele>
        <time>2019-05-12T09:36:00Z</time>
      </trkpt>
      <trkpt lat="44.81663" lon="4.62621">
        <ele>359.19</ele>
        <time>2019-05-12T09:36:14Z</time>
      </trkpt>
      <trkpt lat="44.81676" lon="4.62621">
        <ele>358.71</ele>
        <time>2019-05-12T09:36:28Z</time>
      </trkpt>
      <trkpt lat="44.81693" lon="4.62611">
        <ele>363.04</ele>
        <time>2019-05-12T09:36:39Z</time>
      </trkpt>
      <trkpt lat="44.81702" lon="4.62603">
        <ele>364.96</ele>
        <time>2019-05-12T09:36:53Z</time>
      </trkpt>
      <trkpt lat="44.81711" lon="4.62588">
        <ele>369.76</ele>
        <time>2019-05-12T09:37:05Z</time>
      </trkpt>
      <trkpt lat="44.81718" lon="4.62588">
        <ele>372.65</ele>
        <time>2019-05-12T09:37:17Z</time>
      </trkpt>
      <trkpt lat="44.81719" lon="4.62588">
        <ele>374.09</ele>
        <time>2019-05-12T09:37:33Z</time>
      </trkpt>
      <trkpt lat="44.81719" lon="4.62587">
        <ele>374.09</ele>
        <time>2019-05-12T09:37:49Z</time>
      </trkpt>
      <trkpt lat="44.81714" lon="4.62582">
        <ele>376.97</ele>
        <time>2019-05-12T09:38:16Z</time>
      </trkpt>
      <trkpt lat="44.81715" lon="4.62582">
        <ele>380.34</ele>
        <time>2019-05-12T09:38:41Z</time>
      </trkpt>
      <trkpt lat="44.81708" lon="4.62582">
        <ele>383.7</ele>
        <time>2019-05-12T09:39:14Z</time>
      </trkpt>
      <trkpt lat="44.81711" lon="4.62586">
        <ele>387.07</ele>
        <time>2019-05-12T09:39:39Z</time>
      </trkpt>
      <trkpt lat="44.81713" lon="4.62586">
        <ele>384.18</ele>
        <time>2019-05-12T09:40:03Z</time>
      </trkpt>
      <trkpt lat="44.81713" lon="4.6259">
        <ele>378.9</ele>
        <time>2019-05-12T09:40:28Z</time>
      </trkpt>
      <trkpt lat="44.81716" lon="4.6259">
        <ele>382.74</ele>
        <time>2019-05-12T09:40:49Z</time>
      </trkpt>
      <trkpt lat="44.81718" lon="4.62586">
        <ele>384.18</ele>
        <time>2019-05-12T09:41:11Z</time>
      </trkpt>
      <trkpt lat="44.81718" lon="4.6259">
        <ele>382.74</ele>
        <time>2019-05-12T09:41:32Z</time>
      </trkpt>
      <trkpt lat="44.81723" lon="4.62591">
        <ele>382.26</ele>
        <time>2019-05-12T09:41:37Z</time>
      </trkpt>
      <trkpt lat="44.81737" lon="4.62605">
        <ele>381.78</ele>
        <time>2019-05-12T09:41:50Z</time>
      </trkpt>
      <trkpt lat="44.81749" lon="4.62619">
        <ele>382.26</ele>
        <time>2019-05-12T09:42:03Z</time>
      </trkpt>
      <trkpt lat="44.81764" lon="4.6262">
        <ele>381.3</ele>
        <time>2019-05-12T09:42:16Z</time>
      </trkpt>
      <trkpt lat="44.81772" lon="4.6262">
        <ele>380.82</ele>
        <time>2019-05-12T09:42:24Z</time>
      </trkpt>
      <trkpt lat="44.81785" lon="4.62622">
        <ele>379.86</ele>
        <time>2019-05-12T09:42:35Z</time>
      </trkpt>
      <trkpt lat="44.81803" lon="4.62626">
        <ele>379.86</ele>
        <time>2019-05-12T09:42:48Z</time>
      </trkpt>
      <trkpt lat="44.81818" lon="4.62637">
        <ele>379.86</ele>
        <time>2019-05-12T09:43:02Z</time>
      </trkpt>
      <trkpt lat="44.81829" lon="4.62652">
        <ele>385.15</ele>
        <time>2019-05-12T09:43:09Z</time>
      </trkpt>
      <trkpt lat="44.81836" lon="4.62665">
        <ele>388.03</ele>
        <time>2019-05-12T09:43:17Z</time>
      </trkpt>
      <trkpt lat="44.81846" lon="4.62682">
        <ele>391.39</ele>
        <time>2019-05-12T09:43:29Z</time>
      </trkpt>
      <trkpt lat="44.81851" lon="4.62688">
        <ele>391.39</ele>
        <time>2019-05-12T09:43:33Z</time>
      </trkpt>
      <trkpt lat="44.81866" lon="4.62686">
        <ele>390.91</ele>
        <time>2019-05-12T09:43:46Z</time>
      </trkpt>
      <trkpt lat="44.81882" lon="4.62681">
        <ele>389.47</ele>
        <time>2019-05-12T09:44:00Z</time>
      </trkpt>
      <trkpt lat="44.81903" lon="4.62673">
        <ele>388.51</ele>
        <time>2019-05-12T09:44:15Z</time>
      </trkpt>
      <trkpt lat="44.81919" lon="4.62672">
        <ele>388.99</ele>
        <time>2019-05-12T09:44:26Z</time>
      </trkpt>
      <trkpt lat="44.81933" lon="4.62671">
        <ele>391.39</ele>
        <time>2019-05-12T09:44:36Z</time>
      </trkpt>
      <trkpt lat="44.8195" lon="4.6267">
        <ele>395.72</ele>
        <time>2019-05-12T09:44:50Z</time>
      </trkpt>
      <trkpt lat="44.81963" lon="4.62674">
        <ele>397.16</ele>
        <time>2019-05-12T09:45:01Z</time>
      </trkpt>
      <trkpt lat="44.81968" lon="4.62677">
        <ele>397.16</ele>
        <time>2019-05-12T09:45:04Z</time>
      </trkpt>
      <trkpt lat="44.81984" lon="4.62687">
        <ele>397.64</ele>
        <time>2019-05-12T09:45:17Z</time>
      </trkpt>
      <trkpt lat="44.82005" lon="4.62689">
        <ele>397.64</ele>
        <time>2019-05-12T09:45:33Z</time>
      </trkpt>
      <trkpt lat="44.82017" lon="4.62685">
        <ele>400.05</ele>
        <time>2019-05-12T09:45:45Z</time>
      </trkpt>
      <trkpt lat="44.82021" lon="4.62684">
        <ele>399.57</ele>
        <time>2019-05-12T09:45:48Z</time>
      </trkpt>
      <trkpt lat="44.8203" lon="4.62674">
        <ele>401.49</ele>
        <time>2019-05-12T09:45:58Z</time>
      </trkpt>
      <trkpt lat="44.82033" lon="4.62671">
        <ele>401.49</ele>
        <time>2019-05-12T09:46:02Z</time>
      </trkpt>
      <trkpt lat="44.82039" lon="4.62668">
        <ele>400.53</ele>
        <time>2019-05-12T09:46:15Z</time>
      </trkpt>
      <trkpt lat="44.82045" lon="4.62666">
        <ele>400.53</ele>
        <time>2019-05-12T09:46:25Z</time>
      </trkpt>
      <trkpt lat="44.82061" lon="4.62673">
        <ele>400.53</ele>
        <time>2019-05-12T09:46:37Z</time>
      </trkpt>
      <trkpt lat="44.82065" lon="4.62672">
        <ele>400.05</ele>
        <time>2019-05-12T09:46:40Z</time>
      </trkpt>
      <trkpt lat="44.82072" lon="4.62672">
        <ele>394.76</ele>
        <time>2019-05-12T09:46:50Z</time>
      </trkpt>
      <trkpt lat="44.82077" lon="4.62669">
        <ele>391.39</ele>
        <time>2019-05-12T09:46:57Z</time>
      </trkpt>
      <trkpt lat="44.82088" lon="4.62666">
        <ele>386.11</ele>
        <time>2019-05-12T09:47:08Z</time>
      </trkpt>
      <trkpt lat="44.82097" lon="4.62662">
        <ele>383.22</ele>
        <time>2019-05-12T09:47:16Z</time>
      </trkpt>
      <trkpt lat="44.82101" lon="4.62657">
        <ele>383.22</ele>
        <time>2019-05-12T09:47:20Z</time>
      </trkpt>
      <trkpt lat="44.82105" lon="4.62654">
        <ele>382.26</ele>
        <time>2019-05-12T09:47:24Z</time>
      </trkpt>
      <trkpt lat="44.82107" lon="4.62652">
        <ele>381.3</ele>
        <time>2019-05-12T09:47:26Z</time>
      </trkpt>
      <trkpt lat="44.82117" lon="4.62636">
        <ele>380.82</ele>
        <time>2019-05-12T09:47:38Z</time>
      </trkpt>
      <trkpt lat="44.82119" lon="4.6263">
        <ele>381.3</ele>
        <time>2019-05-12T09:47:42Z</time>
      </trkpt>
      <trkpt lat="44.82125" lon="4.62624">
        <ele>381.78</ele>
        <time>2019-05-12T09:47:50Z</time>
      </trkpt>
      <trkpt lat="44.82135" lon="4.62615">
        <ele>386.11</ele>
        <time>2019-05-12T09:48:00Z</time>
      </trkpt>
      <trkpt lat="44.82138" lon="4.62611">
        <ele>386.59</ele>
        <time>2019-05-12T09:48:03Z</time>
      </trkpt>
      <trkpt lat="44.82145" lon="4.62592">
        <ele>388.51</ele>
        <time>2019-05-12T09:48:15Z</time>
      </trkpt>
      <trkpt lat="44.82149" lon="4.62571">
        <ele>395.72</ele>
        <time>2019-05-12T09:48:28Z</time>
      </trkpt>
      <trkpt lat="44.82152" lon="4.62561">
        <ele>398.6</ele>
        <time>2019-05-12T09:48:39Z</time>
      </trkpt>
      <trkpt lat="44.82154" lon="4.62549">
        <ele>399.57</ele>
        <time>2019-05-12T09:48:48Z</time>
      </trkpt>
      <trkpt lat="44.82155" lon="4.62533">
        <ele>402.45</ele>
        <time>2019-05-12T09:48:58Z</time>
      </trkpt>
      <trkpt lat="44.82158" lon="4.62522">
        <ele>402.45</ele>
        <time>2019-05-12T09:49:07Z</time>
      </trkpt>
      <trkpt lat="44.82162" lon="4.62515">
        <ele>400.05</ele>
        <time>2019-05-12T09:49:13Z</time>
      </trkpt>
      <trkpt lat="44.82174" lon="4.62503">
        <ele>391.87</ele>
        <time>2019-05-12T09:49:26Z</time>
      </trkpt>
      <trkpt lat="44.82185" lon="4.62493">
        <ele>391.87</ele>
        <time>2019-05-12T09:49:36Z</time>
      </trkpt>
      <trkpt lat="44.82192" lon="4.62481">
        <ele>389.95</ele>
        <time>2019-05-12T09:49:47Z</time>
      </trkpt>
      <trkpt lat="44.82203" lon="4.62474">
        <ele>388.51</ele>
        <time>2019-05-12T09:50:03Z</time>
      </trkpt>
      <trkpt lat="44.82213" lon="4.6246">
        <ele>396.2</ele>
        <time>2019-05-12T09:50:16Z</time>
      </trkpt>
      <trkpt lat="44.82221" lon="4.62449">
        <ele>398.6</ele>
        <time>2019-05-12T09:50:29Z</time>
      </trkpt>
      <trkpt lat="44.82225" lon="4.62439">
        <ele>400.05</ele>
        <time>2019-05-12T09:50:40Z</time>
      </trkpt>
      <trkpt lat="44.8223" lon="4.62431">
        <ele>404.37</ele>
        <time>2019-05-12T09:50:53Z</time>
      </trkpt>
      <trkpt lat="44.82231" lon="4.62425">
        <ele>409.18</ele>
        <time>2019-05-12T09:51:06Z</time>
      </trkpt>
      <trkpt lat="44.8223" lon="4.62416">
        <ele>416.87</ele>
        <time>2019-05-12T09:51:18Z</time>
      </trkpt>
      <trkpt lat="44.82229" lon="4.62411">
        <ele>420.23</ele>
        <time>2019-05-12T09:51:22Z</time>
      </trkpt>
      <trkpt lat="44.82226" lon="4.62398">
        <ele>427.44</ele>
        <time>2019-05-12T09:51:34Z</time>
      </trkpt>
      <trkpt lat="44.82225" lon="4.62386">
        <ele>435.61</ele>
        <time>2019-05-12T09:51:46Z</time>
      </trkpt>
      <trkpt lat="44.82221" lon="4.62378">
        <ele>441.86</ele>
        <time>2019-05-12T09:52:03Z</time>
      </trkpt>
      <trkpt lat="44.82223" lon="4.62375">
        <ele>442.82</ele>
        <time>2019-05-12T09:52:12Z</time>
      </trkpt>
      <trkpt lat="44.82227" lon="4.62379">
        <ele>446.67</ele>
        <time>2019-05-12T09:52:27Z</time>
      </trkpt>
      <trkpt lat="44.82229" lon="4.62368">
        <ele>449.55</ele>
        <time>2019-05-12T09:52:43Z</time>
      </trkpt>
      <trkpt lat="44.82229" lon="4.62355">
        <ele>451.48</ele>
        <time>2019-05-12T09:52:56Z</time>
      </trkpt>
      <trkpt lat="44.82231" lon="4.62341">
        <ele>452.92</ele>
        <time>2019-05-12T09:53:08Z</time>
      </trkpt>
      <trkpt lat="44.82233" lon="4.62335">
        <ele>455.32</ele>
        <time>2019-05-12T09:53:13Z</time>
      </trkpt>
      <trkpt lat="44.82235" lon="4.62328">
        <ele>456.28</ele>
        <time>2019-05-12T09:53:25Z</time>
      </trkpt>
      <trkpt lat="44.82238" lon="4.62319">
        <ele>455.8</ele>
        <time>2019-05-12T09:53:39Z</time>
      </trkpt>
      <trkpt lat="44.8224" lon="4.62315">
        <ele>456.76</ele>
        <time>2019-05-12T09:53:52Z</time>
      </trkpt>
      <trkpt lat="44.82237" lon="4.62313">
        <ele>461.57</ele>
        <time>2019-05-12T09:54:26Z</time>
      </trkpt>
      <trkpt lat="44.82238" lon="4.62313">
        <ele>464.93</ele>
        <time>2019-05-12T09:54:47Z</time>
      </trkpt>
      <trkpt lat="44.82241" lon="4.62313">
        <ele>463.49</ele>
        <time>2019-05-12T09:55:00Z</time>
      </trkpt>
      <trkpt lat="44.82242" lon="4.62315">
        <ele>463.49</ele>
        <time>2019-05-12T09:55:19Z</time>
      </trkpt>
      <trkpt lat="44.82248" lon="4.62309">
        <ele>459.17</ele>
        <time>2019-05-12T09:55:30Z</time>
      </trkpt>
      <trkpt lat="44.82252" lon="4.62297">
        <ele>453.88</ele>
        <time>2019-05-12T09:55:44Z</time>
      </trkpt>
      <trkpt lat="44.82259" lon="4.62289">
        <ele>453.4</ele>
        <time>2019-05-12T09:55:57Z</time>
      </trkpt>
      <trkpt lat="44.8226" lon="4.62283">
        <ele>453.88</ele>
        <time>2019-05-12T09:56:14Z</time>
      </trkpt>
      <trkpt lat="44.82266" lon="4.62278">
        <ele>450.52</ele>
        <time>2019-05-12T09:56:24Z</time>
      </trkpt>
      <trkpt lat="44.82274" lon="4.62273">
        <ele>447.15</ele>
        <time>2019-05-12T09:56:34Z</time>
      </trkpt>
      <trkpt lat="44.82281" lon="4.62266">
        <ele>443.31</ele>
        <time>2019-05-12T09:56:43Z</time>
      </trkpt>
      <trkpt lat="44.82288" lon="4.62258">
        <ele>444.27</ele>
        <time>2019-05-12T09:56:52Z</time>
      </trkpt>
      <trkpt lat="44.82295" lon="4.62248">
        <ele>450.03</ele>
        <time>2019-05-12T09:57:08Z</time>
      </trkpt>
      <trkpt lat="44.82296" lon="4.62237">
        <ele>454.36</ele>
        <time>2019-05-12T09:57:23Z</time>
      </trkpt>
      <trkpt lat="44.823" lon="4.62223">
        <ele>457.24</ele>
        <time>2019-05-12T09:57:36Z</time>
      </trkpt>
      <trkpt lat="44.82301" lon="4.62217">
        <ele>457.72</ele>
        <time>2019-05-12T09:57:47Z</time>
      </trkpt>
      <trkpt lat="44.82306" lon="4.62214">
        <ele>457.72</ele>
        <time>2019-05-12T09:58:00Z</time>
      </trkpt>
      <trkpt lat="44.82313" lon="4.6221">
        <ele>455.8</ele>
        <time>2019-05-12T09:58:10Z</time>
      </trkpt>
      <trkpt lat="44.82321" lon="4.62204">
        <ele>454.84</ele>
        <time>2019-05-12T09:58:21Z</time>
      </trkpt>
      <trkpt lat="44.82327" lon="4.62202">
        <ele>456.28</ele>
        <time>2019-05-12T09:58:30Z</time>
      </trkpt>
      <trkpt lat="44.82334" lon="4.62199">
        <ele>458.21</ele>
        <time>2019-05-12T09:58:40Z</time>
      </trkpt>
      <trkpt lat="44.82341" lon="4.62199">
        <ele>459.17</ele>
        <time>2019-05-12T09:58:49Z</time>
      </trkpt>
      <trkpt lat="44.8235" lon="4.62198">
        <ele>459.65</ele>
        <time>2019-05-12T09:58:59Z</time>
      </trkpt>
      <trkpt lat="44.82355" lon="4.62196">
        <ele>462.53</ele>
        <time>2019-05-12T09:59:23Z</time>
      </trkpt>
      <trkpt lat="44.82355" lon="4.62196">
        <ele>462.05</ele>
        <time>2019-05-12T09:59:25Z</time>
      </trkpt>
      <trkpt lat="44.82362" lon="4.62195">
        <ele>462.05</ele>
        <time>2019-05-12T09:59:36Z</time>
      </trkpt>
      <trkpt lat="44.82369" lon="4.62189">
        <ele>463.97</ele>
        <time>2019-05-12T09:59:51Z</time>
      </trkpt>
      <trkpt lat="44.82378" lon="4.62187">
        <ele>461.09</ele>
        <time>2019-05-12T10:00:02Z</time>
      </trkpt>
      <trkpt lat="44.82383" lon="4.62181">
        <ele>458.21</ele>
        <time>2019-05-12T10:00:10Z</time>
      </trkpt>
      <trkpt lat="44.82385" lon="4.62177">
        <ele>457.72</ele>
        <time>2019-05-12T10:00:13Z</time>
      </trkpt>
      <trkpt lat="44.82402" lon="4.62173">
        <ele>459.17</ele>
        <time>2019-05-12T10:00:22Z</time>
      </trkpt>
      <trkpt lat="44.82407" lon="4.62155">
        <ele>455.8</ele>
        <time>2019-05-12T10:00:34Z</time>
      </trkpt>
      <trkpt lat="44.8242" lon="4.62146">
        <ele>459.17</ele>
        <time>2019-05-12T10:00:48Z</time>
      </trkpt>
      <trkpt lat="44.82423" lon="4.62134">
        <ele>461.09</ele>
        <time>2019-05-12T10:01:02Z</time>
      </trkpt>
      <trkpt lat="44.82422" lon="4.62125">
        <ele>462.05</ele>
        <time>2019-05-12T10:01:15Z</time>
      </trkpt>
      <trkpt lat="44.82424" lon="4.62115">
        <ele>463.97</ele>
        <time>2019-05-12T10:01:28Z</time>
      </trkpt>
      <trkpt lat="44.82427" lon="4.62107">
        <ele>464.93</ele>
        <time>2019-05-12T10:01:39Z</time>
      </trkpt>
      <trkpt lat="44.82432" lon="4.62094">
        <ele>467.34</ele>
        <time>2019-05-12T10:01:53Z</time>
      </trkpt>
      <trkpt lat="44.8243" lon="4.62085">
        <ele>472.63</ele>
        <time>2019-05-12T10:02:09Z</time>
      </trkpt>
      <trkpt lat="44.82431" lon="4.62079">
        <ele>478.39</ele>
        <time>2019-05-12T10:02:25Z</time>
      </trkpt>
      <trkpt lat="44.8243" lon="4.6207">
        <ele>481.76</ele>
        <time>2019-05-12T10:02:39Z</time>
      </trkpt>
      <trkpt lat="44.82432" lon="4.62065">
        <ele>481.76</ele>
        <time>2019-05-12T10:02:43Z</time>
      </trkpt>
      <trkpt lat="44.82435" lon="4.62056">
        <ele>482.24</ele>
        <time>2019-05-12T10:02:52Z</time>
      </trkpt>
      <trkpt lat="44.82441" lon="4.62046">
        <ele>483.2</ele>
        <time>2019-05-12T10:03:06Z</time>
      </trkpt>
      <trkpt lat="44.82448" lon="4.62035">
        <ele>483.2</ele>
        <time>2019-05-12T10:03:25Z</time>
      </trkpt>
      <trkpt lat="44.82451" lon="4.62032">
        <ele>484.16</ele>
        <time>2019-05-12T10:03:30Z</time>
      </trkpt>
      <trkpt lat="44.82456" lon="4.62021">
        <ele>484.64</ele>
        <time>2019-05-12T10:03:39Z</time>
      </trkpt>
      <trkpt lat="44.8246" lon="4.62018">
        <ele>485.12</ele>
        <time>2019-05-12T10:03:43Z</time>
      </trkpt>
      <trkpt lat="44.82468" lon="4.62018">
        <ele>485.12</ele>
        <time>2019-05-12T10:03:52Z</time>
      </trkpt>
      <trkpt lat="44.82476" lon="4.6202">
        <ele>486.56</ele>
        <time>2019-05-12T10:04:08Z</time>
      </trkpt>
      <trkpt lat="44.82486" lon="4.62022">
        <ele>485.6</ele>
        <time>2019-05-12T10:04:19Z</time>
      </trkpt>
      <trkpt lat="44.82499" lon="4.62031">
        <ele>484.64</ele>
        <time>2019-05-12T10:04:33Z</time>
      </trkpt>
      <trkpt lat="44.82511" lon="4.62035">
        <ele>482.72</ele>
        <time>2019-05-12T10:04:44Z</time>
      </trkpt>
      <trkpt lat="44.82523" lon="4.62037">
        <ele>482.72</ele>
        <time>2019-05-12T10:04:52Z</time>
      </trkpt>
      <trkpt lat="44.82529" lon="4.62037">
        <ele>482.24</ele>
        <time>2019-05-12T10:04:57Z</time>
      </trkpt>
      <trkpt lat="44.82533" lon="4.62035">
        <ele>481.76</ele>
        <time>2019-05-12T10:05:00Z</time>
      </trkpt>
      <trkpt lat="44.8254" lon="4.62031">
        <ele>481.76</ele>
        <time>2019-05-12T10:05:07Z</time>
      </trkpt>
      <trkpt lat="44.82555" lon="4.62028">
        <ele>480.8</ele>
        <time>2019-05-12T10:05:18Z</time>
      </trkpt>
      <trkpt lat="44.82563" lon="4.6202">
        <ele>478.87</ele>
        <time>2019-05-12T10:05:27Z</time>
      </trkpt>
      <trkpt lat="44.82577" lon="4.62011">
        <ele>479.35</ele>
        <time>2019-05-12T10:05:38Z</time>
      </trkpt>
      <trkpt lat="44.82583" lon="4.62006">
        <ele>480.8</ele>
        <time>2019-05-12T10:05:41Z</time>
      </trkpt>
      <trkpt lat="44.82584" lon="4.62">
        <ele>480.32</ele>
        <time>2019-05-12T10:05:45Z</time>
      </trkpt>
      <trkpt lat="44.82593" lon="4.61996">
        <ele>480.32</ele>
        <time>2019-05-12T10:05:54Z</time>
      </trkpt>
      <trkpt lat="44.82595" lon="4.61995">
        <ele>480.32</ele>
        <time>2019-05-12T10:05:56Z</time>
      </trkpt>
      <trkpt lat="44.82604" lon="4.61983">
        <ele>480.32</ele>
        <time>2019-05-12T10:06:07Z</time>
      </trkpt>
      <trkpt lat="44.82615" lon="4.61979">
        <ele>479.35</ele>
        <time>2019-05-12T10:06:20Z</time>
      </trkpt>
      <trkpt lat="44.82624" lon="4.61977">
        <ele>477.91</ele>
        <time>2019-05-12T10:06:30Z</time>
      </trkpt>
      <trkpt lat="44.82627" lon="4.61976">
        <ele>477.43</ele>
        <time>2019-05-12T10:06:33Z</time>
      </trkpt>
      <trkpt lat="44.82629" lon="4.61977">
        <ele>477.43</ele>
        <time>2019-05-12T10:06:35Z</time>
      </trkpt>
      <trkpt lat="44.82639" lon="4.61968">
        <ele>477.43</ele>
        <time>2019-05-12T10:06:46Z</time>
      </trkpt>
      <trkpt lat="44.82644" lon="4.61963">
        <ele>477.43</ele>
        <time>2019-05-12T10:06:51Z</time>
      </trkpt>
      <trkpt lat="44.82649" lon="4.61956">
        <ele>478.39</ele>
        <time>2019-05-12T10:06:54Z</time>
      </trkpt>
      <trkpt lat="44.8266" lon="4.61943">
        <ele>477.43</ele>
        <time>2019-05-12T10:07:05Z</time>
      </trkpt>
      <trkpt lat="44.82671" lon="4.61935">
        <ele>480.8</ele>
        <time>2019-05-12T10:07:15Z</time>
      </trkpt>
      <trkpt lat="44.82677" lon="4.61914">
        <ele>479.35</ele>
        <time>2019-05-12T10:07:29Z</time>
      </trkpt>
      <trkpt lat="44.82678" lon="4.61908">
        <ele>479.35</ele>
        <time>2019-05-12T10:07:32Z</time>
      </trkpt>
      <trkpt lat="44.82681" lon="4.61896">
        <ele>479.35</ele>
        <time>2019-05-12T10:07:43Z</time>
      </trkpt>
      <trkpt lat="44.82682" lon="4.61881">
        <ele>476.95</ele>
        <time>2019-05-12T10:07:57Z</time>
      </trkpt>
      <trkpt lat="44.82682" lon="4.61872">
        <ele>474.07</ele>
        <time>2019-05-12T10:08:12Z</time>
      </trkpt>
      <trkpt lat="44.82683" lon="4.61872">
        <ele>473.59</ele>
        <time>2019-05-12T10:08:13Z</time>
      </trkpt>
      <trkpt lat="44.82686" lon="4.61858">
        <ele>466.86</ele>
        <time>2019-05-12T10:08:25Z</time>
      </trkpt>
      <trkpt lat="44.82687" lon="4.61853">
        <ele>464.45</ele>
        <time>2019-05-12T10:08:31Z</time>
      </trkpt>
      <trkpt lat="44.82687" lon="4.61844">
        <ele>462.05</ele>
        <time>2019-05-12T10:08:43Z</time>
      </trkpt>
      <trkpt lat="44.8269" lon="4.61828">
        <ele>462.05</ele>
        <time>2019-05-12T10:08:55Z</time>
      </trkpt>
      <trkpt lat="44.82695" lon="4.61812">
        <ele>458.69</ele>
        <time>2019-05-12T10:09:07Z</time>
      </trkpt>
      <trkpt lat="44.82698" lon="4.61799">
        <ele>459.65</ele>
        <time>2019-05-12T10:09:18Z</time>
      </trkpt>
      <trkpt lat="44.82703" lon="4.61781">
        <ele>460.61</ele>
        <time>2019-05-12T10:09:33Z</time>
      </trkpt>
      <trkpt lat="44.82704" lon="4.61779">
        <ele>460.61</ele>
        <time>2019-05-12T10:09:34Z</time>
      </trkpt>
      <trkpt lat="44.82704" lon="4.61772">
        <ele>461.09</ele>
        <time>2019-05-12T10:09:37Z</time>
      </trkpt>
      <trkpt lat="44.82709" lon="4.61765">
        <ele>461.57</ele>
        <time>2019-05-12T10:09:45Z</time>
      </trkpt>
      <trkpt lat="44.82717" lon="4.6176">
        <ele>461.57</ele>
        <time>2019-05-12T10:09:57Z</time>
      </trkpt>
      <trkpt lat="44.8272" lon="4.61759">
        <ele>461.09</ele>
        <time>2019-05-12T10:10:01Z</time>
      </trkpt>
      <trkpt lat="44.82731" lon="4.61761">
        <ele>461.57</ele>
        <time>2019-05-12T10:10:13Z</time>
      </trkpt>
      <trkpt lat="44.8275" lon="4.61761">
        <ele>462.53</ele>
        <time>2019-05-12T10:10:23Z</time>
      </trkpt>
      <trkpt lat="44.82756" lon="4.61759">
        <ele>462.05</ele>
        <time>2019-05-12T10:10:27Z</time>
      </trkpt>
      <trkpt lat="44.82768" lon="4.61756">
        <ele>463.49</ele>
        <time>2019-05-12T10:10:39Z</time>
      </trkpt>
      <trkpt lat="44.82783" lon="4.61754">
        <ele>463.49</ele>
        <time>2019-05-12T10:10:50Z</time>
      </trkpt>
      <trkpt lat="44.82792" lon="4.61752">
        <ele>463.49</ele>
        <time>2019-05-12T10:10:59Z</time>
      </trkpt>
      <trkpt lat="44.82806" lon="4.61743">
        <ele>464.45</ele>
        <time>2019-05-12T10:11:10Z</time>
      </trkpt>
      <trkpt lat="44.82817" lon="4.61737">
        <ele>462.05</ele>
        <time>2019-05-12T10:11:22Z</time>
      </trkpt>
      <trkpt lat="44.82837" lon="4.61724">
        <ele>460.61</ele>
        <time>2019-05-12T10:11:31Z</time>
      </trkpt>
      <trkpt lat="44.82844" lon="4.6171">
        <ele>461.09</ele>
        <time>2019-05-12T10:11:44Z</time>
      </trkpt>
      <trkpt lat="44.82849" lon="4.61693">
        <ele>462.05</ele>
        <time>2019-05-12T10:11:58Z</time>
      </trkpt>
      <trkpt lat="44.82848" lon="4.61649">
        <ele>465.9</ele>
        <time>2019-05-12T10:12:26Z</time>
      </trkpt>
      <trkpt lat="44.82849" lon="4.6164">
        <ele>467.34</ele>
        <time>2019-05-12T10:12:32Z</time>
      </trkpt>
      <trkpt lat="44.82848" lon="4.61629">
        <ele>468.3</ele>
        <time>2019-05-12T10:12:38Z</time>
      </trkpt>
      <trkpt lat="44.82851" lon="4.61613">
        <ele>471.18</ele>
        <time>2019-05-12T10:12:49Z</time>
      </trkpt>
      <trkpt lat="44.82851" lon="4.61612">
        <ele>471.66</ele>
        <time>2019-05-12T10:12:50Z</time>
      </trkpt>
      <trkpt lat="44.82855" lon="4.61599">
        <ele>474.55</ele>
        <time>2019-05-12T10:13:02Z</time>
      </trkpt>
      <trkpt lat="44.82854" lon="4.61591">
        <ele>478.87</ele>
        <time>2019-05-12T10:13:18Z</time>
      </trkpt>
      <trkpt lat="44.82855" lon="4.61587">
        <ele>481.76</ele>
        <time>2019-05-12T10:13:31Z</time>
      </trkpt>
      <trkpt lat="44.82859" lon="4.6158">
        <ele>482.24</ele>
        <time>2019-05-12T10:13:36Z</time>
      </trkpt>
      <trkpt lat="44.82865" lon="4.61575">
        <ele>483.68</ele>
        <time>2019-05-12T10:13:41Z</time>
      </trkpt>
      <trkpt lat="44.82869" lon="4.61559">
        <ele>487.05</ele>
        <time>2019-05-12T10:13:52Z</time>
      </trkpt>
      <trkpt lat="44.82873" lon="4.61551">
        <ele>488.49</ele>
        <time>2019-05-12T10:13:59Z</time>
      </trkpt>
      <trkpt lat="44.82875" lon="4.61549">
        <ele>488.49</ele>
        <time>2019-05-12T10:14:01Z</time>
      </trkpt>
      <trkpt lat="44.82881" lon="4.61537">
        <ele>489.93</ele>
        <time>2019-05-12T10:14:09Z</time>
      </trkpt>
      <trkpt lat="44.82888" lon="4.61515">
        <ele>492.81</ele>
        <time>2019-05-12T10:14:23Z</time>
      </trkpt>
      <trkpt lat="44.82892" lon="4.61503">
        <ele>491.37</ele>
        <time>2019-05-12T10:14:33Z</time>
      </trkpt>
      <trkpt lat="44.82895" lon="4.61487">
        <ele>489.45</ele>
        <time>2019-05-12T10:14:43Z</time>
      </trkpt>
      <trkpt lat="44.82894" lon="4.61483">
        <ele>489.93</ele>
        <time>2019-05-12T10:14:46Z</time>
      </trkpt>
      <trkpt lat="44.82894" lon="4.61454">
        <ele>491.37</ele>
        <time>2019-05-12T10:15:02Z</time>
      </trkpt>
      <trkpt lat="44.82894" lon="4.61428">
        <ele>496.66</ele>
        <time>2019-05-12T10:15:15Z</time>
      </trkpt>
      <trkpt lat="44.82895" lon="4.61413">
        <ele>497.14</ele>
        <time>2019-05-12T10:15:24Z</time>
      </trkpt>
      <trkpt lat="44.829" lon="4.61393">
        <ele>495.7</ele>
        <time>2019-05-12T10:15:37Z</time>
      </trkpt>
      <trkpt lat="44.82901" lon="4.6139">
        <ele>495.7</ele>
        <time>2019-05-12T10:15:39Z</time>
      </trkpt>
      <trkpt lat="44.82903" lon="4.61379">
        <ele>494.74</ele>
        <time>2019-05-12T10:15:47Z</time>
      </trkpt>
      <trkpt lat="44.82906" lon="4.61372">
        <ele>494.74</ele>
        <time>2019-05-12T10:15:52Z</time>
      </trkpt>
      <trkpt lat="44.82912" lon="4.61352">
        <ele>494.26</ele>
        <time>2019-05-12T10:16:04Z</time>
      </trkpt>
      <trkpt lat="44.82918" lon="4.61332">
        <ele>495.22</ele>
        <time>2019-05-12T10:16:15Z</time>
      </trkpt>
      <trkpt lat="44.82923" lon="4.61314">
        <ele>495.7</ele>
        <time>2019-05-12T10:16:25Z</time>
      </trkpt>
      <trkpt lat="44.82925" lon="4.61307">
        <ele>496.18</ele>
        <time>2019-05-12T10:16:28Z</time>
      </trkpt>
      <trkpt lat="44.82931" lon="4.6129">
        <ele>495.7</ele>
        <time>2019-05-12T10:16:39Z</time>
      </trkpt>
      <trkpt lat="44.82935" lon="4.61278">
        <ele>492.33</ele>
        <time>2019-05-12T10:16:47Z</time>
      </trkpt>
      <trkpt lat="44.82944" lon="4.61273">
        <ele>493.77</ele>
        <time>2019-05-12T10:16:57Z</time>
      </trkpt>
      <trkpt lat="44.82961" lon="4.61272">
        <ele>495.22</ele>
        <time>2019-05-12T10:17:07Z</time>
      </trkpt>
      <trkpt lat="44.82976" lon="4.61277">
        <ele>495.7</ele>
        <time>2019-05-12T10:17:17Z</time>
      </trkpt>
      <trkpt lat="44.82994" lon="4.61288">
        <ele>496.18</ele>
        <time>2019-05-12T10:17:29Z</time>
      </trkpt>
      <trkpt lat="44.83007" lon="4.61298">
        <ele>502.43</ele>
        <time>2019-05-12T10:17:42Z</time>
      </trkpt>
      <trkpt lat="44.83024" lon="4.61307">
        <ele>507.71</ele>
        <time>2019-05-12T10:17:53Z</time>
      </trkpt>
      <trkpt lat="44.83044" lon="4.61311">
        <ele>507.71</ele>
        <time>2019-05-12T10:18:06Z</time>
      </trkpt>
      <trkpt lat="44.83055" lon="4.61312">
        <ele>507.23</ele>
        <time>2019-05-12T10:18:17Z</time>
      </trkpt>
      <trkpt lat="44.8307" lon="4.61315">
        <ele>508.67</ele>
        <time>2019-05-12T10:18:27Z</time>
      </trkpt>
      <trkpt lat="44.83086" lon="4.61317">
        <ele>509.64</ele>
        <time>2019-05-12T10:18:39Z</time>
      </trkpt>
      <trkpt lat="44.83099" lon="4.61318">
        <ele>508.19</ele>
        <time>2019-05-12T10:18:48Z</time>
      </trkpt>
      <trkpt lat="44.8311" lon="4.61317">
        <ele>503.87</ele>
        <time>2019-05-12T10:18:58Z</time>
      </trkpt>
      <trkpt lat="44.83123" lon="4.61311">
        <ele>503.87</ele>
        <time>2019-05-12T10:19:09Z</time>
      </trkpt>
      <trkpt lat="44.8313" lon="4.61305">
        <ele>507.23</ele>
        <time>2019-05-12T10:19:14Z</time>
      </trkpt>
      <trkpt lat="44.83155" lon="4.61277">
        <ele>519.25</ele>
        <time>2019-05-12T10:19:28Z</time>
      </trkpt>
      <trkpt lat="44.83156" lon="4.61276">
        <ele>518.77</ele>
        <time>2019-05-12T10:19:29Z</time>
      </trkpt>
      <trkpt lat="44.83168" lon="4.61265">
        <ele>519.73</ele>
        <time>2019-05-12T10:19:39Z</time>
      </trkpt>
      <trkpt lat="44.83183" lon="4.61243">
        <ele>519.73</ele>
        <time>2019-05-12T10:19:52Z</time>
      </trkpt>
      <trkpt lat="44.832" lon="4.61218">
        <ele>521.17</ele>
        <time>2019-05-12T10:20:06Z</time>
      </trkpt>
      <trkpt lat="44.83202" lon="4.61215">
        <ele>521.17</ele>
        <time>2019-05-12T10:20:08Z</time>
      </trkpt>
      <trkpt lat="44.83206" lon="4.61208">
        <ele>519.25</ele>
        <time>2019-05-12T10:20:13Z</time>
      </trkpt>
      <trkpt lat="44.83213" lon="4.61198">
        <ele>517.81</ele>
        <time>2019-05-12T10:20:21Z</time>
      </trkpt>
      <trkpt lat="44.83224" lon="4.61184">
        <ele>520.69</ele>
        <time>2019-05-12T10:20:31Z</time>
      </trkpt>
      <trkpt lat="44.83226" lon="4.61182">
        <ele>520.69</ele>
        <time>2019-05-12T10:20:33Z</time>
      </trkpt>
      <trkpt lat="44.83228" lon="4.61178">
        <ele>520.69</ele>
        <time>2019-05-12T10:20:35Z</time>
      </trkpt>
      <trkpt lat="44.8323" lon="4.61173">
        <ele>519.25</ele>
        <time>2019-05-12T10:20:41Z</time>
      </trkpt>
      <trkpt lat="44.83242" lon="4.61158">
        <ele>516.85</ele>
        <time>2019-05-12T10:20:53Z</time>
      </trkpt>
      <trkpt lat="44.83254" lon="4.61143">
        <ele>513</ele>
        <time>2019-05-12T10:21:03Z</time>
      </trkpt>
      <trkpt lat="44.83266" lon="4.61125">
        <ele>509.64</ele>
        <time>2019-05-12T10:21:16Z</time>
      </trkpt>
      <trkpt lat="44.83281" lon="4.61105">
        <ele>505.79</ele>
        <time>2019-05-12T10:21:30Z</time>
      </trkpt>
      <trkpt lat="44.83296" lon="4.61088">
        <ele>503.87</ele>
        <time>2019-05-12T10:21:43Z</time>
      </trkpt>
      <trkpt lat="44.83304" lon="4.61076">
        <ele>504.35</ele>
        <time>2019-05-12T10:21:49Z</time>
      </trkpt>
      <trkpt lat="44.83306" lon="4.61073">
        <ele>504.35</ele>
        <time>2019-05-12T10:21:50Z</time>
      </trkpt>
      <trkpt lat="44.83306" lon="4.61071">
        <ele>503.87</ele>
        <time>2019-05-12T10:21:51Z</time>
      </trkpt>
      <trkpt lat="44.8331" lon="4.61052">
        <ele>500.5</ele>
        <time>2019-05-12T10:22:02Z</time>
      </trkpt>
      <trkpt lat="44.83311" lon="4.6105">
        <ele>500.5</ele>
        <time>2019-05-12T10:22:03Z</time>
      </trkpt>
      <trkpt lat="44.83312" lon="4.61048">
        <ele>499.54</ele>
        <time>2019-05-12T10:22:04Z</time>
      </trkpt>
      <trkpt lat="44.83312" lon="4.61046">
        <ele>499.06</ele>
        <time>2019-05-12T10:22:05Z</time>
      </trkpt>
      <trkpt lat="44.83313" lon="4.61044">
        <ele>498.58</ele>
        <time>2019-05-12T10:22:06Z</time>
      </trkpt>
      <trkpt lat="44.83313" lon="4.61043">
        <ele>498.1</ele>
        <time>2019-05-12T10:22:07Z</time>
      </trkpt>
      <trkpt lat="44.83318" lon="4.61028">
        <ele>495.22</ele>
        <time>2019-05-12T10:22:21Z</time>
      </trkpt>
      <trkpt lat="44.83321" lon="4.61022">
        <ele>494.74</ele>
        <time>2019-05-12T10:22:38Z</time>
      </trkpt>
      <trkpt lat="44.83323" lon="4.61019">
        <ele>500.5</ele>
        <time>2019-05-12T10:23:01Z</time>
      </trkpt>
      <trkpt lat="44.83325" lon="4.61016">
        <ele>502.43</ele>
        <time>2019-05-12T10:23:22Z</time>
      </trkpt>
      <trkpt lat="44.83327" lon="4.61019">
        <ele>505.79</ele>
        <time>2019-05-12T10:23:45Z</time>
      </trkpt>
      <trkpt lat="44.83329" lon="4.61019">
        <ele>506.27</ele>
        <time>2019-05-12T10:24:07Z</time>
      </trkpt>
      <trkpt lat="44.83329" lon="4.6102">
        <ele>507.71</ele>
        <time>2019-05-12T10:24:28Z</time>
      </trkpt>
      <trkpt lat="44.83329" lon="4.61018">
        <ele>503.87</ele>
        <time>2019-05-12T10:24:43Z</time>
      </trkpt>
      <trkpt lat="44.83329" lon="4.61018">
        <ele>502.43</ele>
        <time>2019-05-12T10:25:01Z</time>
      </trkpt>
      <trkpt lat="44.83329" lon="4.61018">
        <ele>502.43</ele>
        <time>2019-05-12T10:25:15Z</time>
      </trkpt>
      <trkpt lat="44.83327" lon="4.61018">
        <ele>503.87</ele>
        <time>2019-05-12T10:25:31Z</time>
      </trkpt>
      <trkpt lat="44.83332" lon="4.61015">
        <ele>505.31</ele>
        <time>2019-05-12T10:25:49Z</time>
      </trkpt>
      <trkpt lat="44.83327" lon="4.61018">
        <ele>504.35</ele>
        <time>2019-05-12T10:26:06Z</time>
      </trkpt>
      <trkpt lat="44.83333" lon="4.61017">
        <ele>501.46</ele>
        <time>2019-05-12T10:26:20Z</time>
      </trkpt>
      <trkpt lat="44.83335" lon="4.61025">
        <ele>501.95</ele>
        <time>2019-05-12T10:26:35Z</time>
      </trkpt>
      <trkpt lat="44.83327" lon="4.61038">
        <ele>501.95</ele>
        <time>2019-05-12T10:26:51Z</time>
      </trkpt>
      <trkpt lat="44.83322" lon="4.6105">
        <ele>502.91</ele>
        <time>2019-05-12T10:27:07Z</time>
      </trkpt>
      <trkpt lat="44.83317" lon="4.61072">
        <ele>504.83</ele>
        <time>2019-05-12T10:27:23Z</time>
      </trkpt>
      <trkpt lat="44.83312" lon="4.61088">
        <ele>502.91</ele>
        <time>2019-05-12T10:27:37Z</time>
      </trkpt>
      <trkpt lat="44.83299" lon="4.61107">
        <ele>502.43</ele>
        <time>2019-05-12T10:27:55Z</time>
      </trkpt>
      <trkpt lat="44.83291" lon="4.61117">
        <ele>503.39</ele>
        <time>2019-05-12T10:28:10Z</time>
      </trkpt>
      <trkpt lat="44.83286" lon="4.61129">
        <ele>505.79</ele>
        <time>2019-05-12T10:28:27Z</time>
      </trkpt>
      <trkpt lat="44.83277" lon="4.61146">
        <ele>502.91</ele>
        <time>2019-05-12T10:28:41Z</time>
      </trkpt>
      <trkpt lat="44.8327" lon="4.61165">
        <ele>500.5</ele>
        <time>2019-05-12T10:28:57Z</time>
      </trkpt>
      <trkpt lat="44.83263" lon="4.61185">
        <ele>496.18</ele>
        <time>2019-05-12T10:29:13Z</time>
      </trkpt>
      <trkpt lat="44.83261" lon="4.61208">
        <ele>492.81</ele>
        <time>2019-05-12T10:29:29Z</time>
      </trkpt>
      <trkpt lat="44.83261" lon="4.61232">
        <ele>490.89</ele>
        <time>2019-05-12T10:29:44Z</time>
      </trkpt>
      <trkpt lat="44.8326" lon="4.61241">
        <ele>492.33</ele>
        <time>2019-05-12T10:29:49Z</time>
      </trkpt>
      <trkpt lat="44.8326" lon="4.61244">
        <ele>492.81</ele>
        <time>2019-05-12T10:29:50Z</time>
      </trkpt>
      <trkpt lat="44.83262" lon="4.61269">
        <ele>496.18</ele>
        <time>2019-05-12T10:30:03Z</time>
      </trkpt>
      <trkpt lat="44.83263" lon="4.61301">
        <ele>498.58</ele>
        <time>2019-05-12T10:30:19Z</time>
      </trkpt>
      <trkpt lat="44.83263" lon="4.61318">
        <ele>503.87</ele>
        <time>2019-05-12T10:30:28Z</time>
      </trkpt>
      <trkpt lat="44.83262" lon="4.61319">
        <ele>503.87</ele>
        <time>2019-05-12T10:30:29Z</time>
      </trkpt>
      <trkpt lat="44.83263" lon="4.61321">
        <ele>503.87</ele>
        <time>2019-05-12T10:30:30Z</time>
      </trkpt>
      <trkpt lat="44.83258" lon="4.61337">
        <ele>502.91</ele>
        <time>2019-05-12T10:30:41Z</time>
      </trkpt>
      <trkpt lat="44.83256" lon="4.6134">
        <ele>502.91</ele>
        <time>2019-05-12T10:30:43Z</time>
      </trkpt>
      <trkpt lat="44.83242" lon="4.61351">
        <ele>502.43</ele>
        <time>2019-05-12T10:30:56Z</time>
      </trkpt>
      <trkpt lat="44.83224" lon="4.61361">
        <ele>503.87</ele>
        <time>2019-05-12T10:31:09Z</time>
      </trkpt>
      <trkpt lat="44.83223" lon="4.61362">
        <ele>503.87</ele>
        <time>2019-05-12T10:31:10Z</time>
      </trkpt>
      <trkpt lat="44.83222" lon="4.61363">
        <ele>504.35</ele>
        <time>2019-05-12T10:31:11Z</time>
      </trkpt>
      <trkpt lat="44.83211" lon="4.61382">
        <ele>510.12</ele>
        <time>2019-05-12T10:31:25Z</time>
      </trkpt>
      <trkpt lat="44.83197" lon="4.61402">
        <ele>515.4</ele>
        <time>2019-05-12T10:31:38Z</time>
      </trkpt>
      <trkpt lat="44.83184" lon="4.61421">
        <ele>518.77</ele>
        <time>2019-05-12T10:31:53Z</time>
      </trkpt>
      <trkpt lat="44.83176" lon="4.61433">
        <ele>519.73</ele>
        <time>2019-05-12T10:32:02Z</time>
      </trkpt>
      <trkpt lat="44.83165" lon="4.61446">
        <ele>520.69</ele>
        <time>2019-05-12T10:32:14Z</time>
      </trkpt>
      <trkpt lat="44.83158" lon="4.61449">
        <ele>520.69</ele>
        <time>2019-05-12T10:32:19Z</time>
      </trkpt>
      <trkpt lat="44.83157" lon="4.61449">
        <ele>520.69</ele>
        <time>2019-05-12T10:32:20Z</time>
      </trkpt>
      <trkpt lat="44.83156" lon="4.6145">
        <ele>520.69</ele>
        <time>2019-05-12T10:32:21Z</time>
      </trkpt>
      <trkpt lat="44.83154" lon="4.61451">
        <ele>520.69</ele>
        <time>2019-05-12T10:32:22Z</time>
      </trkpt>
      <trkpt lat="44.83145" lon="4.61456">
        <ele>522.13</ele>
        <time>2019-05-12T10:32:29Z</time>
      </trkpt>
      <trkpt lat="44.83127" lon="4.61455">
        <ele>519.73</ele>
        <time>2019-05-12T10:32:45Z</time>
      </trkpt>
      <trkpt lat="44.83124" lon="4.61454">
        <ele>518.29</ele>
        <time>2019-05-12T10:32:48Z</time>
      </trkpt>
      <trkpt lat="44.83105" lon="4.61453">
        <ele>510.6</ele>
        <time>2019-05-12T10:33:04Z</time>
      </trkpt>
      <trkpt lat="44.83096" lon="4.61455">
        <ele>506.27</ele>
        <time>2019-05-12T10:33:13Z</time>
      </trkpt>
      <trkpt lat="44.83088" lon="4.61468">
        <ele>502.91</ele>
        <time>2019-05-12T10:33:26Z</time>
      </trkpt>
      <trkpt lat="44.83076" lon="4.61495">
        <ele>501.95</ele>
        <time>2019-05-12T10:33:41Z</time>
      </trkpt>
      <trkpt lat="44.8307" lon="4.61518">
        <ele>507.23</ele>
        <time>2019-05-12T10:33:54Z</time>
      </trkpt>
      <trkpt lat="44.83063" lon="4.61546">
        <ele>510.12</ele>
        <time>2019-05-12T10:34:09Z</time>
      </trkpt>
      <trkpt lat="44.8306" lon="4.61561">
        <ele>510.12</ele>
        <time>2019-05-12T10:34:19Z</time>
      </trkpt>
      <trkpt lat="44.83059" lon="4.61563">
        <ele>510.12</ele>
        <time>2019-05-12T10:34:20Z</time>
      </trkpt>
      <trkpt lat="44.83057" lon="4.61581">
        <ele>510.12</ele>
        <time>2019-05-12T10:34:29Z</time>
      </trkpt>
      <trkpt lat="44.83057" lon="4.61583">
        <ele>509.64</ele>
        <time>2019-05-12T10:34:30Z</time>
      </trkpt>
      <trkpt lat="44.83057" lon="4.61586">
        <ele>510.12</ele>
        <time>2019-05-12T10:34:31Z</time>
      </trkpt>
      <trkpt lat="44.83057" lon="4.61611">
        <ele>511.08</ele>
        <time>2019-05-12T10:34:42Z</time>
      </trkpt>
      <trkpt lat="44.83057" lon="4.61613">
        <ele>511.08</ele>
        <time>2019-05-12T10:34:43Z</time>
      </trkpt>
      <trkpt lat="44.83058" lon="4.61621">
        <ele>509.16</ele>
        <time>2019-05-12T10:34:48Z</time>
      </trkpt>
      <trkpt lat="44.83059" lon="4.61638">
        <ele>502.91</ele>
        <time>2019-05-12T10:35:00Z</time>
      </trkpt>
      <trkpt lat="44.83064" lon="4.61669">
        <ele>492.81</ele>
        <time>2019-05-12T10:35:16Z</time>
      </trkpt>
      <trkpt lat="44.83065" lon="4.61671">
        <ele>492.33</ele>
        <time>2019-05-12T10:35:17Z</time>
      </trkpt>
      <trkpt lat="44.83074" lon="4.61699">
        <ele>490.41</ele>
        <time>2019-05-12T10:35:30Z</time>
      </trkpt>
      <trkpt lat="44.8308" lon="4.61723">
        <ele>487.05</ele>
        <time>2019-05-12T10:35:43Z</time>
      </trkpt>
      <trkpt lat="44.83081" lon="4.61747">
        <ele>485.6</ele>
        <time>2019-05-12T10:35:55Z</time>
      </trkpt>
      <trkpt lat="44.83078" lon="4.6177">
        <ele>484.16</ele>
        <time>2019-05-12T10:36:08Z</time>
      </trkpt>
      <trkpt lat="44.8308" lon="4.61799">
        <ele>484.16</ele>
        <time>2019-05-12T10:36:22Z</time>
      </trkpt>
      <trkpt lat="44.83089" lon="4.61825">
        <ele>486.08</ele>
        <time>2019-05-12T10:36:35Z</time>
      </trkpt>
      <trkpt lat="44.83091" lon="4.61848">
        <ele>490.41</ele>
        <time>2019-05-12T10:36:48Z</time>
      </trkpt>
      <trkpt lat="44.83089" lon="4.6187">
        <ele>494.26</ele>
        <time>2019-05-12T10:36:59Z</time>
      </trkpt>
      <trkpt lat="44.83086" lon="4.61889">
        <ele>492.81</ele>
        <time>2019-05-12T10:37:12Z</time>
      </trkpt>
      <trkpt lat="44.83084" lon="4.61919">
        <ele>489.45</ele>
        <time>2019-05-12T10:37:28Z</time>
      </trkpt>
      <trkpt lat="44.83088" lon="4.61947">
        <ele>480.8</ele>
        <time>2019-05-12T10:37:42Z</time>
      </trkpt>
      <trkpt lat="44.83094" lon="4.61979">
        <ele>480.32</ele>
        <time>2019-05-12T10:37:58Z</time>
      </trkpt>
      <trkpt lat="44.83094" lon="4.61999">
        <ele>473.59</ele>
        <time>2019-05-12T10:38:11Z</time>
      </trkpt>
      <trkpt lat="44.83086" lon="4.62021">
        <ele>471.66</ele>
        <time>2019-05-12T10:38:23Z</time>
      </trkpt>
      <trkpt lat="44.83076" lon="4.62036">
        <ele>465.42</ele>
        <time>2019-05-12T10:38:38Z</time>
      </trkpt>
      <trkpt lat="44.83066" lon="4.62059">
        <ele>455.32</ele>
        <time>2019-05-12T10:38:53Z</time>
      </trkpt>
      <trkpt lat="44.83055" lon="4.62081">
        <ele>450.03</ele>
        <time>2019-05-12T10:39:06Z</time>
      </trkpt>
      <trkpt lat="44.8305" lon="4.62086">
        <ele>451</ele>
        <time>2019-05-12T10:39:09Z</time>
      </trkpt>
      <trkpt lat="44.83037" lon="4.62109">
        <ele>453.88</ele>
        <time>2019-05-12T10:39:22Z</time>
      </trkpt>
      <trkpt lat="44.83034" lon="4.62143">
        <ele>459.65</ele>
        <time>2019-05-12T10:39:35Z</time>
      </trkpt>
      <trkpt lat="44.83028" lon="4.62172">
        <ele>464.93</ele>
        <time>2019-05-12T10:39:50Z</time>
      </trkpt>
      <trkpt lat="44.83025" lon="4.62194">
        <ele>461.09</ele>
        <time>2019-05-12T10:40:04Z</time>
      </trkpt>
      <trkpt lat="44.83029" lon="4.62218">
        <ele>452.92</ele>
        <time>2019-05-12T10:40:18Z</time>
      </trkpt>
      <trkpt lat="44.83019" lon="4.6224">
        <ele>446.67</ele>
        <time>2019-05-12T10:40:31Z</time>
      </trkpt>
      <trkpt lat="44.83005" lon="4.62256">
        <ele>439.46</ele>
        <time>2019-05-12T10:40:44Z</time>
      </trkpt>
      <trkpt lat="44.82997" lon="4.62277">
        <ele>433.69</ele>
        <time>2019-05-12T10:40:57Z</time>
      </trkpt>
      <trkpt lat="44.82989" lon="4.62299">
        <ele>429.37</ele>
        <time>2019-05-12T10:41:08Z</time>
      </trkpt>
      <trkpt lat="44.82978" lon="4.62322">
        <ele>428.89</ele>
        <time>2019-05-12T10:41:22Z</time>
      </trkpt>
      <trkpt lat="44.8297" lon="4.62348">
        <ele>429.85</ele>
        <time>2019-05-12T10:41:35Z</time>
      </trkpt>
      <trkpt lat="44.8297" lon="4.62354">
        <ele>429.37</ele>
        <time>2019-05-12T10:41:37Z</time>
      </trkpt>
      <trkpt lat="44.82972" lon="4.62381">
        <ele>432.73</ele>
        <time>2019-05-12T10:41:50Z</time>
      </trkpt>
      <trkpt lat="44.82973" lon="4.62413">
        <ele>432.25</ele>
        <time>2019-05-12T10:42:03Z</time>
      </trkpt>
      <trkpt lat="44.82972" lon="4.62418">
        <ele>434.65</ele>
        <time>2019-05-12T10:42:05Z</time>
      </trkpt>
      <trkpt lat="44.82963" lon="4.62449">
        <ele>443.79</ele>
        <time>2019-05-12T10:42:19Z</time>
      </trkpt>
      <trkpt lat="44.82953" lon="4.62472">
        <ele>455.32</ele>
        <time>2019-05-12T10:42:29Z</time>
      </trkpt>
      <trkpt lat="44.82947" lon="4.62483">
        <ele>459.17</ele>
        <time>2019-05-12T10:42:34Z</time>
      </trkpt>
      <trkpt lat="44.82924" lon="4.62503">
        <ele>468.3</ele>
        <time>2019-05-12T10:42:49Z</time>
      </trkpt>
      <trkpt lat="44.82908" lon="4.62505">
        <ele>472.63</ele>
        <time>2019-05-12T10:43:03Z</time>
      </trkpt>
      <trkpt lat="44.82905" lon="4.62508">
        <ele>478.87</ele>
        <time>2019-05-12T10:43:17Z</time>
      </trkpt>
      <trkpt lat="44.82891" lon="4.62512">
        <ele>480.8</ele>
        <time>2019-05-12T10:43:29Z</time>
      </trkpt>
      <trkpt lat="44.82885" lon="4.62512">
        <ele>480.32</ele>
        <time>2019-05-12T10:43:34Z</time>
      </trkpt>
      <trkpt lat="44.82868" lon="4.62523">
        <ele>482.24</ele>
        <time>2019-05-12T10:43:47Z</time>
      </trkpt>
      <trkpt lat="44.82865" lon="4.6254">
        <ele>482.24</ele>
        <time>2019-05-12T10:43:55Z</time>
      </trkpt>
      <trkpt lat="44.82859" lon="4.62575">
        <ele>486.08</ele>
        <time>2019-05-12T10:44:10Z</time>
      </trkpt>
      <trkpt lat="44.82861" lon="4.62602">
        <ele>491.37</ele>
        <time>2019-05-12T10:44:22Z</time>
      </trkpt>
      <trkpt lat="44.82863" lon="4.62615">
        <ele>490.89</ele>
        <time>2019-05-12T10:44:29Z</time>
      </trkpt>
      <trkpt lat="44.82864" lon="4.62632">
        <ele>490.41</ele>
        <time>2019-05-12T10:44:38Z</time>
      </trkpt>
      <trkpt lat="44.82861" lon="4.62665">
        <ele>493.77</ele>
        <time>2019-05-12T10:44:53Z</time>
      </trkpt>
      <trkpt lat="44.82859" lon="4.62677">
        <ele>494.26</ele>
        <time>2019-05-12T10:44:58Z</time>
      </trkpt>
      <trkpt lat="44.82855" lon="4.62705">
        <ele>498.58</ele>
        <time>2019-05-12T10:45:09Z</time>
      </trkpt>
      <trkpt lat="44.82855" lon="4.62711">
        <ele>497.62</ele>
        <time>2019-05-12T10:45:12Z</time>
      </trkpt>
      <trkpt lat="44.82846" lon="4.62734">
        <ele>493.77</ele>
        <time>2019-05-12T10:45:24Z</time>
      </trkpt>
      <trkpt lat="44.82834" lon="4.62741">
        <ele>493.29</ele>
        <time>2019-05-12T10:45:33Z</time>
      </trkpt>
      <trkpt lat="44.82817" lon="4.62736">
        <ele>491.85</ele>
        <time>2019-05-12T10:45:48Z</time>
      </trkpt>
      <trkpt lat="44.82799" lon="4.62731">
        <ele>490.89</ele>
        <time>2019-05-12T10:46:02Z</time>
      </trkpt>
      <trkpt lat="44.82782" lon="4.6272">
        <ele>491.37</ele>
        <time>2019-05-12T10:46:17Z</time>
      </trkpt>
      <trkpt lat="44.82764" lon="4.62706">
        <ele>491.37</ele>
        <time>2019-05-12T10:46:32Z</time>
      </trkpt>
      <trkpt lat="44.82744" lon="4.62694">
        <ele>491.37</ele>
        <time>2019-05-12T10:46:46Z</time>
      </trkpt>
      <trkpt lat="44.82727" lon="4.62686">
        <ele>490.89</ele>
        <time>2019-05-12T10:47:00Z</time>
      </trkpt>
      <trkpt lat="44.82705" lon="4.62678">
        <ele>488.49</ele>
        <time>2019-05-12T10:47:14Z</time>
      </trkpt>
      <trkpt lat="44.82693" lon="4.62677">
        <ele>489.93</ele>
        <time>2019-05-12T10:47:22Z</time>
      </trkpt>
      <trkpt lat="44.82678" lon="4.62684">
        <ele>489.45</ele>
        <time>2019-05-12T10:47:33Z</time>
      </trkpt>
      <trkpt lat="44.82659" lon="4.62704">
        <ele>493.77</ele>
        <time>2019-05-12T10:47:47Z</time>
      </trkpt>
      <trkpt lat="44.82656" lon="4.62708">
        <ele>493.77</ele>
        <time>2019-05-12T10:47:50Z</time>
      </trkpt>
      <trkpt lat="44.82644" lon="4.62728">
        <ele>494.26</ele>
        <time>2019-05-12T10:48:04Z</time>
      </trkpt>
      <trkpt lat="44.82636" lon="4.62741">
        <ele>491.85</ele>
        <time>2019-05-12T10:48:17Z</time>
      </trkpt>
      <trkpt lat="44.82625" lon="4.62768">
        <ele>490.41</ele>
        <time>2019-05-12T10:48:31Z</time>
      </trkpt>
      <trkpt lat="44.82624" lon="4.62776">
        <ele>486.56</ele>
        <time>2019-05-12T10:48:38Z</time>
      </trkpt>
      <trkpt lat="44.8262" lon="4.62796">
        <ele>480.8</ele>
        <time>2019-05-12T10:48:49Z</time>
      </trkpt>
      <trkpt lat="44.82615" lon="4.62812">
        <ele>473.11</ele>
        <time>2019-05-12T10:49:00Z</time>
      </trkpt>
      <trkpt lat="44.82614" lon="4.62814">
        <ele>473.11</ele>
        <time>2019-05-12T10:49:01Z</time>
      </trkpt>
      <trkpt lat="44.82611" lon="4.62821">
        <ele>468.78</ele>
        <time>2019-05-12T10:49:06Z</time>
      </trkpt>
      <trkpt lat="44.82604" lon="4.62845">
        <ele>468.3</ele>
        <time>2019-05-12T10:49:18Z</time>
      </trkpt>
      <trkpt lat="44.82603" lon="4.62852">
        <ele>468.78</ele>
        <time>2019-05-12T10:49:21Z</time>
      </trkpt>
      <trkpt lat="44.82605" lon="4.62868">
        <ele>472.14</ele>
        <time>2019-05-12T10:49:28Z</time>
      </trkpt>
      <trkpt lat="44.82614" lon="4.62887">
        <ele>471.66</ele>
        <time>2019-05-12T10:49:40Z</time>
      </trkpt>
      <trkpt lat="44.82619" lon="4.62901">
        <ele>471.66</ele>
        <time>2019-05-12T10:49:50Z</time>
      </trkpt>
      <trkpt lat="44.82621" lon="4.62918">
        <ele>472.63</ele>
        <time>2019-05-12T10:50:02Z</time>
      </trkpt>
      <trkpt lat="44.8263" lon="4.6294">
        <ele>468.3</ele>
        <time>2019-05-12T10:50:15Z</time>
      </trkpt>
      <trkpt lat="44.82641" lon="4.62957">
        <ele>456.76</ele>
        <time>2019-05-12T10:50:27Z</time>
      </trkpt>
      <trkpt lat="44.82637" lon="4.62968">
        <ele>456.76</ele>
        <time>2019-05-12T10:50:40Z</time>
      </trkpt>
      <trkpt lat="44.82635" lon="4.62963">
        <ele>451.96</ele>
        <time>2019-05-12T10:51:06Z</time>
      </trkpt>
      <trkpt lat="44.82633" lon="4.6296">
        <ele>455.8</ele>
        <time>2019-05-12T10:51:34Z</time>
      </trkpt>
      <trkpt lat="44.82634" lon="4.62966">
        <ele>455.32</ele>
        <time>2019-05-12T10:51:35Z</time>
      </trkpt>
      <trkpt lat="44.82637" lon="4.62976">
        <ele>458.21</ele>
        <time>2019-05-12T10:51:39Z</time>
      </trkpt>
      <trkpt lat="44.82637" lon="4.62985">
        <ele>459.17</ele>
        <time>2019-05-12T10:51:43Z</time>
      </trkpt>
      <trkpt lat="44.82639" lon="4.62995">
        <ele>459.65</ele>
        <time>2019-05-12T10:51:48Z</time>
      </trkpt>
      <trkpt lat="44.8264" lon="4.63017">
        <ele>454.84</ele>
        <time>2019-05-12T10:52:00Z</time>
      </trkpt>
      <trkpt lat="44.82642" lon="4.63034">
        <ele>456.28</ele>
        <time>2019-05-12T10:52:09Z</time>
      </trkpt>
      <trkpt lat="44.82647" lon="4.63052">
        <ele>455.8</ele>
        <time>2019-05-12T10:52:20Z</time>
      </trkpt>
      <trkpt lat="44.82651" lon="4.63065">
        <ele>463.01</ele>
        <time>2019-05-12T10:52:36Z</time>
      </trkpt>
      <trkpt lat="44.82657" lon="4.63076">
        <ele>460.13</ele>
        <time>2019-05-12T10:52:48Z</time>
      </trkpt>
      <trkpt lat="44.82666" lon="4.63095">
        <ele>457.72</ele>
        <time>2019-05-12T10:53:03Z</time>
      </trkpt>
      <trkpt lat="44.82676" lon="4.63111">
        <ele>455.8</ele>
        <time>2019-05-12T10:53:14Z</time>
      </trkpt>
      <trkpt lat="44.82677" lon="4.63115">
        <ele>455.32</ele>
        <time>2019-05-12T10:53:17Z</time>
      </trkpt>
      <trkpt lat="44.82681" lon="4.63136">
        <ele>451.48</ele>
        <time>2019-05-12T10:53:29Z</time>
      </trkpt>
      <trkpt lat="44.82676" lon="4.63154">
        <ele>446.67</ele>
        <time>2019-05-12T10:53:42Z</time>
      </trkpt>
      <trkpt lat="44.82672" lon="4.63161">
        <ele>444.27</ele>
        <time>2019-05-12T10:53:55Z</time>
      </trkpt>
      <trkpt lat="44.82671" lon="4.63168">
        <ele>442.82</ele>
        <time>2019-05-12T10:54:01Z</time>
      </trkpt>
      <trkpt lat="44.82666" lon="4.63192">
        <ele>440.9</ele>
        <time>2019-05-12T10:54:16Z</time>
      </trkpt>
      <trkpt lat="44.82663" lon="4.63212">
        <ele>438.5</ele>
        <time>2019-05-12T10:54:29Z</time>
      </trkpt>
      <trkpt lat="44.8266" lon="4.63234">
        <ele>437.54</ele>
        <time>2019-05-12T10:54:41Z</time>
      </trkpt>
      <trkpt lat="44.82657" lon="4.63252">
        <ele>435.61</ele>
        <time>2019-05-12T10:54:51Z</time>
      </trkpt>
      <trkpt lat="44.82654" lon="4.63264">
        <ele>433.21</ele>
        <time>2019-05-12T10:54:59Z</time>
      </trkpt>
      <trkpt lat="44.82657" lon="4.63295">
        <ele>436.58</ele>
        <time>2019-05-12T10:55:13Z</time>
      </trkpt>
      <trkpt lat="44.82662" lon="4.63321">
        <ele>439.46</ele>
        <time>2019-05-12T10:55:25Z</time>
      </trkpt>
      <trkpt lat="44.82663" lon="4.63323">
        <ele>438.98</ele>
        <time>2019-05-12T10:55:26Z</time>
      </trkpt>
      <trkpt lat="44.82677" lon="4.63349">
        <ele>440.9</ele>
        <time>2019-05-12T10:55:40Z</time>
      </trkpt>
      <trkpt lat="44.82682" lon="4.63364">
        <ele>442.34</ele>
        <time>2019-05-12T10:55:50Z</time>
      </trkpt>
      <trkpt lat="44.82691" lon="4.63369">
        <ele>443.79</ele>
        <time>2019-05-12T10:55:55Z</time>
      </trkpt>
      <trkpt lat="44.82701" lon="4.63385">
        <ele>443.31</ele>
        <time>2019-05-12T10:56:06Z</time>
      </trkpt>
      <trkpt lat="44.82705" lon="4.63405">
        <ele>440.42</ele>
        <time>2019-05-12T10:56:20Z</time>
      </trkpt>
      <trkpt lat="44.82709" lon="4.63417">
        <ele>439.94</ele>
        <time>2019-05-12T10:56:30Z</time>
      </trkpt>
      <trkpt lat="44.82716" lon="4.63423">
        <ele>440.42</ele>
        <time>2019-05-12T10:56:35Z</time>
      </trkpt>
      <trkpt lat="44.82727" lon="4.63446">
        <ele>438.98</ele>
        <time>2019-05-12T10:56:48Z</time>
      </trkpt>
      <trkpt lat="44.82739" lon="4.63466">
        <ele>441.38</ele>
        <time>2019-05-12T10:57:00Z</time>
      </trkpt>
      <trkpt lat="44.82745" lon="4.63494">
        <ele>439.94</ele>
        <time>2019-05-12T10:57:15Z</time>
      </trkpt>
      <trkpt lat="44.82742" lon="4.63512">
        <ele>436.58</ele>
        <time>2019-05-12T10:57:25Z</time>
      </trkpt>
      <trkpt lat="44.8274" lon="4.63533">
        <ele>436.58</ele>
        <time>2019-05-12T10:57:36Z</time>
      </trkpt>
      <trkpt lat="44.8274" lon="4.6354">
        <ele>435.61</ele>
        <time>2019-05-12T10:57:40Z</time>
      </trkpt>
      <trkpt lat="44.82741" lon="4.63546">
        <ele>434.65</ele>
        <time>2019-05-12T10:57:43Z</time>
      </trkpt>
      <trkpt lat="44.82742" lon="4.63555">
        <ele>434.65</ele>
        <time>2019-05-12T10:57:48Z</time>
      </trkpt>
      <trkpt lat="44.82749" lon="4.63584">
        <ele>435.61</ele>
        <time>2019-05-12T10:58:03Z</time>
      </trkpt>
      <trkpt lat="44.82757" lon="4.63596">
        <ele>435.13</ele>
        <time>2019-05-12T10:58:12Z</time>
      </trkpt>
      <trkpt lat="44.82759" lon="4.63599">
        <ele>435.13</ele>
        <time>2019-05-12T10:58:14Z</time>
      </trkpt>
      <trkpt lat="44.82772" lon="4.63626">
        <ele>442.34</ele>
        <time>2019-05-12T10:58:29Z</time>
      </trkpt>
      <trkpt lat="44.82779" lon="4.63636">
        <ele>441.38</ele>
        <time>2019-05-12T10:58:36Z</time>
      </trkpt>
      <trkpt lat="44.8279" lon="4.63652">
        <ele>438.98</ele>
        <time>2019-05-12T10:58:49Z</time>
      </trkpt>
      <trkpt lat="44.82791" lon="4.63653">
        <ele>438.98</ele>
        <time>2019-05-12T10:58:50Z</time>
      </trkpt>
      <trkpt lat="44.82797" lon="4.63658">
        <ele>437.54</ele>
        <time>2019-05-12T10:59:03Z</time>
      </trkpt>
      <trkpt lat="44.82798" lon="4.63661">
        <ele>438.02</ele>
        <time>2019-05-12T10:59:05Z</time>
      </trkpt>
      <trkpt lat="44.82802" lon="4.63674">
        <ele>433.21</ele>
        <time>2019-05-12T10:59:15Z</time>
      </trkpt>
      <trkpt lat="44.82805" lon="4.63688">
        <ele>428.89</ele>
        <time>2019-05-12T10:59:24Z</time>
      </trkpt>
      <trkpt lat="44.82812" lon="4.63707">
        <ele>429.37</ele>
        <time>2019-05-12T10:59:37Z</time>
      </trkpt>
      <trkpt lat="44.82826" lon="4.63715">
        <ele>426.96</ele>
        <time>2019-05-12T10:59:51Z</time>
      </trkpt>
      <trkpt lat="44.82831" lon="4.63716">
        <ele>426.48</ele>
        <time>2019-05-12T10:59:55Z</time>
      </trkpt>
      <trkpt lat="44.82845" lon="4.63722">
        <ele>424.56</ele>
        <time>2019-05-12T11:00:07Z</time>
      </trkpt>
      <trkpt lat="44.82856" lon="4.6373">
        <ele>422.16</ele>
        <time>2019-05-12T11:00:18Z</time>
      </trkpt>
      <trkpt lat="44.82867" lon="4.63737">
        <ele>421.68</ele>
        <time>2019-05-12T11:00:28Z</time>
      </trkpt>
      <trkpt lat="44.8287" lon="4.63741">
        <ele>421.19</ele>
        <time>2019-05-12T11:00:30Z</time>
      </trkpt>
      <trkpt lat="44.82875" lon="4.63743">
        <ele>420.23</ele>
        <time>2019-05-12T11:00:34Z</time>
      </trkpt>
      <trkpt lat="44.82882" lon="4.63748">
        <ele>417.35</ele>
        <time>2019-05-12T11:00:40Z</time>
      </trkpt>
      <trkpt lat="44.82895" lon="4.63761">
        <ele>414.47</ele>
        <time>2019-05-12T11:00:54Z</time>
      </trkpt>
      <trkpt lat="44.82915" lon="4.63767">
        <ele>414.47</ele>
        <time>2019-05-12T11:01:09Z</time>
      </trkpt>
      <trkpt lat="44.82929" lon="4.63767">
        <ele>412.54</ele>
        <time>2019-05-12T11:01:19Z</time>
      </trkpt>
      <trkpt lat="44.82935" lon="4.63773">
        <ele>410.62</ele>
        <time>2019-05-12T11:01:25Z</time>
      </trkpt>
      <trkpt lat="44.82959" lon="4.63794">
        <ele>404.85</ele>
        <time>2019-05-12T11:01:42Z</time>
      </trkpt>
      <trkpt lat="44.82961" lon="4.63794">
        <ele>404.85</ele>
        <time>2019-05-12T11:01:43Z</time>
      </trkpt>
      <trkpt lat="44.8297" lon="4.63779">
        <ele>403.41</ele>
        <time>2019-05-12T11:01:55Z</time>
      </trkpt>
      <trkpt lat="44.82984" lon="4.63754">
        <ele>403.41</ele>
        <time>2019-05-12T11:02:11Z</time>
      </trkpt>
      <trkpt lat="44.82988" lon="4.63748">
        <ele>404.37</ele>
        <time>2019-05-12T11:02:16Z</time>
      </trkpt>
      <trkpt lat="44.82996" lon="4.63737">
        <ele>404.37</ele>
        <time>2019-05-12T11:02:24Z</time>
      </trkpt>
      <trkpt lat="44.82998" lon="4.63728">
        <ele>403.41</ele>
        <time>2019-05-12T11:02:29Z</time>
      </trkpt>
      <trkpt lat="44.83" lon="4.63722">
        <ele>402.93</ele>
        <time>2019-05-12T11:02:33Z</time>
      </trkpt>
      <trkpt lat="44.83007" lon="4.63724">
        <ele>400.53</ele>
        <time>2019-05-12T11:02:43Z</time>
      </trkpt>
      <trkpt lat="44.83009" lon="4.63747">
        <ele>396.2</ele>
        <time>2019-05-12T11:02:57Z</time>
      </trkpt>
      <trkpt lat="44.8301" lon="4.63748">
        <ele>395.72</ele>
        <time>2019-05-12T11:02:58Z</time>
      </trkpt>
      <trkpt lat="44.83017" lon="4.63772">
        <ele>394.76</ele>
        <time>2019-05-12T11:03:14Z</time>
      </trkpt>
      <trkpt lat="44.83029" lon="4.63794">
        <ele>395.24</ele>
        <time>2019-05-12T11:03:30Z</time>
      </trkpt>
      <trkpt lat="44.8304" lon="4.63811">
        <ele>395.24</ele>
        <time>2019-05-12T11:03:44Z</time>
      </trkpt>
      <trkpt lat="44.83046" lon="4.63831">
        <ele>393.8</ele>
        <time>2019-05-12T11:03:59Z</time>
      </trkpt>
      <trkpt lat="44.83048" lon="4.63841">
        <ele>393.32</ele>
        <time>2019-05-12T11:04:05Z</time>
      </trkpt>
      <trkpt lat="44.8306" lon="4.63859">
        <ele>391.39</ele>
        <time>2019-05-12T11:04:22Z</time>
      </trkpt>
      <trkpt lat="44.83072" lon="4.6387">
        <ele>389.47</ele>
        <time>2019-05-12T11:04:36Z</time>
      </trkpt>
      <trkpt lat="44.83088" lon="4.63879">
        <ele>385.15</ele>
        <time>2019-05-12T11:04:51Z</time>
      </trkpt>
      <trkpt lat="44.83107" lon="4.63882">
        <ele>385.63</ele>
        <time>2019-05-12T11:05:05Z</time>
      </trkpt>
      <trkpt lat="44.83126" lon="4.63886">
        <ele>385.15</ele>
        <time>2019-05-12T11:05:22Z</time>
      </trkpt>
      <trkpt lat="44.83132" lon="4.63886">
        <ele>384.18</ele>
        <time>2019-05-12T11:05:26Z</time>
      </trkpt>
      <trkpt lat="44.83142" lon="4.63882">
        <ele>382.26</ele>
        <time>2019-05-12T11:05:39Z</time>
      </trkpt>
      <trkpt lat="44.83154" lon="4.63885">
        <ele>380.34</ele>
        <time>2019-05-12T11:05:50Z</time>
      </trkpt>
      <trkpt lat="44.83162" lon="4.63905">
        <ele>377.45</ele>
        <time>2019-05-12T11:06:04Z</time>
      </trkpt>
      <trkpt lat="44.83163" lon="4.63911">
        <ele>376.49</ele>
        <time>2019-05-12T11:06:08Z</time>
      </trkpt>
      <trkpt lat="44.83163" lon="4.63932">
        <ele>375.05</ele>
        <time>2019-05-12T11:06:21Z</time>
      </trkpt>
      <trkpt lat="44.83164" lon="4.63938">
        <ele>374.57</ele>
        <time>2019-05-12T11:06:25Z</time>
      </trkpt>
      <trkpt lat="44.83166" lon="4.63955">
        <ele>371.21</ele>
        <time>2019-05-12T11:06:40Z</time>
      </trkpt>
      <trkpt lat="44.83167" lon="4.63957">
        <ele>371.21</ele>
        <time>2019-05-12T11:06:41Z</time>
      </trkpt>
      <trkpt lat="44.83171" lon="4.63979">
        <ele>364.96</ele>
        <time>2019-05-12T11:06:56Z</time>
      </trkpt>
      <trkpt lat="44.83175" lon="4.63993">
        <ele>365.44</ele>
        <time>2019-05-12T11:07:05Z</time>
      </trkpt>
      <trkpt lat="44.83181" lon="4.63994">
        <ele>364.48</ele>
        <time>2019-05-12T11:07:11Z</time>
      </trkpt>
      <trkpt lat="44.83183" lon="4.63998">
        <ele>364</ele>
        <time>2019-05-12T11:07:14Z</time>
      </trkpt>
      <trkpt lat="44.83191" lon="4.64007">
        <ele>363.52</ele>
        <time>2019-05-12T11:07:22Z</time>
      </trkpt>
      <trkpt lat="44.83201" lon="4.64025">
        <ele>362.55</ele>
        <time>2019-05-12T11:07:35Z</time>
      </trkpt>
      <trkpt lat="44.83208" lon="4.64042">
        <ele>360.63</ele>
        <time>2019-05-12T11:07:48Z</time>
      </trkpt>
      <trkpt lat="44.83216" lon="4.64067">
        <ele>361.59</ele>
        <time>2019-05-12T11:08:04Z</time>
      </trkpt>
      <trkpt lat="44.83218" lon="4.64074">
        <ele>362.55</ele>
        <time>2019-05-12T11:08:09Z</time>
      </trkpt>
      <trkpt lat="44.83224" lon="4.64085">
        <ele>363.52</ele>
        <time>2019-05-12T11:08:19Z</time>
      </trkpt>
      <trkpt lat="44.83227" lon="4.64104">
        <ele>362.55</ele>
        <time>2019-05-12T11:08:30Z</time>
      </trkpt>
      <trkpt lat="44.83229" lon="4.64123">
        <ele>359.19</ele>
        <time>2019-05-12T11:08:44Z</time>
      </trkpt>
      <trkpt lat="44.8323" lon="4.64143">
        <ele>356.79</ele>
        <time>2019-05-12T11:08:56Z</time>
      </trkpt>
      <trkpt lat="44.83233" lon="4.64158">
        <ele>354.38</ele>
        <time>2019-05-12T11:09:07Z</time>
      </trkpt>
      <trkpt lat="44.83233" lon="4.64159">
        <ele>354.38</ele>
        <time>2019-05-12T11:09:08Z</time>
      </trkpt>
      <trkpt lat="44.83231" lon="4.64173">
        <ele>354.38</ele>
        <time>2019-05-12T11:09:19Z</time>
      </trkpt>
      <trkpt lat="44.83231" lon="4.64185">
        <ele>351.02</ele>
        <time>2019-05-12T11:09:29Z</time>
      </trkpt>
      <trkpt lat="44.83233" lon="4.64202">
        <ele>345.73</ele>
        <time>2019-05-12T11:09:43Z</time>
      </trkpt>
      <trkpt lat="44.83232" lon="4.64218">
        <ele>342.37</ele>
        <time>2019-05-12T11:09:56Z</time>
      </trkpt>
      <trkpt lat="44.83232" lon="4.64231">
        <ele>343.33</ele>
        <time>2019-05-12T11:10:06Z</time>
      </trkpt>
      <trkpt lat="44.83221" lon="4.64249">
        <ele>341.41</ele>
        <time>2019-05-12T11:10:20Z</time>
      </trkpt>
      <trkpt lat="44.83213" lon="4.64259">
        <ele>332.75</ele>
        <time>2019-05-12T11:10:33Z</time>
      </trkpt>
      <trkpt lat="44.83205" lon="4.64269">
        <ele>325.06</ele>
        <time>2019-05-12T11:10:43Z</time>
      </trkpt>
      <trkpt lat="44.83198" lon="4.6428">
        <ele>316.89</ele>
        <time>2019-05-12T11:10:54Z</time>
      </trkpt>
      <trkpt lat="44.832" lon="4.64297">
        <ele>319.78</ele>
        <time>2019-05-12T11:11:08Z</time>
      </trkpt>
      <trkpt lat="44.83205" lon="4.64316">
        <ele>326.5</ele>
        <time>2019-05-12T11:11:20Z</time>
      </trkpt>
      <trkpt lat="44.83208" lon="4.64335">
        <ele>326.99</ele>
        <time>2019-05-12T11:11:35Z</time>
      </trkpt>
      <trkpt lat="44.83211" lon="4.64356">
        <ele>329.39</ele>
        <time>2019-05-12T11:11:51Z</time>
      </trkpt>
      <trkpt lat="44.83213" lon="4.64369">
        <ele>327.47</ele>
        <time>2019-05-12T11:12:04Z</time>
      </trkpt>
      <trkpt lat="44.83216" lon="4.64378">
        <ele>326.5</ele>
        <time>2019-05-12T11:12:10Z</time>
      </trkpt>
      <trkpt lat="44.83219" lon="4.64398">
        <ele>328.91</ele>
        <time>2019-05-12T11:12:22Z</time>
      </trkpt>
      <trkpt lat="44.83218" lon="4.64417">
        <ele>325.54</ele>
        <time>2019-05-12T11:12:37Z</time>
      </trkpt>
      <trkpt lat="44.83213" lon="4.64434">
        <ele>315.93</ele>
        <time>2019-05-12T11:12:51Z</time>
      </trkpt>
      <trkpt lat="44.83211" lon="4.64448">
        <ele>310.16</ele>
        <time>2019-05-12T11:13:03Z</time>
      </trkpt>
      <trkpt lat="44.8321" lon="4.64463">
        <ele>309.68</ele>
        <time>2019-05-12T11:13:16Z</time>
      </trkpt>
      <trkpt lat="44.83209" lon="4.64481">
        <ele>307.28</ele>
        <time>2019-05-12T11:13:28Z</time>
      </trkpt>
      <trkpt lat="44.83206" lon="4.64492">
        <ele>303.91</ele>
        <time>2019-05-12T11:13:40Z</time>
      </trkpt>
      <trkpt lat="44.83207" lon="4.64511">
        <ele>299.59</ele>
        <time>2019-05-12T11:13:51Z</time>
      </trkpt>
      <trkpt lat="44.83208" lon="4.64523">
        <ele>297.18</ele>
        <time>2019-05-12T11:13:59Z</time>
      </trkpt>
      <trkpt lat="44.83212" lon="4.64544">
        <ele>295.26</ele>
        <time>2019-05-12T11:14:14Z</time>
      </trkpt>
      <trkpt lat="44.83216" lon="4.64555">
        <ele>291.42</ele>
        <time>2019-05-12T11:14:27Z</time>
      </trkpt>
      <trkpt lat="44.83223" lon="4.6457">
        <ele>287.57</ele>
        <time>2019-05-12T11:14:42Z</time>
      </trkpt>
      <trkpt lat="44.83233" lon="4.64583">
        <ele>282.28</ele>
        <time>2019-05-12T11:14:57Z</time>
      </trkpt>
      <trkpt lat="44.83242" lon="4.646">
        <ele>280.84</ele>
        <time>2019-05-12T11:15:09Z</time>
      </trkpt>
      <trkpt lat="44.83252" lon="4.64613">
        <ele>279.4</ele>
        <time>2019-05-12T11:15:22Z</time>
      </trkpt>
      <trkpt lat="44.83259" lon="4.64623">
        <ele>276.52</ele>
        <time>2019-05-12T11:15:35Z</time>
      </trkpt>
      <trkpt lat="44.83263" lon="4.64633">
        <ele>275.56</ele>
        <time>2019-05-12T11:15:48Z</time>
      </trkpt>
      <trkpt lat="44.83265" lon="4.6464">
        <ele>269.31</ele>
        <time>2019-05-12T11:16:02Z</time>
      </trkpt>
      <trkpt lat="44.83268" lon="4.64643">
        <ele>263.54</ele>
        <time>2019-05-12T11:16:09Z</time>
      </trkpt>
      <trkpt lat="44.8327" lon="4.64656">
        <ele>254.41</ele>
        <time>2019-05-12T11:16:20Z</time>
      </trkpt>
      <trkpt lat="44.83269" lon="4.6467">
        <ele>243.35</ele>
        <time>2019-05-12T11:16:30Z</time>
      </trkpt>
      <trkpt lat="44.8326" lon="4.64688">
        <ele>237.58</ele>
        <time>2019-05-12T11:16:40Z</time>
      </trkpt>
      <trkpt lat="44.83257" lon="4.64693">
        <ele>237.1</ele>
        <time>2019-05-12T11:16:43Z</time>
      </trkpt>
      <trkpt lat="44.83248" lon="4.64709">
        <ele>237.1</ele>
        <time>2019-05-12T11:16:56Z</time>
      </trkpt>
      <trkpt lat="44.83251" lon="4.64719">
        <ele>227.97</ele>
        <time>2019-05-12T11:17:07Z</time>
      </trkpt>
      <trkpt lat="44.83253" lon="4.64731">
        <ele>214.51</ele>
        <time>2019-05-12T11:17:20Z</time>
      </trkpt>
      <trkpt lat="44.83261" lon="4.64741">
        <ele>206.34</ele>
        <time>2019-05-12T11:17:31Z</time>
      </trkpt>
      <trkpt lat="44.83262" lon="4.64741">
        <ele>195.28</ele>
        <time>2019-05-12T11:17:45Z</time>
      </trkpt>
      <trkpt lat="44.83254" lon="4.64758">
        <ele>208.74</ele>
        <time>2019-05-12T11:18:08Z</time>
      </trkpt>
      <trkpt lat="44.8325" lon="4.64761">
        <ele>214.51</ele>
        <time>2019-05-12T11:18:37Z</time>
      </trkpt>
      <trkpt lat="44.83248" lon="4.64763">
        <ele>215.95</ele>
        <time>2019-05-12T11:19:06Z</time>
      </trkpt>
      <trkpt lat="44.8324" lon="4.64764">
        <ele>222.2</ele>
        <time>2019-05-12T11:19:22Z</time>
      </trkpt>
      <trkpt lat="44.83232" lon="4.64756">
        <ele>224.61</ele>
        <time>2019-05-12T11:19:33Z</time>
      </trkpt>
      <trkpt lat="44.83229" lon="4.64753">
        <ele>224.61</ele>
        <time>2019-05-12T11:19:36Z</time>
      </trkpt>
      <trkpt lat="44.83209" lon="4.64739">
        <ele>226.05</ele>
        <time>2019-05-12T11:19:51Z</time>
      </trkpt>
      <trkpt lat="44.83195" lon="4.64737">
        <ele>224.61</ele>
        <time>2019-05-12T11:20:03Z</time>
      </trkpt>
      <trkpt lat="44.83182" lon="4.64733">
        <ele>226.05</ele>
        <time>2019-05-12T11:20:16Z</time>
      </trkpt>
      <trkpt lat="44.8317" lon="4.64727">
        <ele>227.01</ele>
        <time>2019-05-12T11:20:27Z</time>
      </trkpt>
      <trkpt lat="44.83166" lon="4.64723">
        <ele>226.53</ele>
        <time>2019-05-12T11:20:31Z</time>
      </trkpt>
      <trkpt lat="44.83158" lon="4.6471">
        <ele>225.57</ele>
        <time>2019-05-12T11:20:43Z</time>
      </trkpt>
      <trkpt lat="44.83147" lon="4.64689">
        <ele>226.53</ele>
        <time>2019-05-12T11:20:55Z</time>
      </trkpt>
      <trkpt lat="44.83146" lon="4.64685">
        <ele>226.53</ele>
        <time>2019-05-12T11:20:57Z</time>
      </trkpt>
      <trkpt lat="44.83138" lon="4.64667">
        <ele>222.68</ele>
        <time>2019-05-12T11:21:12Z</time>
      </trkpt>
      <trkpt lat="44.83129" lon="4.64655">
        <ele>222.2</ele>
        <time>2019-05-12T11:21:23Z</time>
      </trkpt>
      <trkpt lat="44.83115" lon="4.64652">
        <ele>220.28</ele>
        <time>2019-05-12T11:21:36Z</time>
      </trkpt>
      <trkpt lat="44.83106" lon="4.64658">
        <ele>216.43</ele>
        <time>2019-05-12T11:21:48Z</time>
      </trkpt>
      <trkpt lat="44.83098" lon="4.64674">
        <ele>213.07</ele>
        <time>2019-05-12T11:22:01Z</time>
      </trkpt>
      <trkpt lat="44.83095" lon="4.6468">
        <ele>209.7</ele>
        <time>2019-05-12T11:22:07Z</time>
      </trkpt>
      <trkpt lat="44.83083" lon="4.64681">
        <ele>206.82</ele>
        <time>2019-05-12T11:22:19Z</time>
      </trkpt>
      <trkpt lat="44.83069" lon="4.64679">
        <ele>208.26</ele>
        <time>2019-05-12T11:22:31Z</time>
      </trkpt>
      <trkpt lat="44.83066" lon="4.64679">
        <ele>208.26</ele>
        <time>2019-05-12T11:22:33Z</time>
      </trkpt>
      <trkpt lat="44.83052" lon="4.64687">
        <ele>207.78</ele>
        <time>2019-05-12T11:22:46Z</time>
      </trkpt>
      <trkpt lat="44.83051" lon="4.64687">
        <ele>207.78</ele>
        <time>2019-05-12T11:22:47Z</time>
      </trkpt>
      <trkpt lat="44.83048" lon="4.64689">
        <ele>207.3</ele>
        <time>2019-05-12T11:22:50Z</time>
      </trkpt>
      <trkpt lat="44.8304" lon="4.64693">
        <ele>205.86</ele>
        <time>2019-05-12T11:22:57Z</time>
      </trkpt>
      <trkpt lat="44.83031" lon="4.64699">
        <ele>202.98</ele>
        <time>2019-05-12T11:23:04Z</time>
      </trkpt>
      <trkpt lat="44.83022" lon="4.64699">
        <ele>199.13</ele>
        <time>2019-05-12T11:23:17Z</time>
      </trkpt>
      <trkpt lat="44.8301" lon="4.64707">
        <ele>198.17</ele>
        <time>2019-05-12T11:23:27Z</time>
      </trkpt>
      <trkpt lat="44.83001" lon="4.64701">
        <ele>187.11</ele>
        <time>2019-05-12T11:23:38Z</time>
      </trkpt>
      <trkpt lat="44.82984" lon="4.6471">
        <ele>187.11</ele>
        <time>2019-05-12T11:23:51Z</time>
      </trkpt>
      <trkpt lat="44.82966" lon="4.64741">
        <ele>197.69</ele>
        <time>2019-05-12T11:24:01Z</time>
      </trkpt>
      <trkpt lat="44.82958" lon="4.64756">
        <ele>205.38</ele>
        <time>2019-05-12T11:24:05Z</time>
      </trkpt>
      <trkpt lat="44.82956" lon="4.64772">
        <ele>208.74</ele>
        <time>2019-05-12T11:24:13Z</time>
      </trkpt>
      <trkpt lat="44.8295" lon="4.64796">
        <ele>214.51</ele>
        <time>2019-05-12T11:24:25Z</time>
      </trkpt>
      <trkpt lat="44.82948" lon="4.64812">
        <ele>219.8</ele>
        <time>2019-05-12T11:24:33Z</time>
      </trkpt>
      <trkpt lat="44.82949" lon="4.64815">
        <ele>219.8</ele>
        <time>2019-05-12T11:24:35Z</time>
      </trkpt>
      <trkpt lat="44.82949" lon="4.64822">
        <ele>220.76</ele>
        <time>2019-05-12T11:24:38Z</time>
      </trkpt>
      <trkpt lat="44.8295" lon="4.64835">
        <ele>223.64</ele>
        <time>2019-05-12T11:24:46Z</time>
      </trkpt>
      <trkpt lat="44.82948" lon="4.64842">
        <ele>224.12</ele>
        <time>2019-05-12T11:24:54Z</time>
      </trkpt>
      <trkpt lat="44.82947" lon="4.64842">
        <ele>223.64</ele>
        <time>2019-05-12T11:24:57Z</time>
      </trkpt>
      <trkpt lat="44.82938" lon="4.64851">
        <ele>223.16</ele>
        <time>2019-05-12T11:25:08Z</time>
      </trkpt>
      <trkpt lat="44.82932" lon="4.64863">
        <ele>222.68</ele>
        <time>2019-05-12T11:25:18Z</time>
      </trkpt>
      <trkpt lat="44.8293" lon="4.64874">
        <ele>225.57</ele>
        <time>2019-05-12T11:25:29Z</time>
      </trkpt>
      <trkpt lat="44.8292" lon="4.64887">
        <ele>223.64</ele>
        <time>2019-05-12T11:25:39Z</time>
      </trkpt>
      <trkpt lat="44.82915" lon="4.64896">
        <ele>223.64</ele>
        <time>2019-05-12T11:25:46Z</time>
      </trkpt>
      <trkpt lat="44.8291" lon="4.64909">
        <ele>222.68</ele>
        <time>2019-05-12T11:25:59Z</time>
      </trkpt>
      <trkpt lat="44.82906" lon="4.64923">
        <ele>219.32</ele>
        <time>2019-05-12T11:26:08Z</time>
      </trkpt>
      <trkpt lat="44.82901" lon="4.64939">
        <ele>216.43</ele>
        <time>2019-05-12T11:26:18Z</time>
      </trkpt>
      <trkpt lat="44.82899" lon="4.64951">
        <ele>217.4</ele>
        <time>2019-05-12T11:26:26Z</time>
      </trkpt>
      <trkpt lat="44.82899" lon="4.64955">
        <ele>217.88</ele>
        <time>2019-05-12T11:26:28Z</time>
      </trkpt>
      <trkpt lat="44.82895" lon="4.64971">
        <ele>220.28</ele>
        <time>2019-05-12T11:26:35Z</time>
      </trkpt>
      <trkpt lat="44.82895" lon="4.64976">
        <ele>220.76</ele>
        <time>2019-05-12T11:26:38Z</time>
      </trkpt>
      <trkpt lat="44.82896" lon="4.64977">
        <ele>221.24</ele>
        <time>2019-05-12T11:26:39Z</time>
      </trkpt>
      <trkpt lat="44.82897" lon="4.64979">
        <ele>221.24</ele>
        <time>2019-05-12T11:26:40Z</time>
      </trkpt>
      <trkpt lat="44.82898" lon="4.6498">
        <ele>221.24</ele>
        <time>2019-05-12T11:26:41Z</time>
      </trkpt>
      <trkpt lat="44.82898" lon="4.64986">
        <ele>220.28</ele>
        <time>2019-05-12T11:26:44Z</time>
      </trkpt>
      <trkpt lat="44.82897" lon="4.64994">
        <ele>220.76</ele>
        <time>2019-05-12T11:26:48Z</time>
      </trkpt>
      <trkpt lat="44.82895" lon="4.64996">
        <ele>220.76</ele>
        <time>2019-05-12T11:26:49Z</time>
      </trkpt>
      <trkpt lat="44.82892" lon="4.65004">
        <ele>221.72</ele>
        <time>2019-05-12T11:26:53Z</time>
      </trkpt>
      <trkpt lat="44.82889" lon="4.65006">
        <ele>220.76</ele>
        <time>2019-05-12T11:26:54Z</time>
      </trkpt>
      <trkpt lat="44.82886" lon="4.65009">
        <ele>219.8</ele>
        <time>2019-05-12T11:26:55Z</time>
      </trkpt>
      <trkpt lat="44.82884" lon="4.65011">
        <ele>218.84</ele>
        <time>2019-05-12T11:26:56Z</time>
      </trkpt>
      <trkpt lat="44.82876" lon="4.65024">
        <ele>217.4</ele>
        <time>2019-05-12T11:27:07Z</time>
      </trkpt>
      <trkpt lat="44.82867" lon="4.6503">
        <ele>211.15</ele>
        <time>2019-05-12T11:27:18Z</time>
      </trkpt>
      <trkpt lat="44.82858" lon="4.65036">
        <ele>199.61</ele>
        <time>2019-05-12T11:27:32Z</time>
      </trkpt>
      <trkpt lat="44.82856" lon="4.65042">
        <ele>201.05</ele>
        <time>2019-05-12T11:27:35Z</time>
      </trkpt>
      <trkpt lat="44.82845" lon="4.6506">
        <ele>202.98</ele>
        <time>2019-05-12T11:27:47Z</time>
      </trkpt>
      <trkpt lat="44.82841" lon="4.65072">
        <ele>206.34</ele>
        <time>2019-05-12T11:27:57Z</time>
      </trkpt>
      <trkpt lat="44.82831" lon="4.6509">
        <ele>214.03</ele>
        <time>2019-05-12T11:28:09Z</time>
      </trkpt>
      <trkpt lat="44.82823" lon="4.65104">
        <ele>214.03</ele>
        <time>2019-05-12T11:28:21Z</time>
      </trkpt>
      <trkpt lat="44.82821" lon="4.65113">
        <ele>213.07</ele>
        <time>2019-05-12T11:28:30Z</time>
      </trkpt>
      <trkpt lat="44.82813" lon="4.65124">
        <ele>210.67</ele>
        <time>2019-05-12T11:28:38Z</time>
      </trkpt>
      <trkpt lat="44.82804" lon="4.65144">
        <ele>214.99</ele>
        <time>2019-05-12T11:28:47Z</time>
      </trkpt>
      <trkpt lat="44.82797" lon="4.65159">
        <ele>219.32</ele>
        <time>2019-05-12T11:28:56Z</time>
      </trkpt>
      <trkpt lat="44.82791" lon="4.65166">
        <ele>218.36</ele>
        <time>2019-05-12T11:29:00Z</time>
      </trkpt>
      <trkpt lat="44.82782" lon="4.65181">
        <ele>217.4</ele>
        <time>2019-05-12T11:29:08Z</time>
      </trkpt>
      <trkpt lat="44.82782" lon="4.65182">
        <ele>217.4</ele>
        <time>2019-05-12T11:29:09Z</time>
      </trkpt>
      <trkpt lat="44.82782" lon="4.65186">
        <ele>217.4</ele>
        <time>2019-05-12T11:29:11Z</time>
      </trkpt>
      <trkpt lat="44.82782" lon="4.65188">
        <ele>217.4</ele>
        <time>2019-05-12T11:29:12Z</time>
      </trkpt>
      <trkpt lat="44.82782" lon="4.65189">
        <ele>217.88</ele>
        <time>2019-05-12T11:29:13Z</time>
      </trkpt>
      <trkpt lat="44.82782" lon="4.65191">
        <ele>217.88</ele>
        <time>2019-05-12T11:29:14Z</time>
      </trkpt>
      <trkpt lat="44.82782" lon="4.65192">
        <ele>218.36</ele>
        <time>2019-05-12T11:29:15Z</time>
      </trkpt>
      <trkpt lat="44.82781" lon="4.65194">
        <ele>218.36</ele>
        <time>2019-05-12T11:29:16Z</time>
      </trkpt>
      <trkpt lat="44.8278" lon="4.65196">
        <ele>218.84</ele>
        <time>2019-05-12T11:29:17Z</time>
      </trkpt>
      <trkpt lat="44.8278" lon="4.65197">
        <ele>218.84</ele>
        <time>2019-05-12T11:29:18Z</time>
      </trkpt>
      <trkpt lat="44.82771" lon="4.6521">
        <ele>217.4</ele>
        <time>2019-05-12T11:29:30Z</time>
      </trkpt>
      <trkpt lat="44.82763" lon="4.65227">
        <ele>213.07</ele>
        <time>2019-05-12T11:29:43Z</time>
      </trkpt>
      <trkpt lat="44.82762" lon="4.65229">
        <ele>213.07</ele>
        <time>2019-05-12T11:29:44Z</time>
      </trkpt>
      <trkpt lat="44.82761" lon="4.65233">
        <ele>212.59</ele>
        <time>2019-05-12T11:29:47Z</time>
      </trkpt>
      <trkpt lat="44.8276" lon="4.65235">
        <ele>212.59</ele>
        <time>2019-05-12T11:29:48Z</time>
      </trkpt>
      <trkpt lat="44.82759" lon="4.65238">
        <ele>212.59</ele>
        <time>2019-05-12T11:29:50Z</time>
      </trkpt>
      <trkpt lat="44.82756" lon="4.65247">
        <ele>211.15</ele>
        <time>2019-05-12T11:29:55Z</time>
      </trkpt>
      <trkpt lat="44.82754" lon="4.6525">
        <ele>211.15</ele>
        <time>2019-05-12T11:29:57Z</time>
      </trkpt>
      <trkpt lat="44.82751" lon="4.6526">
        <ele>209.22</ele>
        <time>2019-05-12T11:30:06Z</time>
      </trkpt>
      <trkpt lat="44.82747" lon="4.65276">
        <ele>207.78</ele>
        <time>2019-05-12T11:30:17Z</time>
      </trkpt>
      <trkpt lat="44.82744" lon="4.65296">
        <ele>206.82</ele>
        <time>2019-05-12T11:30:28Z</time>
      </trkpt>
      <trkpt lat="44.82743" lon="4.65307">
        <ele>204.42</ele>
        <time>2019-05-12T11:30:36Z</time>
      </trkpt>
      <trkpt lat="44.82744" lon="4.65314">
        <ele>202.01</ele>
        <time>2019-05-12T11:30:41Z</time>
      </trkpt>
      <trkpt lat="44.82743" lon="4.65315">
        <ele>202.01</ele>
        <time>2019-05-12T11:30:42Z</time>
      </trkpt>
      <trkpt lat="44.82743" lon="4.65317">
        <ele>201.53</ele>
        <time>2019-05-12T11:30:43Z</time>
      </trkpt>
      <trkpt lat="44.82743" lon="4.65321">
        <ele>200.57</ele>
        <time>2019-05-12T11:30:47Z</time>
      </trkpt>
      <trkpt lat="44.82741" lon="4.65329">
        <ele>199.61</ele>
        <time>2019-05-12T11:30:53Z</time>
      </trkpt>
      <trkpt lat="44.8274" lon="4.65331">
        <ele>199.61</ele>
        <time>2019-05-12T11:30:54Z</time>
      </trkpt>
      <trkpt lat="44.82739" lon="4.65333">
        <ele>199.61</ele>
        <time>2019-05-12T11:30:55Z</time>
      </trkpt>
      <trkpt lat="44.82738" lon="4.65337">
        <ele>200.09</ele>
        <time>2019-05-12T11:30:58Z</time>
      </trkpt>
      <trkpt lat="44.82735" lon="4.65341">
        <ele>200.09</ele>
        <time>2019-05-12T11:31:00Z</time>
      </trkpt>
      <trkpt lat="44.82732" lon="4.65346">
        <ele>200.09</ele>
        <time>2019-05-12T11:31:03Z</time>
      </trkpt>
      <trkpt lat="44.82729" lon="4.65347">
        <ele>200.09</ele>
        <time>2019-05-12T11:31:04Z</time>
      </trkpt>
      <trkpt lat="44.82722" lon="4.65357">
        <ele>198.17</ele>
        <time>2019-05-12T11:31:11Z</time>
      </trkpt>
      <trkpt lat="44.82715" lon="4.65374">
        <ele>196.73</ele>
        <time>2019-05-12T11:31:22Z</time>
      </trkpt>
      <trkpt lat="44.82708" lon="4.65389">
        <ele>195.77</ele>
        <time>2019-05-12T11:31:32Z</time>
      </trkpt>
      <trkpt lat="44.82707" lon="4.6539">
        <ele>195.77</ele>
        <time>2019-05-12T11:31:33Z</time>
      </trkpt>
      <trkpt lat="44.82707" lon="4.65406">
        <ele>195.28</ele>
        <time>2019-05-12T11:31:42Z</time>
      </trkpt>
      <trkpt lat="44.82701" lon="4.65417">
        <ele>191.92</ele>
        <time>2019-05-12T11:31:50Z</time>
      </trkpt>
      <trkpt lat="44.82697" lon="4.6543">
        <ele>191.92</ele>
        <time>2019-05-12T11:32:01Z</time>
      </trkpt>
      <trkpt lat="44.82688" lon="4.65446">
        <ele>190.48</ele>
        <time>2019-05-12T11:32:10Z</time>
      </trkpt>
      <trkpt lat="44.82679" lon="4.65471">
        <ele>192.4</ele>
        <time>2019-05-12T11:32:23Z</time>
      </trkpt>
      <trkpt lat="44.82673" lon="4.65488">
        <ele>190.48</ele>
        <time>2019-05-12T11:32:34Z</time>
      </trkpt>
      <trkpt lat="44.82667" lon="4.65504">
        <ele>191.44</ele>
        <time>2019-05-12T11:32:45Z</time>
      </trkpt>
      <trkpt lat="44.8266" lon="4.6552">
        <ele>189.52</ele>
        <time>2019-05-12T11:32:56Z</time>
      </trkpt>
      <trkpt lat="44.82651" lon="4.65537">
        <ele>188.56</ele>
        <time>2019-05-12T11:33:06Z</time>
      </trkpt>
      <trkpt lat="44.82647" lon="4.65547">
        <ele>188.56</ele>
        <time>2019-05-12T11:33:11Z</time>
      </trkpt>
      <trkpt lat="44.82633" lon="4.65562">
        <ele>182.31</ele>
        <time>2019-05-12T11:33:27Z</time>
      </trkpt>
      <trkpt lat="44.82623" lon="4.65567">
        <ele>169.33</ele>
        <time>2019-05-12T11:33:42Z</time>
      </trkpt>
      <trkpt lat="44.82613" lon="4.65568">
        <ele>154.43</ele>
        <time>2019-05-12T11:33:57Z</time>
      </trkpt>
      <trkpt lat="44.82602" lon="4.65576">
        <ele>147.7</ele>
        <time>2019-05-12T11:34:11Z</time>
      </trkpt>
      <trkpt lat="44.82585" lon="4.65594">
        <ele>148.18</ele>
        <time>2019-05-12T11:34:28Z</time>
      </trkpt>
      <trkpt lat="44.82571" lon="4.65609">
        <ele>151.54</ele>
        <time>2019-05-12T11:34:41Z</time>
      </trkpt>
      <trkpt lat="44.82559" lon="4.65618">
        <ele>145.3</ele>
        <time>2019-05-12T11:34:56Z</time>
      </trkpt>
      <trkpt lat="44.82542" lon="4.65634">
        <ele>146.74</ele>
        <time>2019-05-12T11:35:11Z</time>
      </trkpt>
      <trkpt lat="44.82529" lon="4.65647">
        <ele>145.3</ele>
        <time>2019-05-12T11:35:25Z</time>
      </trkpt>
      <trkpt lat="44.82517" lon="4.65656">
        <ele>138.57</ele>
        <time>2019-05-12T11:35:41Z</time>
      </trkpt>
      <trkpt lat="44.82508" lon="4.65665">
        <ele>134.72</ele>
        <time>2019-05-12T11:35:52Z</time>
      </trkpt>
      <trkpt lat="44.82494" lon="4.65681">
        <ele>133.76</ele>
        <time>2019-05-12T11:36:07Z</time>
      </trkpt>
      <trkpt lat="44.82476" lon="4.65701">
        <ele>136.16</ele>
        <time>2019-05-12T11:36:24Z</time>
      </trkpt>
      <trkpt lat="44.82472" lon="4.65712">
        <ele>140.01</ele>
        <time>2019-05-12T11:36:31Z</time>
      </trkpt>
      <trkpt lat="44.82471" lon="4.65714">
        <ele>140.97</ele>
        <time>2019-05-12T11:36:32Z</time>
      </trkpt>
      <trkpt lat="44.8247" lon="4.65717">
        <ele>141.45</ele>
        <time>2019-05-12T11:36:33Z</time>
      </trkpt>
      <trkpt lat="44.82469" lon="4.65719">
        <ele>141.93</ele>
        <time>2019-05-12T11:36:34Z</time>
      </trkpt>
      <trkpt lat="44.82455" lon="4.65741">
        <ele>149.62</ele>
        <time>2019-05-12T11:36:46Z</time>
      </trkpt>
      <trkpt lat="44.82444" lon="4.65773">
        <ele>161.64</ele>
        <time>2019-05-12T11:36:58Z</time>
      </trkpt>
      <trkpt lat="44.82441" lon="4.65797">
        <ele>164.04</ele>
        <time>2019-05-12T11:37:12Z</time>
      </trkpt>
      <trkpt lat="44.82435" lon="4.65817">
        <ele>170.77</ele>
        <time>2019-05-12T11:37:20Z</time>
      </trkpt>
      <trkpt lat="44.82434" lon="4.65819">
        <ele>171.25</ele>
        <time>2019-05-12T11:37:21Z</time>
      </trkpt>
      <trkpt lat="44.82435" lon="4.65828">
        <ele>170.77</ele>
        <time>2019-05-12T11:37:26Z</time>
      </trkpt>
      <trkpt lat="44.82435" lon="4.6583">
        <ele>170.29</ele>
        <time>2019-05-12T11:37:27Z</time>
      </trkpt>
      <trkpt lat="44.82435" lon="4.65842">
        <ele>168.37</ele>
        <time>2019-05-12T11:37:35Z</time>
      </trkpt>
      <trkpt lat="44.82435" lon="4.65858">
        <ele>168.37</ele>
        <time>2019-05-12T11:37:44Z</time>
      </trkpt>
      <trkpt lat="44.82436" lon="4.65876">
        <ele>166.93</ele>
        <time>2019-05-12T11:37:54Z</time>
      </trkpt>
      <trkpt lat="44.82434" lon="4.65879">
        <ele>166.45</ele>
        <time>2019-05-12T11:37:56Z</time>
      </trkpt>
      <trkpt lat="44.8243" lon="4.6589">
        <ele>166.45</ele>
        <time>2019-05-12T11:38:06Z</time>
      </trkpt>
      <trkpt lat="44.82429" lon="4.65892">
        <ele>165.96</ele>
        <time>2019-05-12T11:38:07Z</time>
      </trkpt>
      <trkpt lat="44.82428" lon="4.65897">
        <ele>165.96</ele>
        <time>2019-05-12T11:38:10Z</time>
      </trkpt>
      <trkpt lat="44.82422" lon="4.65907">
        <ele>164.04</ele>
        <time>2019-05-12T11:38:19Z</time>
      </trkpt>
      <trkpt lat="44.82416" lon="4.65909">
        <ele>160.68</ele>
        <time>2019-05-12T11:38:26Z</time>
      </trkpt>
      <trkpt lat="44.82405" lon="4.65912">
        <ele>156.83</ele>
        <time>2019-05-12T11:38:36Z</time>
      </trkpt>
      <trkpt lat="44.82397" lon="4.65909">
        <ele>153.47</ele>
        <time>2019-05-12T11:38:46Z</time>
      </trkpt>
      <trkpt lat="44.82396" lon="4.65921">
        <ele>158.27</ele>
        <time>2019-05-12T11:38:57Z</time>
      </trkpt>
      <trkpt lat="44.82404" lon="4.6592">
        <ele>155.39</ele>
        <time>2019-05-12T11:39:07Z</time>
      </trkpt>
      <trkpt lat="44.82423" lon="4.65913">
        <ele>156.35</ele>
        <time>2019-05-12T11:39:21Z</time>
      </trkpt>
      <trkpt lat="44.82439" lon="4.65913">
        <ele>156.35</ele>
        <time>2019-05-12T11:39:31Z</time>
      </trkpt>
      <trkpt lat="44.82445" lon="4.65916">
        <ele>151.06</ele>
        <time>2019-05-12T11:39:38Z</time>
      </trkpt>
      <trkpt lat="44.82462" lon="4.65922">
        <ele>143.85</ele>
        <time>2019-05-12T11:39:52Z</time>
      </trkpt>
      <trkpt lat="44.8248" lon="4.65926">
        <ele>143.85</ele>
        <time>2019-05-12T11:40:06Z</time>
      </trkpt>
      <trkpt lat="44.825" lon="4.65935">
        <ele>151.54</ele>
        <time>2019-05-12T11:40:15Z</time>
      </trkpt>
      <trkpt lat="44.82511" lon="4.65941">
        <ele>153.47</ele>
        <time>2019-05-12T11:40:27Z</time>
      </trkpt>
      <trkpt lat="44.82514" lon="4.65938">
        <ele>153.47</ele>
        <time>2019-05-12T11:40:33Z</time>
      </trkpt>
      <trkpt lat="44.82526" lon="4.6593">
        <ele>157.31</ele>
        <time>2019-05-12T11:40:46Z</time>
      </trkpt>
      <trkpt lat="44.82534" lon="4.65922">
        <ele>159.72</ele>
        <time>2019-05-12T11:40:59Z</time>
      </trkpt>
      <trkpt lat="44.82559" lon="4.65912">
        <ele>156.35</ele>
        <time>2019-05-12T11:41:13Z</time>
      </trkpt>
      <trkpt lat="44.8257" lon="4.65894">
        <ele>151.06</ele>
        <time>2019-05-12T11:41:29Z</time>
      </trkpt>
      <trkpt lat="44.82577" lon="4.6588">
        <ele>148.18</ele>
        <time>2019-05-12T11:41:44Z</time>
      </trkpt>
      <trkpt lat="44.82587" lon="4.6588">
        <ele>145.78</ele>
        <time>2019-05-12T11:41:57Z</time>
      </trkpt>
      <trkpt lat="44.82588" lon="4.6588">
        <ele>145.3</ele>
        <time>2019-05-12T11:41:58Z</time>
      </trkpt>
      <trkpt lat="44.826" lon="4.65876">
        <ele>148.66</ele>
        <time>2019-05-12T11:42:12Z</time>
      </trkpt>
      <trkpt lat="44.82608" lon="4.65882">
        <ele>148.66</ele>
        <time>2019-05-12T11:42:25Z</time>
      </trkpt>
      <trkpt lat="44.82613" lon="4.65889">
        <ele>143.85</ele>
        <time>2019-05-12T11:42:37Z</time>
      </trkpt>
      <trkpt lat="44.82614" lon="4.65901">
        <ele>140.49</ele>
        <time>2019-05-12T11:42:48Z</time>
      </trkpt>
      <trkpt lat="44.82618" lon="4.65912">
        <ele>141.45</ele>
        <time>2019-05-12T11:42:57Z</time>
      </trkpt>
      <trkpt lat="44.82617" lon="4.6592">
        <ele>139.05</ele>
        <time>2019-05-12T11:43:06Z</time>
      </trkpt>
      <trkpt lat="44.82615" lon="4.6593">
        <ele>133.76</ele>
        <time>2019-05-12T11:43:19Z</time>
      </trkpt>
      <trkpt lat="44.82617" lon="4.65939">
        <ele>136.16</ele>
        <time>2019-05-12T11:43:24Z</time>
      </trkpt>
      <trkpt lat="44.82606" lon="4.65961">
        <ele>137.13</ele>
        <time>2019-05-12T11:43:35Z</time>
      </trkpt>
      <trkpt lat="44.82602" lon="4.65967">
        <ele>141.45</ele>
        <time>2019-05-12T11:43:39Z</time>
      </trkpt>
      <trkpt lat="44.826" lon="4.65984">
        <ele>141.93</ele>
        <time>2019-05-12T11:43:50Z</time>
      </trkpt>
      <trkpt lat="44.82599" lon="4.65986">
        <ele>141.93</ele>
        <time>2019-05-12T11:43:51Z</time>
      </trkpt>
      <trkpt lat="44.82592" lon="4.65994">
        <ele>143.85</ele>
        <time>2019-05-12T11:44:02Z</time>
      </trkpt>
      <trkpt lat="44.82576" lon="4.65996">
        <ele>144.82</ele>
        <time>2019-05-12T11:44:16Z</time>
      </trkpt>
      <trkpt lat="44.82575" lon="4.65996">
        <ele>144.34</ele>
        <time>2019-05-12T11:44:17Z</time>
      </trkpt>
      <trkpt lat="44.82567" lon="4.6601">
        <ele>143.85</ele>
        <time>2019-05-12T11:44:28Z</time>
      </trkpt>
      <trkpt lat="44.82566" lon="4.66012">
        <ele>144.34</ele>
        <time>2019-05-12T11:44:31Z</time>
      </trkpt>
      <trkpt lat="44.82555" lon="4.66027">
        <ele>145.3</ele>
        <time>2019-05-12T11:44:41Z</time>
      </trkpt>
      <trkpt lat="44.82546" lon="4.6603">
        <ele>151.06</ele>
        <time>2019-05-12T11:44:51Z</time>
      </trkpt>
      <trkpt lat="44.82545" lon="4.6603">
        <ele>151.06</ele>
        <time>2019-05-12T11:44:52Z</time>
      </trkpt>
      <trkpt lat="44.82534" lon="4.66028">
        <ele>152.99</ele>
        <time>2019-05-12T11:45:03Z</time>
      </trkpt>
      <trkpt lat="44.82533" lon="4.66028">
        <ele>153.47</ele>
        <time>2019-05-12T11:45:06Z</time>
      </trkpt>
      <trkpt lat="44.82515" lon="4.6604">
        <ele>155.39</ele>
        <time>2019-05-12T11:45:19Z</time>
      </trkpt>
      <trkpt lat="44.82503" lon="4.66054">
        <ele>159.72</ele>
        <time>2019-05-12T11:45:32Z</time>
      </trkpt>
      <trkpt lat="44.82489" lon="4.66075">
        <ele>163.08</ele>
        <time>2019-05-12T11:45:47Z</time>
      </trkpt>
      <trkpt lat="44.82486" lon="4.66085">
        <ele>164.04</ele>
        <time>2019-05-12T11:45:53Z</time>
      </trkpt>
      <trkpt lat="44.82484" lon="4.66106">
        <ele>164.04</ele>
        <time>2019-05-12T11:46:06Z</time>
      </trkpt>
      <trkpt lat="44.82484" lon="4.6611">
        <ele>164.04</ele>
        <time>2019-05-12T11:46:09Z</time>
      </trkpt>
      <trkpt lat="44.82483" lon="4.66114">
        <ele>164.04</ele>
        <time>2019-05-12T11:46:12Z</time>
      </trkpt>
      <trkpt lat="44.82482" lon="4.6613">
        <ele>162.6</ele>
        <time>2019-05-12T11:46:22Z</time>
      </trkpt>
      <trkpt lat="44.82482" lon="4.66134">
        <ele>162.6</ele>
        <time>2019-05-12T11:46:24Z</time>
      </trkpt>
      <trkpt lat="44.8248" lon="4.66138">
        <ele>162.12</ele>
        <time>2019-05-12T11:46:27Z</time>
      </trkpt>
      <trkpt lat="44.82479" lon="4.66152">
        <ele>161.64</ele>
        <time>2019-05-12T11:46:36Z</time>
      </trkpt>
      <trkpt lat="44.82479" lon="4.66161">
        <ele>162.12</ele>
        <time>2019-05-12T11:46:41Z</time>
      </trkpt>
      <trkpt lat="44.82474" lon="4.66185">
        <ele>163.56</ele>
        <time>2019-05-12T11:46:56Z</time>
      </trkpt>
      <trkpt lat="44.82471" lon="4.66209">
        <ele>164.04</ele>
        <time>2019-05-12T11:47:10Z</time>
      </trkpt>
      <trkpt lat="44.82471" lon="4.66211">
        <ele>164.52</ele>
        <time>2019-05-12T11:47:11Z</time>
      </trkpt>
      <trkpt lat="44.82469" lon="4.6622">
        <ele>163.08</ele>
        <time>2019-05-12T11:47:17Z</time>
      </trkpt>
      <trkpt lat="44.82467" lon="4.66234">
        <ele>164.52</ele>
        <time>2019-05-12T11:47:24Z</time>
      </trkpt>
      <trkpt lat="44.82473" lon="4.66241">
        <ele>165.96</ele>
        <time>2019-05-12T11:47:30Z</time>
      </trkpt>
      <trkpt lat="44.82478" lon="4.66233">
        <ele>167.41</ele>
        <time>2019-05-12T11:47:37Z</time>
      </trkpt>
      <trkpt lat="44.8249" lon="4.6621">
        <ele>169.33</ele>
        <time>2019-05-12T11:47:52Z</time>
      </trkpt>
      <trkpt lat="44.82505" lon="4.66191">
        <ele>172.21</ele>
        <time>2019-05-12T11:48:07Z</time>
      </trkpt>
      <trkpt lat="44.8252" lon="4.66175">
        <ele>173.66</ele>
        <time>2019-05-12T11:48:21Z</time>
      </trkpt>
      <trkpt lat="44.82533" lon="4.66161">
        <ele>175.58</ele>
        <time>2019-05-12T11:48:35Z</time>
      </trkpt>
      <trkpt lat="44.82534" lon="4.6616">
        <ele>175.58</ele>
        <time>2019-05-12T11:48:36Z</time>
      </trkpt>
      <trkpt lat="44.82546" lon="4.66162">
        <ele>176.06</ele>
        <time>2019-05-12T11:48:50Z</time>
      </trkpt>
      <trkpt lat="44.82547" lon="4.66162">
        <ele>176.54</ele>
        <time>2019-05-12T11:48:51Z</time>
      </trkpt>
      <trkpt lat="44.82562" lon="4.66167">
        <ele>177.02</ele>
        <time>2019-05-12T11:49:07Z</time>
      </trkpt>
      <trkpt lat="44.82573" lon="4.66173">
        <ele>179.42</ele>
        <time>2019-05-12T11:49:23Z</time>
      </trkpt>
      <trkpt lat="44.82578" lon="4.66177">
        <ele>180.87</ele>
        <time>2019-05-12T11:49:35Z</time>
      </trkpt>
      <trkpt lat="44.82587" lon="4.66189">
        <ele>182.31</ele>
        <time>2019-05-12T11:49:48Z</time>
      </trkpt>
      <trkpt lat="44.82592" lon="4.66201">
        <ele>181.83</ele>
        <time>2019-05-12T11:50:01Z</time>
      </trkpt>
      <trkpt lat="44.82595" lon="4.66205">
        <ele>182.31</ele>
        <time>2019-05-12T11:50:04Z</time>
      </trkpt>
      <trkpt lat="44.82597" lon="4.66219">
        <ele>181.35</ele>
        <time>2019-05-12T11:50:17Z</time>
      </trkpt>
      <trkpt lat="44.82608" lon="4.66238">
        <ele>181.83</ele>
        <time>2019-05-12T11:50:30Z</time>
      </trkpt>
      <trkpt lat="44.82616" lon="4.66246">
        <ele>181.35</ele>
        <time>2019-05-12T11:50:46Z</time>
      </trkpt>
      <trkpt lat="44.82624" lon="4.66261">
        <ele>185.19</ele>
        <time>2019-05-12T11:50:59Z</time>
      </trkpt>
      <trkpt lat="44.82632" lon="4.66278">
        <ele>191.44</ele>
        <time>2019-05-12T11:51:11Z</time>
      </trkpt>
      <trkpt lat="44.82633" lon="4.66294">
        <ele>194.8</ele>
        <time>2019-05-12T11:51:24Z</time>
      </trkpt>
      <trkpt lat="44.82638" lon="4.66306">
        <ele>195.77</ele>
        <time>2019-05-12T11:51:36Z</time>
      </trkpt>
      <trkpt lat="44.82644" lon="4.66314">
        <ele>192.88</ele>
        <time>2019-05-12T11:51:48Z</time>
      </trkpt>
      <trkpt lat="44.82652" lon="4.66332">
        <ele>196.73</ele>
        <time>2019-05-12T11:52:00Z</time>
      </trkpt>
      <trkpt lat="44.82655" lon="4.66353">
        <ele>199.13</ele>
        <time>2019-05-12T11:52:14Z</time>
      </trkpt>
      <trkpt lat="44.82651" lon="4.66385">
        <ele>202.01</ele>
        <time>2019-05-12T11:52:30Z</time>
      </trkpt>
      <trkpt lat="44.82653" lon="4.6639">
        <ele>202.01</ele>
        <time>2019-05-12T11:52:33Z</time>
      </trkpt>
      <trkpt lat="44.82662" lon="4.66407">
        <ele>201.53</ele>
        <time>2019-05-12T11:52:47Z</time>
      </trkpt>
      <trkpt lat="44.82664" lon="4.66412">
        <ele>201.05</ele>
        <time>2019-05-12T11:52:51Z</time>
      </trkpt>
      <trkpt lat="44.82665" lon="4.66427">
        <ele>196.73</ele>
        <time>2019-05-12T11:53:01Z</time>
      </trkpt>
      <trkpt lat="44.82671" lon="4.66447">
        <ele>193.36</ele>
        <time>2019-05-12T11:53:14Z</time>
      </trkpt>
      <trkpt lat="44.82672" lon="4.66454">
        <ele>193.36</ele>
        <time>2019-05-12T11:53:17Z</time>
      </trkpt>
      <trkpt lat="44.82673" lon="4.66457">
        <ele>193.36</ele>
        <time>2019-05-12T11:53:19Z</time>
      </trkpt>
      <trkpt lat="44.8268" lon="4.66483">
        <ele>195.28</ele>
        <time>2019-05-12T11:53:33Z</time>
      </trkpt>
      <trkpt lat="44.82687" lon="4.66507">
        <ele>193.36</ele>
        <time>2019-05-12T11:53:48Z</time>
      </trkpt>
      <trkpt lat="44.82691" lon="4.66518">
        <ele>190.96</ele>
        <time>2019-05-12T11:53:56Z</time>
      </trkpt>
      <trkpt lat="44.82696" lon="4.66535">
        <ele>189.52</ele>
        <time>2019-05-12T11:54:08Z</time>
      </trkpt>
      <trkpt lat="44.82702" lon="4.66549">
        <ele>185.67</ele>
        <time>2019-05-12T11:54:21Z</time>
      </trkpt>
      <trkpt lat="44.82694" lon="4.66559">
        <ele>182.79</ele>
        <time>2019-05-12T11:54:32Z</time>
      </trkpt>
      <trkpt lat="44.82676" lon="4.66577">
        <ele>180.38</ele>
        <time>2019-05-12T11:54:43Z</time>
      </trkpt>
      <trkpt lat="44.82665" lon="4.66598">
        <ele>177.5</ele>
        <time>2019-05-12T11:54:54Z</time>
      </trkpt>
      <trkpt lat="44.82664" lon="4.66617">
        <ele>175.58</ele>
        <time>2019-05-12T11:55:06Z</time>
      </trkpt>
      <trkpt lat="44.82672" lon="4.6664">
        <ele>174.62</ele>
        <time>2019-05-12T11:55:18Z</time>
      </trkpt>
      <trkpt lat="44.82675" lon="4.66658">
        <ele>175.58</ele>
        <time>2019-05-12T11:55:28Z</time>
      </trkpt>
      <trkpt lat="44.8267" lon="4.66668">
        <ele>178.46</ele>
        <time>2019-05-12T11:55:38Z</time>
      </trkpt>
      <trkpt lat="44.82652" lon="4.66669">
        <ele>177.02</ele>
        <time>2019-05-12T11:55:52Z</time>
      </trkpt>
      <trkpt lat="44.82638" lon="4.66681">
        <ele>175.58</ele>
        <time>2019-05-12T11:56:07Z</time>
      </trkpt>
      <trkpt lat="44.82637" lon="4.66697">
        <ele>170.77</ele>
        <time>2019-05-12T11:56:23Z</time>
      </trkpt>
      <trkpt lat="44.82637" lon="4.66699">
        <ele>169.81</ele>
        <time>2019-05-12T11:56:25Z</time>
      </trkpt>
      <trkpt lat="44.8263" lon="4.66718">
        <ele>162.12</ele>
        <time>2019-05-12T11:56:40Z</time>
      </trkpt>
      <trkpt lat="44.8263" lon="4.6672">
        <ele>160.68</ele>
        <time>2019-05-12T11:56:42Z</time>
      </trkpt>
      <trkpt lat="44.82627" lon="4.66741">
        <ele>153.47</ele>
        <time>2019-05-12T11:56:56Z</time>
      </trkpt>
      <trkpt lat="44.82626" lon="4.66764">
        <ele>152.03</ele>
        <time>2019-05-12T11:57:08Z</time>
      </trkpt>
      <trkpt lat="44.82627" lon="4.66774">
        <ele>152.99</ele>
        <time>2019-05-12T11:57:13Z</time>
      </trkpt>
      <trkpt lat="44.82624" lon="4.66796">
        <ele>155.39</ele>
        <time>2019-05-12T11:57:25Z</time>
      </trkpt>
      <trkpt lat="44.82623" lon="4.66798">
        <ele>154.91</ele>
        <time>2019-05-12T11:57:26Z</time>
      </trkpt>
      <trkpt lat="44.82626" lon="4.66815">
        <ele>154.43</ele>
        <time>2019-05-12T11:57:34Z</time>
      </trkpt>
      <trkpt lat="44.82637" lon="4.66838">
        <ele>156.83</ele>
        <time>2019-05-12T11:57:48Z</time>
      </trkpt>
      <trkpt lat="44.82644" lon="4.66852">
        <ele>155.39</ele>
        <time>2019-05-12T11:57:59Z</time>
      </trkpt>
      <trkpt lat="44.82646" lon="4.66857">
        <ele>154.43</ele>
        <time>2019-05-12T11:58:03Z</time>
      </trkpt>
      <trkpt lat="44.82648" lon="4.6688">
        <ele>150.1</ele>
        <time>2019-05-12T11:58:18Z</time>
      </trkpt>
      <trkpt lat="44.8265" lon="4.66883">
        <ele>149.62</ele>
        <time>2019-05-12T11:58:20Z</time>
      </trkpt>
      <trkpt lat="44.82663" lon="4.66898">
        <ele>145.3</ele>
        <time>2019-05-12T11:58:36Z</time>
      </trkpt>
      <trkpt lat="44.82676" lon="4.66904">
        <ele>142.89</ele>
        <time>2019-05-12T11:58:49Z</time>
      </trkpt>
      <trkpt lat="44.82691" lon="4.66902">
        <ele>143.85</ele>
        <time>2019-05-12T11:59:01Z</time>
      </trkpt>
      <trkpt lat="44.82704" lon="4.66899">
        <ele>140.97</ele>
        <time>2019-05-12T11:59:13Z</time>
      </trkpt>
      <trkpt lat="44.82715" lon="4.66899">
        <ele>136.64</ele>
        <time>2019-05-12T11:59:27Z</time>
      </trkpt>
      <trkpt lat="44.82729" lon="4.66887">
        <ele>138.57</ele>
        <time>2019-05-12T11:59:39Z</time>
      </trkpt>
      <trkpt lat="44.82741" lon="4.66893">
        <ele>139.05</ele>
        <time>2019-05-12T11:59:53Z</time>
      </trkpt>
      <trkpt lat="44.82748" lon="4.66911">
        <ele>139.05</ele>
        <time>2019-05-12T12:00:06Z</time>
      </trkpt>
      <trkpt lat="44.82748" lon="4.66913">
        <ele>139.05</ele>
        <time>2019-05-12T12:00:07Z</time>
      </trkpt>
      <trkpt lat="44.82747" lon="4.66933">
        <ele>135.68</ele>
        <time>2019-05-12T12:00:20Z</time>
      </trkpt>
      <trkpt lat="44.82745" lon="4.66951">
        <ele>135.2</ele>
        <time>2019-05-12T12:00:34Z</time>
      </trkpt>
      <trkpt lat="44.82743" lon="4.66957">
        <ele>134.72</ele>
        <time>2019-05-12T12:00:38Z</time>
      </trkpt>
      <trkpt lat="44.82738" lon="4.66987">
        <ele>138.09</ele>
        <time>2019-05-12T12:00:52Z</time>
      </trkpt>
      <trkpt lat="44.82741" lon="4.67009">
        <ele>140.49</ele>
        <time>2019-05-12T12:01:05Z</time>
      </trkpt>
      <trkpt lat="44.82741" lon="4.6701">
        <ele>140.49</ele>
        <time>2019-05-12T12:01:06Z</time>
      </trkpt>
      <trkpt lat="44.82741" lon="4.67012">
        <ele>140.97</ele>
        <time>2019-05-12T12:01:07Z</time>
      </trkpt>
      <trkpt lat="44.82743" lon="4.67043">
        <ele>146.74</ele>
        <time>2019-05-12T12:01:21Z</time>
      </trkpt>
      <trkpt lat="44.82751" lon="4.67072">
        <ele>149.14</ele>
        <time>2019-05-12T12:01:35Z</time>
      </trkpt>
      <trkpt lat="44.82752" lon="4.67074">
        <ele>148.66</ele>
        <time>2019-05-12T12:01:37Z</time>
      </trkpt>
      <trkpt lat="44.82754" lon="4.67089">
        <ele>141.93</ele>
        <time>2019-05-12T12:01:48Z</time>
      </trkpt>
      <trkpt lat="44.82756" lon="4.67097">
        <ele>140.49</ele>
        <time>2019-05-12T12:01:53Z</time>
      </trkpt>
      <trkpt lat="44.8276" lon="4.67106">
        <ele>136.64</ele>
        <time>2019-05-12T12:02:01Z</time>
      </trkpt>
      <trkpt lat="44.82761" lon="4.6711">
        <ele>137.61</ele>
        <time>2019-05-12T12:02:03Z</time>
      </trkpt>
      <trkpt lat="44.82761" lon="4.67112">
        <ele>137.61</ele>
        <time>2019-05-12T12:02:04Z</time>
      </trkpt>
      <trkpt lat="44.82762" lon="4.67114">
        <ele>137.61</ele>
        <time>2019-05-12T12:02:05Z</time>
      </trkpt>
      <trkpt lat="44.82762" lon="4.67116">
        <ele>137.61</ele>
        <time>2019-05-12T12:02:06Z</time>
      </trkpt>
      <trkpt lat="44.82762" lon="4.67119">
        <ele>138.57</ele>
        <time>2019-05-12T12:02:07Z</time>
      </trkpt>
      <trkpt lat="44.82763" lon="4.67121">
        <ele>138.57</ele>
        <time>2019-05-12T12:02:08Z</time>
      </trkpt>
      <trkpt lat="44.8277" lon="4.6714">
        <ele>143.37</ele>
        <time>2019-05-12T12:02:16Z</time>
      </trkpt>
      <trkpt lat="44.82771" lon="4.67143">
        <ele>143.85</ele>
        <time>2019-05-12T12:02:17Z</time>
      </trkpt>
      <trkpt lat="44.82777" lon="4.67165">
        <ele>146.26</ele>
        <time>2019-05-12T12:02:29Z</time>
      </trkpt>
      <trkpt lat="44.8278" lon="4.67178">
        <ele>147.22</ele>
        <time>2019-05-12T12:02:35Z</time>
      </trkpt>
      <trkpt lat="44.8278" lon="4.6718">
        <ele>147.7</ele>
        <time>2019-05-12T12:02:36Z</time>
      </trkpt>
      <trkpt lat="44.82786" lon="4.67203">
        <ele>146.74</ele>
        <time>2019-05-12T12:02:49Z</time>
      </trkpt>
      <trkpt lat="44.82794" lon="4.67222">
        <ele>144.82</ele>
        <time>2019-05-12T12:03:03Z</time>
      </trkpt>
      <trkpt lat="44.82804" lon="4.67247">
        <ele>143.37</ele>
        <time>2019-05-12T12:03:19Z</time>
      </trkpt>
      <trkpt lat="44.82805" lon="4.6725">
        <ele>143.85</ele>
        <time>2019-05-12T12:03:21Z</time>
      </trkpt>
      <trkpt lat="44.82813" lon="4.67267">
        <ele>145.3</ele>
        <time>2019-05-12T12:03:34Z</time>
      </trkpt>
      <trkpt lat="44.82816" lon="4.67273">
        <ele>145.3</ele>
        <time>2019-05-12T12:03:38Z</time>
      </trkpt>
      <trkpt lat="44.82819" lon="4.67279">
        <ele>145.3</ele>
        <time>2019-05-12T12:03:43Z</time>
      </trkpt>
      <trkpt lat="44.8282" lon="4.67281">
        <ele>145.78</ele>
        <time>2019-05-12T12:03:44Z</time>
      </trkpt>
      <trkpt lat="44.82826" lon="4.67297">
        <ele>148.18</ele>
        <time>2019-05-12T12:03:52Z</time>
      </trkpt>
      <trkpt lat="44.82826" lon="4.67299">
        <ele>148.18</ele>
        <time>2019-05-12T12:03:53Z</time>
      </trkpt>
      <trkpt lat="44.82827" lon="4.673">
        <ele>148.18</ele>
        <time>2019-05-12T12:03:54Z</time>
      </trkpt>
      <trkpt lat="44.82828" lon="4.67301">
        <ele>148.18</ele>
        <time>2019-05-12T12:03:55Z</time>
      </trkpt>
      <trkpt lat="44.82828" lon="4.67303">
        <ele>148.18</ele>
        <time>2019-05-12T12:03:56Z</time>
      </trkpt>
      <trkpt lat="44.82829" lon="4.67305">
        <ele>148.66</ele>
        <time>2019-05-12T12:03:57Z</time>
      </trkpt>
      <trkpt lat="44.82838" lon="4.67327">
        <ele>148.66</ele>
        <time>2019-05-12T12:04:13Z</time>
      </trkpt>
      <trkpt lat="44.82845" lon="4.67347">
        <ele>148.66</ele>
        <time>2019-05-12T12:04:26Z</time>
      </trkpt>
      <trkpt lat="44.82849" lon="4.67357">
        <ele>150.1</ele>
        <time>2019-05-12T12:04:32Z</time>
      </trkpt>
      <trkpt lat="44.8285" lon="4.67359">
        <ele>150.1</ele>
        <time>2019-05-12T12:04:33Z</time>
      </trkpt>
      <trkpt lat="44.82851" lon="4.67361">
        <ele>150.1</ele>
        <time>2019-05-12T12:04:34Z</time>
      </trkpt>
      <trkpt lat="44.82856" lon="4.67375">
        <ele>148.66</ele>
        <time>2019-05-12T12:04:43Z</time>
      </trkpt>
      <trkpt lat="44.82863" lon="4.67392">
        <ele>148.18</ele>
        <time>2019-05-12T12:04:54Z</time>
      </trkpt>
      <trkpt lat="44.82872" lon="4.67412">
        <ele>149.14</ele>
        <time>2019-05-12T12:05:09Z</time>
      </trkpt>
      <trkpt lat="44.82877" lon="4.6743">
        <ele>143.85</ele>
        <time>2019-05-12T12:05:23Z</time>
      </trkpt>
      <trkpt lat="44.82883" lon="4.67454">
        <ele>143.85</ele>
        <time>2019-05-12T12:05:38Z</time>
      </trkpt>
      <trkpt lat="44.8289" lon="4.6748">
        <ele>144.34</ele>
        <time>2019-05-12T12:05:55Z</time>
      </trkpt>
      <trkpt lat="44.82901" lon="4.67505">
        <ele>144.82</ele>
        <time>2019-05-12T12:06:12Z</time>
      </trkpt>
      <trkpt lat="44.82909" lon="4.67531">
        <ele>144.34</ele>
        <time>2019-05-12T12:06:27Z</time>
      </trkpt>
      <trkpt lat="44.82917" lon="4.67562">
        <ele>145.78</ele>
        <time>2019-05-12T12:06:43Z</time>
      </trkpt>
      <trkpt lat="44.82925" lon="4.67586">
        <ele>146.74</ele>
        <time>2019-05-12T12:06:58Z</time>
      </trkpt>
      <trkpt lat="44.82928" lon="4.67594">
        <ele>146.74</ele>
        <time>2019-05-12T12:07:09Z</time>
      </trkpt>
      <trkpt lat="44.82926" lon="4.676">
        <ele>146.74</ele>
        <time>2019-05-12T12:07:22Z</time>
      </trkpt>
      <trkpt lat="44.82912" lon="4.67615">
        <ele>146.26</ele>
        <time>2019-05-12T12:07:35Z</time>
      </trkpt>
      <trkpt lat="44.8291" lon="4.67616">
        <ele>146.26</ele>
        <time>2019-05-12T12:07:36Z</time>
      </trkpt>
      <trkpt lat="44.82899" lon="4.67617">
        <ele>145.78</ele>
        <time>2019-05-12T12:07:46Z</time>
      </trkpt>
      <trkpt lat="44.82892" lon="4.67622">
        <ele>145.3</ele>
        <time>2019-05-12T12:07:51Z</time>
      </trkpt>
      <trkpt lat="44.8289" lon="4.67623">
        <ele>145.3</ele>
        <time>2019-05-12T12:07:52Z</time>
      </trkpt>
      <trkpt lat="44.82875" lon="4.67633">
        <ele>145.78</ele>
        <time>2019-05-12T12:08:04Z</time>
      </trkpt>
      <trkpt lat="44.82863" lon="4.67643">
        <ele>145.3</ele>
        <time>2019-05-12T12:08:15Z</time>
      </trkpt>
      <trkpt lat="44.82848" lon="4.67646">
        <ele>143.85</ele>
        <time>2019-05-12T12:08:29Z</time>
      </trkpt>
      <trkpt lat="44.82835" lon="4.67654">
        <ele>142.89</ele>
        <time>2019-05-12T12:08:42Z</time>
      </trkpt>
      <trkpt lat="44.82834" lon="4.67654">
        <ele>142.89</ele>
        <time>2019-05-12T12:08:43Z</time>
      </trkpt>
      <trkpt lat="44.82827" lon="4.6766">
        <ele>140.49</ele>
        <time>2019-05-12T12:08:55Z</time>
      </trkpt>
      <trkpt lat="44.82817" lon="4.67666">
        <ele>140.01</ele>
        <time>2019-05-12T12:09:08Z</time>
      </trkpt>
      <trkpt lat="44.82811" lon="4.67671">
        <ele>140.01</ele>
        <time>2019-05-12T12:09:14Z</time>
      </trkpt>
      <trkpt lat="44.82786" lon="4.67684">
        <ele>140.49</ele>
        <time>2019-05-12T12:09:31Z</time>
      </trkpt>
      <trkpt lat="44.82758" lon="4.67697">
        <ele>141.93</ele>
        <time>2019-05-12T12:09:46Z</time>
      </trkpt>
      <trkpt lat="44.82742" lon="4.67706">
        <ele>141.93</ele>
        <time>2019-05-12T12:10:01Z</time>
      </trkpt>
      <trkpt lat="44.82722" lon="4.67717">
        <ele>142.41</ele>
        <time>2019-05-12T12:10:17Z</time>
      </trkpt>
      <trkpt lat="44.82697" lon="4.6773">
        <ele>142.89</ele>
        <time>2019-05-12T12:10:35Z</time>
      </trkpt>
      <trkpt lat="44.82676" lon="4.67741">
        <ele>142.41</ele>
        <time>2019-05-12T12:10:50Z</time>
      </trkpt>
      <trkpt lat="44.82661" lon="4.6775">
        <ele>141.93</ele>
        <time>2019-05-12T12:11:05Z</time>
      </trkpt>
      <trkpt lat="44.82646" lon="4.67757">
        <ele>141.93</ele>
        <time>2019-05-12T12:11:19Z</time>
      </trkpt>
      <trkpt lat="44.82631" lon="4.67773">
        <ele>144.82</ele>
        <time>2019-05-12T12:11:33Z</time>
      </trkpt>
      <trkpt lat="44.82626" lon="4.67792">
        <ele>142.89</ele>
        <time>2019-05-12T12:11:46Z</time>
      </trkpt>
      <trkpt lat="44.82623" lon="4.67814">
        <ele>140.49</ele>
        <time>2019-05-12T12:12:00Z</time>
      </trkpt>
      <trkpt lat="44.82623" lon="4.67824">
        <ele>139.53</ele>
        <time>2019-05-12T12:12:07Z</time>
      </trkpt>
      <trkpt lat="44.82621" lon="4.67845">
        <ele>135.2</ele>
        <time>2019-05-12T12:12:22Z</time>
      </trkpt>
      <trkpt lat="44.82621" lon="4.67866">
        <ele>133.28</ele>
        <time>2019-05-12T12:12:35Z</time>
      </trkpt>
      <trkpt lat="44.8262" lon="4.67884">
        <ele>129.92</ele>
        <time>2019-05-12T12:12:48Z</time>
      </trkpt>
      <trkpt lat="44.82618" lon="4.67909">
        <ele>126.07</ele>
        <time>2019-05-12T12:13:04Z</time>
      </trkpt>
      <trkpt lat="44.82616" lon="4.67922">
        <ele>125.59</ele>
        <time>2019-05-12T12:13:16Z</time>
      </trkpt>
      <trkpt lat="44.82614" lon="4.67946">
        <ele>128.95</ele>
        <time>2019-05-12T12:13:28Z</time>
      </trkpt>
      <trkpt lat="44.82613" lon="4.67966">
        <ele>129.92</ele>
        <time>2019-05-12T12:13:40Z</time>
      </trkpt>
      <trkpt lat="44.8261" lon="4.6798">
        <ele>130.88</ele>
        <time>2019-05-12T12:13:49Z</time>
      </trkpt>
      <trkpt lat="44.8261" lon="4.68002">
        <ele>138.57</ele>
        <time>2019-05-12T12:14:05Z</time>
      </trkpt>
      <trkpt lat="44.82599" lon="4.68003">
        <ele>137.61</ele>
        <time>2019-05-12T12:14:18Z</time>
      </trkpt>
      <trkpt lat="44.82588" lon="4.68">
        <ele>138.57</ele>
        <time>2019-05-12T12:14:30Z</time>
      </trkpt>
      <trkpt lat="44.82581" lon="4.68001">
        <ele>140.49</ele>
        <time>2019-05-12T12:14:37Z</time>
      </trkpt>
      <trkpt lat="44.82571" lon="4.68007">
        <ele>142.89</ele>
        <time>2019-05-12T12:14:48Z</time>
      </trkpt>
      <trkpt lat="44.82552" lon="4.68019">
        <ele>149.62</ele>
        <time>2019-05-12T12:14:58Z</time>
      </trkpt>
      <trkpt lat="44.82543" lon="4.68032">
        <ele>149.62</ele>
        <time>2019-05-12T12:15:09Z</time>
      </trkpt>
      <trkpt lat="44.82537" lon="4.68044">
        <ele>146.74</ele>
        <time>2019-05-12T12:15:20Z</time>
      </trkpt>
      <trkpt lat="44.82537" lon="4.68049">
        <ele>146.26</ele>
        <time>2019-05-12T12:15:24Z</time>
      </trkpt>
      <trkpt lat="44.82535" lon="4.6806">
        <ele>146.74</ele>
        <time>2019-05-12T12:15:36Z</time>
      </trkpt>
      <trkpt lat="44.82535" lon="4.68054">
        <ele>142.89</ele>
        <time>2019-05-12T12:15:47Z</time>
      </trkpt>
      <trkpt lat="44.82528" lon="4.68046">
        <ele>142.41</ele>
        <time>2019-05-12T12:16:04Z</time>
      </trkpt>
      <trkpt lat="44.82528" lon="4.68041">
        <ele>148.18</ele>
        <time>2019-05-12T12:16:22Z</time>
      </trkpt>
      <trkpt lat="44.82531" lon="4.6804">
        <ele>153.47</ele>
        <time>2019-05-12T12:16:41Z</time>
      </trkpt>
      <trkpt lat="44.82531" lon="4.6804">
        <ele>155.39</ele>
        <time>2019-05-12T12:16:58Z</time>
      </trkpt>
      <trkpt lat="44.82532" lon="4.68035">
        <ele>153.47</ele>
        <time>2019-05-12T12:17:12Z</time>
      </trkpt>
      <trkpt lat="44.82532" lon="4.6803">
        <ele>152.99</ele>
        <time>2019-05-12T12:17:28Z</time>
      </trkpt>
      <trkpt lat="44.82532" lon="4.68027">
        <ele>152.99</ele>
        <time>2019-05-12T12:17:50Z</time>
      </trkpt>
      <trkpt lat="44.82535" lon="4.68025">
        <ele>153.47</ele>
        <time>2019-05-12T12:18:16Z</time>
      </trkpt>
      <trkpt lat="44.82536" lon="4.68026">
        <ele>154.91</ele>
        <time>2019-05-12T12:18:36Z</time>
      </trkpt>
      <trkpt lat="44.82535" lon="4.68026">
        <ele>155.87</ele>
        <time>2019-05-12T12:18:56Z</time>
      </trkpt>
      <trkpt lat="44.82532" lon="4.68027">
        <ele>154.91</ele>
        <time>2019-05-12T12:19:20Z</time>
      </trkpt>
      <trkpt lat="44.82529" lon="4.68016">
        <ele>150.58</ele>
        <time>2019-05-12T12:19:43Z</time>
      </trkpt>
      <trkpt lat="44.82531" lon="4.68019">
        <ele>151.54</ele>
        <time>2019-05-12T12:19:58Z</time>
      </trkpt>
      <trkpt lat="44.82531" lon="4.6802">
        <ele>152.99</ele>
        <time>2019-05-12T12:20:13Z</time>
      </trkpt>
      <trkpt lat="44.82531" lon="4.68021">
        <ele>154.91</ele>
        <time>2019-05-12T12:20:32Z</time>
      </trkpt>
      <trkpt lat="44.82529" lon="4.68023">
        <ele>158.27</ele>
        <time>2019-05-12T12:20:46Z</time>
      </trkpt>
      <trkpt lat="44.82534" lon="4.6802">
        <ele>158.75</ele>
        <time>2019-05-12T12:21:04Z</time>
      </trkpt>
      <trkpt lat="44.82533" lon="4.68019">
        <ele>159.24</ele>
        <time>2019-05-12T12:21:35Z</time>
      </trkpt>
      <trkpt lat="44.82531" lon="4.68019">
        <ele>161.64</ele>
        <time>2019-05-12T12:22:06Z</time>
      </trkpt>
      <trkpt lat="44.82529" lon="4.68021">
        <ele>163.56</ele>
        <time>2019-05-12T12:22:34Z</time>
      </trkpt>
      <trkpt lat="44.8252" lon="4.68023">
        <ele>164.04</ele>
        <time>2019-05-12T12:23:10Z</time>
      </trkpt>
      <trkpt lat="44.82515" lon="4.68025">
        <ele>165.96</ele>
        <time>2019-05-12T12:23:48Z</time>
      </trkpt>
      <trkpt lat="44.82516" lon="4.68024">
        <ele>165.48</ele>
        <time>2019-05-12T12:24:15Z</time>
      </trkpt>
      <trkpt lat="44.82515" lon="4.68025">
        <ele>163.08</ele>
        <time>2019-05-12T12:24:41Z</time>
      </trkpt>
      <trkpt lat="44.82517" lon="4.68026">
        <ele>161.16</ele>
        <time>2019-05-12T12:25:06Z</time>
      </trkpt>
      <trkpt lat="44.82521" lon="4.68028">
        <ele>161.16</ele>
        <time>2019-05-12T12:25:13Z</time>
      </trkpt>
      <trkpt lat="44.82529" lon="4.68025">
        <ele>159.24</ele>
        <time>2019-05-12T12:25:27Z</time>
      </trkpt>
      <trkpt lat="44.8253" lon="4.6802">
        <ele>158.27</ele>
        <time>2019-05-12T12:26:06Z</time>
      </trkpt>
      <trkpt lat="44.82531" lon="4.68022">
        <ele>159.72</ele>
        <time>2019-05-12T12:26:43Z</time>
      </trkpt>
      <trkpt lat="44.8253" lon="4.68022">
        <ele>159.24</ele>
        <time>2019-05-12T12:27:23Z</time>
      </trkpt>
      <trkpt lat="44.82532" lon="4.68018">
        <ele>155.87</ele>
        <time>2019-05-12T12:28:05Z</time>
      </trkpt>
      <trkpt lat="44.82527" lon="4.68021">
        <ele>157.79</ele>
        <time>2019-05-12T12:28:40Z</time>
      </trkpt>
      <trkpt lat="44.82529" lon="4.68021">
        <ele>157.79</ele>
        <time>2019-05-12T12:29:21Z</time>
      </trkpt>
      <trkpt lat="44.82529" lon="4.68025">
        <ele>156.83</ele>
        <time>2019-05-12T12:29:57Z</time>
      </trkpt>
      <trkpt lat="44.82528" lon="4.68027">
        <ele>154.91</ele>
        <time>2019-05-12T12:30:27Z</time>
      </trkpt>
      <trkpt lat="44.82528" lon="4.68021">
        <ele>156.35</ele>
        <time>2019-05-12T12:30:51Z</time>
      </trkpt>
      <trkpt lat="44.82526" lon="4.68019">
        <ele>155.39</ele>
        <time>2019-05-12T12:31:24Z</time>
      </trkpt>
      <trkpt lat="44.82528" lon="4.68022">
        <ele>157.79</ele>
        <time>2019-05-12T12:31:47Z</time>
      </trkpt>
      <trkpt lat="44.82532" lon="4.68025">
        <ele>158.75</ele>
        <time>2019-05-12T12:32:00Z</time>
      </trkpt>
      <trkpt lat="44.82532" lon="4.68032">
        <ele>159.72</ele>
        <time>2019-05-12T12:32:15Z</time>
      </trkpt>
      <trkpt lat="44.82535" lon="4.68036">
        <ele>162.12</ele>
        <time>2019-05-12T12:32:26Z</time>
      </trkpt>
      <trkpt lat="44.82536" lon="4.68045">
        <ele>160.2</ele>
        <time>2019-05-12T12:32:40Z</time>
      </trkpt>
      <trkpt lat="44.82536" lon="4.68051">
        <ele>159.72</ele>
        <time>2019-05-12T12:32:58Z</time>
      </trkpt>
      <trkpt lat="44.82533" lon="4.68053">
        <ele>159.24</ele>
        <time>2019-05-12T12:33:20Z</time>
      </trkpt>
      <trkpt lat="44.82543" lon="4.68051">
        <ele>164.04</ele>
        <time>2019-05-12T12:33:41Z</time>
      </trkpt>
      <trkpt lat="44.82537" lon="4.68054">
        <ele>165</ele>
        <time>2019-05-12T12:34:14Z</time>
      </trkpt>
    </trkseg>
  </trk>
</gpx>